[[{"header":{"parameterUnit":"m.s-1","parameterCategory":1,"la1":30.6,"la2":29.2853,"lo1":-89.7004,"lo2":-87.6739,"dy":0.0162,"dx":0.0183,"nx":112,"ny":82,"refTime":"2023-09-25T12:00:00:Z","depth":0,"parameterNumber":2,"parameterNumberName":"U-component_of_WINDS"},"data":[0.0,0.0,0.0,0.0,0.0,0.0,0.0,0.0,0.0,0.0,0.0,0.0,0.0,0.0,0.0,0.0,0.0,0.0,0.0,0.0,0.0,0.0,0.0,0.0,0.0,0.0,0.0,0.0,0.0,0.0,0.0,0.0,0.0,0.0,0.0,0.0,0.0,0.0,0.0,0.0,0.0,0.0,0.0,0.0,0.0,0.0,0.0,0.0,0.0,0.0,0.0,0.0,0.0,0.0,0.0,0.0,0.0,0.0,0.0,0.0,0.0,0.0,0.0,0.0,0.0,0.0,0.0,0.0,0.0,0.0,0.0,0.0,0.0,0.0,0.0,0.0,0.0,0.0,0.0,0.0,0.0,0.0,0.0,0.0,0.0,0.0,0.0,0.0,0.0,0.0,1.102,1.102,1.0284,0.9699,0.9444,0.9669,1.0912,1.3489,0.0,0.0,0.0,0.0,0.0,0.0,0.0,0.0,0.0,0.0,0.0,0.0,0.0,0.0,0.0,0.0,0.0,0.0,0.0,0.0,0.0,0.0,0.0,0.0,0.0,0.0,0.0,0.0,0.0,0.0,0.0,0.0,0.0,0.0,0.0,0.0,0.0,0.0,0.0,0.0,0.0,0.0,0.0,0.0,0.0,0.0,0.0,0.0,0.0,0.0,0.0,0.0,0.0,0.0,0.0,0.0,0.0,0.0,0.0,0.0,0.0,0.0,0.0,0.0,0.0,0.0,0.0,0.0,0.0,0.0,0.0,0.0,0.0,0.0,0.0,0.0,0.0,0.0,0.0,0.0,0.0,0.0,0.0,0.0,0.0,0.0,0.0,0.0,0.0,0.0,0.0,0.0,0.0,0.0,0.0,0.0,0.0,0.0,0.0,0.0,0.0,0.0,0.0,0.0,0.9687,0.9687,1.0835,1.1053,0.9689,1.0927,1.1983,1.2431,0.0,0.0,0.0,0.0,0.0,0.0,0.0,0.0,0.0,0.0,0.0,0.0,0.0,0.0,0.0,0.0,0.0,0.0,0.0,0.0,0.0,0.0,0.0,0.0,0.0,0.0,0.0,0.0,0.0,0.0,0.0,0.0,0.0,0.0,0.0,0.0,0.0,0.0,0.0,0.0,0.0,0.0,0.0,0.0,0.0,0.0,0.0,0.0,0.0,0.0,0.0,0.0,0.0,0.0,0.0,0.0,0.0,0.0,0.0,0.0,0.0,0.0,0.0,0.0,0.0,0.0,0.0,0.0,0.0,0.0,0.0,0.0,0.0,0.0,0.0,0.0,0.0,0.0,0.0,0.0,0.0,0.0,0.0,0.0,0.0,0.0,0.0,0.0,0.0,0.0,0.0,0.0,0.0,0.0,0.0,0.0,0.0,0.0,0.0,0.0,0.0,0.0,0.0,1.256,1.265,1.1071,1.2415,1.312,1.2358,1.3033,1.3885,1.4737,1.378,0.0,0.0,0.0,0.0,0.0,0.0,0.0,0.0,0.0,0.0,0.0,0.0,0.0,0.0,0.0,0.0,0.0,0.0,0.0,0.0,0.0,0.0,0.0,0.0,0.0,0.0,0.0,0.0,0.0,0.0,0.0,0.0,0.0,0.0,0.0,0.0,0.0,0.0,0.0,0.0,0.0,0.0,0.0,0.0,0.0,0.0,0.0,0.0,0.0,0.0,0.0,0.0,0.0,0.0,0.0,0.0,0.0,0.0,0.0,0.0,0.0,0.0,0.0,0.0,0.0,0.0,0.0,0.0,0.0,0.0,0.0,0.0,0.0,0.0,0.0,0.0,0.0,0.0,0.0,0.0,0.0,0.0,0.0,0.0,0.0,0.0,0.0,0.0,0.0,0.0,0.0,0.0,0.0,0.0,0.0,0.0,0.0,0.0,0.0,0.0,0.0,0.0,1.3429,1.4074,1.187,1.2719,1.3467,1.3467,1.3825,1.4718,1.6344,1.5636,0.0,0.0,0.0,0.0,0.0,0.0,0.0,0.0,0.0,0.0,0.0,0.0,0.0,0.0,0.0,0.0,0.0,0.0,0.0,0.0,0.0,0.0,0.0,0.0,0.0,0.0,0.0,0.0,0.0,0.0,0.0,0.0,0.0,0.0,0.0,0.0,0.0,0.0,0.0,0.0,0.0,0.0,0.0,0.0,0.0,0.0,0.0,0.0,0.0,0.0,0.0,0.0,0.0,0.0,0.0,0.0,0.0,0.0,0.0,0.0,0.0,0.0,0.0,0.0,0.0,0.0,0.0,0.0,0.0,0.0,0.0,0.0,0.0,0.0,0.0,0.0,0.0,0.0,0.0,0.0,0.0,0.0,0.0,0.0,0.0,0.0,0.0,0.0,0.0,0.0,0.0,0.0,0.0,0.0,0.0,0.0,0.0,0.0,0.0,0.0,0.0,0.0,1.0135,1.0195,0.9997,1.0058,1.0149,1.0149,1.1495,1.3048,1.4658,1.6079,0.0,0.0,0.0,0.0,0.0,0.0,0.0,0.0,0.0,0.0,0.0,0.0,0.0,0.0,0.0,0.0,0.0,0.0,0.0,0.0,0.0,0.0,0.0,0.0,0.0,0.0,0.0,0.0,0.0,0.0,0.0,0.0,0.0,0.0,0.0,0.0,0.0,0.0,0.0,0.0,0.0,0.0,0.0,0.0,0.0,0.0,0.0,0.0,0.0,0.0,0.0,0.0,0.0,0.0,0.0,0.0,0.0,0.0,0.0,0.0,0.0,0.0,0.0,0.0,0.0,0.0,0.0,0.0,0.0,0.0,0.0,0.0,0.0,0.0,0.0,0.0,0.0,0.0,0.0,0.0,0.0,0.0,0.0,0.0,0.0,0.0,0.0,0.0,0.0,0.0,0.0,0.0,0.0,0.0,0.0,0.0,0.0,0.0,0.0,0.0,0.0,0.0,1.1684,1.2573,1.1689,1.2462,1.3049,1.3049,1.3594,1.4667,1.6354,0.0,0.0,0.0,0.0,0.0,0.0,0.0,0.0,0.0,0.0,0.0,0.0,0.0,0.0,0.0,0.0,0.0,0.0,0.0,0.0,0.0,0.0,0.0,0.0,0.0,0.0,0.0,0.0,0.0,0.0,0.0,0.0,0.0,0.0,0.0,0.0,0.0,0.0,0.0,0.0,0.0,0.0,0.0,0.0,0.0,0.0,0.0,0.0,0.0,0.0,0.0,0.0,0.0,0.0,0.0,0.0,0.0,0.0,0.0,0.0,0.0,0.0,0.0,0.0,0.0,0.0,0.0,0.0,0.0,0.0,0.0,0.0,0.0,0.0,0.0,0.0,0.0,0.0,0.0,0.0,0.0,0.0,0.0,0.0,0.0,0.0,0.0,0.0,0.0,0.0,0.0,0.0,0.0,0.0,0.0,0.0,0.0,0.0,0.0,0.0,0.0,0.0,1.0225,1.1992,1.2995,1.2043,1.2861,1.3519,1.3519,1.3979,1.5008,1.6772,0.0,0.0,0.0,0.0,0.0,0.0,0.0,0.0,0.0,0.0,0.0,0.0,0.0,0.0,0.0,0.0,0.0,0.0,0.0,0.0,0.0,0.0,0.0,0.0,0.0,0.0,0.0,0.0,0.0,0.0,0.0,0.0,0.0,0.0,0.0,0.0,0.0,0.0,0.0,0.0,0.0,0.0,0.0,0.0,0.0,0.0,0.0,0.0,0.0,0.0,0.0,0.0,0.0,0.0,0.0,0.0,0.0,0.0,0.0,0.0,0.0,0.0,0.0,0.0,0.0,0.0,0.0,0.0,0.0,0.0,0.0,0.0,0.0,0.0,0.0,0.0,0.0,0.0,0.0,0.0,0.0,0.0,0.0,0.0,0.0,0.0,0.0,0.0,0.0,0.0,0.0,0.0,0.0,0.0,0.0,0.0,0.0,0.0,0.0,0.0,0.0,0.0,1.0295,1.0315,1.0315,1.0283,1.0283,1.0283,1.0283,1.1751,1.3425,0.0,0.0,0.0,0.0,0.0,0.0,0.0,0.0,0.0,0.0,0.0,0.0,0.0,0.0,0.0,0.0,0.0,0.0,0.0,0.0,0.0,0.0,0.0,0.0,0.0,0.0,0.0,0.0,0.0,0.0,0.0,0.0,0.0,0.0,0.0,0.0,0.0,0.0,0.0,0.0,0.0,0.0,0.0,0.0,0.0,0.0,0.0,0.0,0.0,0.0,0.0,0.0,0.0,0.0,0.0,0.0,0.0,0.0,0.0,0.0,0.0,0.0,0.0,0.0,0.0,0.0,0.0,0.0,0.0,0.0,0.0,0.0,0.0,0.0,0.0,0.0,0.0,0.0,0.0,0.0,0.0,0.0,0.0,0.0,0.0,0.0,0.0,0.0,0.0,0.0,0.0,0.0,0.0,0.0,0.0,0.0,0.0,0.0,0.0,0.0,0.0,0.0,0.0,1.0412,1.0432,1.0473,1.0582,1.0588,1.0588,1.0588,1.1007,1.2036,1.377,0.0,0.0,0.0,0.0,0.0,0.0,0.0,0.0,0.0,0.0,0.0,0.0,0.0,0.0,0.0,0.0,0.0,0.0,0.0,0.0,0.0,0.0,0.0,0.0,0.0,0.0,0.0,0.0,0.0,0.0,0.0,0.0,0.0,0.0,0.0,0.0,0.0,0.0,0.0,0.0,0.0,0.0,0.0,0.0,0.0,0.0,0.0,0.0,0.0,0.0,0.0,0.0,0.0,0.0,0.0,0.0,0.0,0.0,0.0,0.0,0.0,0.0,0.0,0.0,0.0,0.0,0.0,0.0,0.0,0.0,0.0,0.0,0.0,0.0,0.0,0.0,0.0,0.0,0.0,0.0,0.0,0.0,0.0,0.0,0.0,0.0,0.0,0.0,0.0,0.0,0.0,0.0,0.0,0.0,0.0,0.0,0.0,0.0,0.0,0.0,0.0,0.0,1.0649,1.0677,1.0731,1.088,1.0894,1.0894,1.0894,1.0894,1.1627,1.3378,0.0,0.0,0.0,0.0,0.0,0.0,0.0,0.0,0.0,0.0,0.0,0.0,0.0,0.0,0.0,0.0,0.0,0.0,0.0,0.0,0.0,0.0,0.0,0.0,0.0,0.0,0.0,0.0,0.0,0.0,0.0,0.0,0.0,0.0,0.0,0.0,0.0,0.0,0.0,0.0,0.0,0.0,0.0,0.0,0.0,0.0,0.0,0.0,0.0,0.0,0.0,0.0,0.0,0.0,0.0,0.0,0.0,0.0,0.0,0.0,0.0,0.0,0.0,0.0,0.0,0.0,0.0,0.0,0.0,0.0,0.0,0.0,0.0,0.0,0.0,0.0,0.0,0.0,0.0,0.0,0.0,0.0,0.0,0.0,0.0,0.0,0.0,0.0,0.0,0.0,0.0,0.0,0.0,0.0,0.0,0.0,0.0,0.0,0.0,0.0,0.0,0.0,1.0901,1.0934,1.0982,1.1186,1.12,1.12,1.12,1.12,1.1875,1.3464,0.0,0.0,0.0,0.0,0.0,0.0,0.0,0.0,0.0,0.0,0.0,0.0,0.0,0.0,0.0,0.0,0.0,0.0,0.0,0.0,0.0,0.0,0.0,0.0,0.0,0.0,0.0,0.0,0.0,0.0,0.0,0.0,0.0,0.0,0.0,0.0,0.0,0.0,0.0,0.0,0.0,0.0,0.0,0.0,0.0,0.0,0.0,0.0,0.0,0.0,0.0,0.0,0.0,0.0,0.0,0.0,0.0,0.0,0.0,0.0,1.718,1.7073,0.0,0.0,0.0,0.0,0.0,0.0,0.0,0.0,0.0,0.0,0.0,0.0,0.0,0.0,0.0,0.0,0.0,0.0,0.0,0.0,0.0,0.0,0.0,0.0,0.0,0.0,0.0,0.0,0.0,0.0,0.0,0.0,0.0,0.0,0.0,0.0,0.0,0.0,0.0,0.0,1.1145,1.1152,1.1166,1.1193,1.12,1.12,1.12,1.12,1.1365,1.1744,1.2052,0.0,0.0,0.0,0.0,0.0,0.0,0.0,0.0,0.0,0.0,0.0,0.0,0.0,0.0,0.0,0.0,0.0,0.0,0.0,0.0,0.0,0.0,0.0,0.0,0.0,0.0,0.0,0.0,0.0,0.0,0.0,0.0,0.0,0.0,0.0,0.0,0.0,0.0,0.0,0.0,0.0,0.0,0.0,0.0,0.0,0.0,0.0,0.0,0.0,0.0,0.0,0.0,0.0,0.0,0.0,0.0,0.0,0.0,0.0,1.7582,1.7381,0.0,0.0,0.0,0.0,0.0,0.0,0.0,0.0,0.0,0.0,0.0,0.0,0.0,0.0,0.0,0.0,0.0,0.0,0.0,0.0,0.0,0.0,0.0,0.0,0.0,0.0,0.0,0.0,0.0,0.0,0.0,0.0,0.0,0.0,0.0,0.0,0.0,0.0,0.0,0.0,1.1295,1.1308,1.1336,1.1375,1.1382,1.1382,1.1382,1.1382,1.1382,1.1382,1.2104,0.0,0.0,0.0,0.0,0.0,0.0,0.0,0.0,0.0,0.0,0.0,0.0,0.0,0.0,0.0,0.0,0.0,0.0,0.0,0.0,0.0,0.0,0.0,0.0,0.0,0.0,0.0,0.0,0.0,0.0,0.0,0.0,0.0,0.0,0.0,0.0,0.0,0.0,0.0,0.0,0.0,0.0,0.0,0.0,0.0,0.0,0.0,0.0,0.0,0.0,0.0,0.0,0.0,1.7969,1.8103,1.8103,1.8384,1.849,1.8464,1.7956,1.7769,1.7769,1.7769,0.0,0.0,0.0,0.0,0.0,0.0,0.0,0.0,0.0,0.0,0.0,0.0,0.0,0.0,0.0,0.0,0.0,0.0,0.0,0.0,0.0,0.0,1.4707,1.4775,1.4674,1.4534,1.4356,0.0,0.0,0.0,0.0,0.0,0.0,0.0,0.0,0.0,0.0,0.0,1.1526,1.1504,1.1558,1.1681,1.1694,1.1694,1.1694,1.1694,1.1694,1.1694,1.2914,1.3671,0.0,0.0,0.0,0.0,0.0,0.0,0.0,0.0,0.0,0.0,0.0,0.0,0.0,0.0,0.0,0.0,0.0,0.0,0.0,0.0,0.0,0.0,0.0,0.0,0.0,0.0,0.0,0.0,0.0,0.0,0.0,0.0,1.662,1.67,0.0,0.0,0.0,0.0,0.0,0.0,0.0,0.0,0.0,0.0,0.0,0.0,0.0,1.8076,1.837,1.837,1.837,1.837,1.841,1.8437,1.8437,1.8477,1.849,1.849,1.841,0.0,1.837,1.837,0.0,0.0,0.0,0.0,0.0,0.0,0.0,0.0,0.0,0.0,0.0,0.0,0.0,0.0,0.0,0.0,0.0,0.0,0.0,0.0,0.0,0.0,1.3431,1.3856,1.2807,1.1747,1.1725,1.2673,1.3119,1.1713,1.144,1.1434,0.0,0.0,0.0,0.0,0.0,0.0,1.2009,1.2009,1.2016,1.2036,1.2043,1.2043,1.2043,1.2043,1.2043,1.2043,1.2238,1.2335,1.2335,1.3833,0.0,0.0,0.0,0.0,0.0,0.0,0.0,0.0,0.0,0.0,0.0,0.0,0.0,0.0,0.0,0.0,0.0,0.0,0.0,0.0,0.0,0.0,0.0,0.0,0.0,0.0,0.0,0.0,0.0,1.7113,1.7194,1.7194,1.7341,1.7421,0.0,0.0,0.0,0.0,0.0,0.0,0.0,0.0,0.0,1.829,1.8263,1.8357,1.849,1.8651,1.8731,1.8744,1.9065,1.9225,1.9239,1.9399,1.9466,1.9466,1.9466,1.9466,1.9426,1.8931,1.8838,1.9027,0.0,0.0,0.0,0.0,1.9466,1.9463,1.9583,1.9623,1.9502,1.8655,0.0,0.0,0.0,0.0,0.0,0.0,0.0,1.4373,1.4588,1.3335,1.2097,1.237,1.1944,1.1443,1.1525,1.2116,1.2379,1.1578,1.1484,1.1586,1.1742,1.1823,0.0,0.0,0.0,1.2098,1.2098,1.2098,1.2098,1.2098,1.2098,1.2098,1.2098,1.2098,1.2098,1.2098,1.2098,1.2098,1.2098,1.2764,1.3096,0.0,0.0,0.0,0.0,0.0,0.0,0.0,0.0,0.0,0.0,0.0,0.0,0.0,0.0,0.0,0.0,0.0,0.0,0.0,0.0,0.0,0.0,0.0,0.0,0.0,0.0,0.0,0.0,1.7474,1.7608,1.7608,1.7649,1.7702,0.0,0.0,0.0,0.0,0.0,0.0,1.8477,1.8557,1.8637,1.8746,1.8784,1.8865,1.8931,1.9116,1.9223,1.9236,1.9706,1.9907,1.992,2.0104,2.0197,2.021,2.0277,2.0357,2.0357,1.9557,1.9386,1.9613,1.9826,1.9907,1.9933,2.0117,2.025,2.0269,1.9863,1.9756,1.9541,1.7819,1.7308,1.6994,1.5406,0.0,0.0,0.0,0.0,1.3184,1.3271,1.2335,1.1404,1.1525,1.1653,1.1762,1.1864,1.2013,1.2084,1.1782,1.1816,1.1938,1.2132,1.2159,0.0,1.2207,1.2213,1.2213,1.2213,1.2213,1.2213,1.2213,1.2213,1.2213,1.2213,1.2213,1.2213,1.2213,1.2213,1.2213,1.2213,1.2213,1.2193,1.2159,0.0,0.0,0.0,0.0,0.0,0.0,0.0,0.0,0.0,0.0,0.0,0.0,0.0,0.0,0.0,0.0,0.0,0.0,0.0,0.0,0.0,0.0,0.0,0.0,0.0,0.0,0.0,0.0,0.0,1.7608,1.7809,0.0,0.0,0.0,0.0,1.8464,1.8464,1.8477,1.849,1.8744,1.9038,1.9348,1.9586,1.9867,2.0117,2.013,2.013,2.013,2.017,2.0184,2.0184,2.0197,2.0197,2.0224,2.0535,2.0815,2.1015,2.0384,2.0144,2.0157,2.017,2.0184,2.0184,2.0197,2.0414,2.0464,1.8947,1.8577,1.8517,1.6974,1.6476,1.614,1.4401,1.3883,0.0,0.0,1.1579,1.1585,1.183,1.1832,1.1837,1.203,1.207,1.2077,1.2084,1.2207,1.2268,1.2104,1.2084,1.2139,1.225,0.0,1.2325,1.2461,1.2481,1.2481,1.2481,1.2481,1.2481,1.2481,1.2481,1.2481,1.2481,1.2481,1.2481,1.2481,1.2481,1.2481,1.2481,1.2481,1.2413,1.2284,1.2391,0.0,0.0,0.0,0.0,0.0,0.0,0.0,0.0,0.0,0.0,0.0,0.0,0.0,0.0,0.0,0.0,0.0,0.0,0.0,0.0,0.0,0.0,0.0,0.0,0.0,0.0,0.0,0.0,1.8143,1.8263,0.0,1.833,1.8424,1.8651,1.9053,1.908,1.9225,1.9586,1.9677,1.9783,1.992,2.0027,2.0104,2.0197,2.0584,2.0802,2.0771,2.1176,2.1363,2.1363,2.1363,2.1363,2.1363,2.147,2.1577,2.1657,2.1443,2.1363,2.1363,2.1363,2.1363,2.1203,1.9988,1.9617,1.9487,1.7708,1.7132,1.6969,1.5357,1.4212,1.3322,1.2687,1.2582,1.2576,1.2022,1.186,1.188,1.1952,1.1979,1.202,1.2176,1.2247,1.2237,1.2325,1.2386,1.2413,1.2359,1.2345,1.2366,1.242,1.2427,1.244,1.2494,1.2501,1.2501,1.2501,1.2501,1.2501,1.2501,1.2501,1.2501,1.2501,1.2501,1.2501,1.2501,1.2501,1.2501,1.2501,1.2501,1.2481,1.2427,1.2427,1.24,0.0,0.0,0.0,0.0,0.0,0.0,0.0,0.0,0.0,0.0,0.0,0.0,0.0,0.0,0.0,0.0,0.0,0.0,0.0,0.0,0.0,0.0,0.0,0.0,0.0,1.8156,1.825,1.8464,1.8664,1.8784,1.8784,1.8433,1.8619,1.9597,1.9138,1.8937,1.9307,2.0077,2.0244,1.9645,2.0398,2.0828,2.0828,2.1216,2.1082,2.0457,2.0861,2.0747,2.0188,2.0868,2.1199,2.1267,2.139,2.1429,2.1374,2.0805,2.0556,2.06,2.0982,2.0735,2.0032,1.8834,1.8437,1.8275,1.651,1.5496,1.4754,1.3697,1.2714,1.1911,1.1911,1.1979,1.2111,1.2166,1.2179,1.2186,1.2234,1.2247,1.2275,1.2338,1.2359,1.2386,1.2481,1.2501,1.2501,1.2501,1.2501,1.2501,1.2501,1.2501,1.2501,1.2501,1.2501,1.2501,1.2501,1.2501,1.2501,1.2501,1.2501,1.2501,1.2501,1.2501,1.2501,1.2501,1.2501,1.2501,1.2501,1.2501,1.2501,1.2501,1.2501,1.2501,1.2501,0.0,0.0,0.0,0.0,0.0,0.0,0.0,0.0,0.0,0.0,0.0,0.0,0.0,0.0,0.0,0.0,0.0,0.0,0.0,0.0,0.0,0.0,0.0,1.8504,1.8517,1.8517,1.8531,1.901,1.9341,1.9341,1.8251,1.8221,1.992,1.8508,1.7557,1.7568,1.9738,2.0221,1.8568,2.068,2.1859,2.1925,2.1872,2.0933,1.9155,1.9167,1.8271,1.6703,1.8639,1.9599,1.975,2.0063,2.0214,2.0084,1.8404,1.766,1.7735,1.8906,1.8251,1.6629,1.6697,1.6877,1.6832,1.5326,1.3638,1.2104,1.2104,1.2111,1.2111,1.2111,1.2111,1.2145,1.2257,1.2298,1.2332,1.2467,1.2501,1.2501,1.2501,1.2501,1.2501,1.2501,1.2501,1.2501,1.2501,1.2501,1.2501,1.2501,1.2501,1.2501,1.2501,1.2501,0.0,1.2501,1.2501,1.2501,1.2508,1.2508,1.2508,1.2508,1.2508,1.2508,1.2501,1.2501,1.2501,1.2501,1.2501,1.2501,1.2501,1.2501,1.2501,1.2501,0.0,0.0,0.0,0.0,0.0,0.0,0.0,0.0,0.0,0.0,0.0,0.0,0.0,0.0,0.0,0.0,0.0,0.0,0.0,0.0,0.0,1.8985,1.908,1.8838,1.8985,1.9227,1.9412,1.8635,1.8082,1.8082,1.6633,1.6044,1.687,1.6477,1.6367,1.6723,1.7323,1.8094,1.8977,1.8295,1.8653,2.0098,1.8981,1.8191,1.7801,1.8003,1.7868,1.7417,1.7955,1.8247,1.8274,1.8373,1.8404,1.8368,1.7885,1.6882,1.5847,1.7523,1.7847,1.7247,1.5895,1.4616,1.3429,1.3037,1.2616,1.2268,1.2268,1.2298,1.2379,1.2379,1.2379,1.2386,1.2433,1.244,1.2454,1.2488,1.2501,1.2501,1.2501,1.2501,1.2501,1.2501,1.2501,1.2501,1.2501,1.2501,1.2501,1.2501,1.2501,1.2501,1.2501,1.2501,1.2501,1.2501,1.2501,1.2542,1.2618,1.2664,1.2664,1.2664,1.2664,1.2617,1.2508,1.2501,1.2501,1.2501,1.2501,1.2501,1.2501,1.2501,1.2501,0.0,0.0,0.0,0.0,0.0,0.0,0.0,0.0,0.0,0.0,0.0,0.0,0.0,0.0,0.0,0.0,0.0,0.0,0.0,0.0,0.0,0.0,1.845,1.8326,1.7398,1.8686,1.9519,1.8944,1.8239,1.7533,1.6853,1.5334,1.4822,1.5903,1.5305,1.5056,1.5372,1.6187,1.687,1.7317,1.7051,1.7512,1.87,1.7769,1.6982,1.6312,1.646,1.6131,1.548,1.6314,1.6731,1.6777,1.6777,1.6777,1.6703,1.5892,1.4889,1.4093,0.0,0.0,0.0,0.0,1.3212,1.2281,1.2281,1.2305,1.2379,1.2379,1.2433,1.2501,1.2501,1.2501,1.2501,1.2501,1.2501,1.2501,1.2501,1.2501,1.2501,1.2501,1.2549,1.2596,1.2596,1.2651,1.2691,1.2691,1.2691,0.0,1.2691,1.2644,1.2596,1.2596,1.2651,1.2691,1.2691,1.2691,1.2725,1.282,1.2827,1.2827,1.2827,1.2827,0.0,0.0,0.0,1.2691,1.2691,1.2691,0.0,0.0,0.0,1.2691,1.2691,1.2691,0.0,0.0,1.2522,1.2461,0.0,0.0,0.0,0.0,0.0,0.0,0.0,0.0,0.0,0.0,0.0,0.0,0.0,0.0,0.0,0.0,1.7204,1.6861,1.5296,1.7785,1.9179,1.7584,1.7514,1.7063,1.5626,1.4135,1.395,1.5715,1.4413,1.362,1.379,1.5494,0.0,0.0,0.0,1.7194,1.7397,1.7187,1.6278,1.4642,1.4642,1.3806,1.2388,1.4171,1.5038,1.5157,1.5157,1.5157,1.5012,1.3221,1.2501,1.2642,1.4196,1.3809,1.2332,1.2454,1.2501,1.2501,1.2501,0.0,0.0,1.2501,1.2501,1.2501,1.2501,1.2501,1.2501,1.2501,1.2515,1.2528,1.2528,1.2542,1.2556,1.2556,1.2657,1.272,1.272,1.2861,1.3003,1.3003,1.3003,1.3003,1.3003,1.2847,1.272,1.272,1.2874,1.3003,1.3003,1.3003,1.3009,1.3023,1.3023,0.0,1.3023,1.3023,1.3016,1.3003,1.3003,1.3003,1.3003,1.3003,1.3003,1.3003,1.3003,1.3003,1.3003,1.3003,1.3003,1.2996,1.2678,1.2556,0.0,0.0,0.0,0.0,0.0,0.0,0.0,0.0,0.0,0.0,0.0,0.0,0.0,0.0,0.0,1.571,1.5782,1.5953,1.5599,1.6455,1.6877,1.6154,1.5224,1.4497,1.4204,1.2623,1.1885,1.2492,1.223,1.2144,1.2463,1.2831,1.359,1.4821,1.3763,1.396,1.5584,1.4101,1.3202,1.2943,1.2943,0.0,1.2461,1.2877,1.3045,1.3074,1.3074,1.3074,1.3035,1.2656,1.2501,1.2533,1.2884,1.2762,1.2467,1.2488,1.2501,1.2501,1.2501,1.2501,1.2501,1.2501,1.2501,1.2501,1.2501,1.2501,0.0,1.2501,1.2589,1.2645,1.2645,1.2779,1.2914,1.2914,1.2935,1.2955,1.2955,1.2982,1.3003,1.3003,1.3003,1.3003,1.3003,1.2975,1.2955,1.2955,1.2982,1.3003,1.3003,1.3003,1.3043,1.3159,1.3173,1.3173,1.3173,1.3173,1.3125,1.3009,1.3003,1.3003,1.3003,1.3003,1.3003,1.3003,1.3003,1.3003,1.3003,1.3003,1.3003,1.3003,1.2941,1.2914,0.0,0.0,0.0,0.0,0.0,0.0,0.0,0.0,0.0,0.0,0.0,1.8279,1.7525,0.0,1.5993,1.4339,1.4349,1.4322,1.3553,1.3704,1.4113,1.4666,1.4195,1.3504,1.2757,1.191,1.1518,1.1816,1.1843,1.1938,1.22,1.2213,1.2656,1.3657,1.2802,1.2768,1.3786,1.2884,1.2433,1.2501,1.2501,1.2501,1.2501,1.2501,1.2501,1.2501,1.2501,1.2501,1.2501,1.2501,1.2501,1.2501,1.2501,1.2501,1.2501,1.2501,1.2501,1.2501,1.2501,1.2501,1.2515,1.2589,1.2617,1.263,1.2712,1.2732,1.2732,1.2732,1.2786,1.2847,1.2847,1.2901,1.3003,1.3003,1.3057,1.3105,1.3105,1.3166,1.318,1.318,1.318,1.318,1.318,1.318,1.3193,1.3118,1.3173,1.318,1.318,1.318,1.3248,1.3281,1.3288,1.3288,1.3288,1.3288,1.3254,1.3186,1.318,1.318,1.318,1.318,1.318,1.318,1.318,1.318,1.318,1.318,1.318,1.318,1.318,1.3146,0.0,0.0,0.0,0.0,0.0,0.0,0.0,1.9319,1.9511,1.941,1.8477,1.7491,1.6843,1.5855,1.4599,1.298,1.2933,1.2668,1.1434,1.1382,1.1967,1.3311,1.3445,1.2963,1.1818,1.1708,1.1816,1.2125,1.2145,1.2213,1.2325,1.2332,1.2386,1.2501,1.2501,1.2501,1.2501,1.2501,1.2501,1.2501,1.2501,1.2501,1.2501,1.2501,1.2501,1.2501,1.2501,1.2522,1.2549,1.2549,1.2562,1.2589,1.2589,1.2589,1.2589,1.2556,1.2549,1.2549,1.2583,1.2589,1.261,1.2732,1.2773,1.28,1.2962,1.3003,1.3003,1.3003,1.3023,1.3043,1.3043,1.3064,1.3091,1.3091,1.3173,1.3254,1.3254,1.3315,1.3403,1.3403,1.3403,1.341,1.3437,1.3444,1.3397,1.3282,1.3322,1.3403,1.3403,1.3403,1.3403,1.3403,1.3403,1.3403,1.3403,1.3403,1.3403,1.3403,1.3403,1.3403,1.3403,1.3403,1.3403,1.3403,1.3403,1.3403,1.3403,1.3403,1.3417,1.3444,1.3444,1.3302,1.8357,1.8624,1.881,1.8836,1.9265,1.9666,0.0,1.989,1.968,1.816,1.7932,1.7141,1.4141,1.3681,1.3202,1.1666,1.1552,1.1635,1.1545,1.1658,1.1896,1.2241,1.2129,1.2042,1.203,1.205,1.2118,1.225,1.2264,1.2325,1.2467,1.2481,1.2488,1.2501,1.2501,1.2501,1.2501,1.2501,1.2501,1.2501,1.2501,1.2501,1.2501,1.2501,1.2501,1.2501,1.2501,1.2576,1.2665,1.2665,1.2786,1.2948,1.2948,1.2948,1.2935,1.2752,1.2665,1.2686,1.2861,1.2948,1.2955,1.2969,1.2975,1.2975,1.2996,1.3003,1.3003,1.3003,1.3091,1.3193,1.3193,1.3247,1.3349,1.3349,1.3363,1.3376,1.3376,1.339,1.3403,1.3403,1.3403,1.3444,1.358,1.3558,1.3511,1.3397,1.339,1.3403,1.3403,1.3403,1.3403,1.3403,1.3403,1.3403,1.3403,1.3403,1.3403,1.3403,1.3403,1.3403,1.3403,1.3403,1.3403,1.3403,1.3403,1.3403,1.3403,1.3403,1.3471,1.3558,1.3558,1.3512,1.7278,1.7662,1.8261,1.9193,1.9746,2.0024,2.0024,1.9493,1.8796,1.8128,1.6626,1.503,1.3746,1.2775,1.1998,1.1495,1.1484,1.1606,1.1843,1.1925,1.202,1.2213,1.2135,1.2121,1.2227,1.2234,1.2257,1.2406,1.2413,1.244,1.2501,1.2501,1.2501,1.2501,1.2501,1.2501,1.2501,1.2501,1.2501,1.2501,1.2501,1.2501,1.2508,1.2596,1.2684,1.2805,1.2805,1.2807,1.2868,1.2868,1.2901,1.3003,1.3003,1.3003,1.2996,1.2928,1.2868,1.2874,1.2975,1.3003,1.3016,1.3098,1.3125,1.3139,1.3193,1.3214,1.3214,1.3214,1.3261,1.3308,1.3308,1.3356,1.3424,1.3512,1.3532,1.3553,1.3641,1.3612,1.3612,1.3612,1.3612,1.3632,1.37,1.3707,1.3687,1.3626,1.3612,1.3612,1.3612,1.3612,1.3612,1.3612,1.3612,1.3612,1.3612,1.3612,1.3612,1.3612,1.3612,1.3612,1.3612,1.3612,1.3612,1.3612,1.3612,1.3612,1.3612,1.3612,1.3646,1.3707,1.3707,1.3673,1.671,1.744,1.8443,1.9608,2.0147,2.0195,1.9723,1.8926,1.8012,1.7152,1.5172,1.3502,1.3204,1.215,1.1375,1.1633,1.1714,1.183,1.2125,1.2166,1.2182,1.2332,1.2345,1.2345,1.2345,1.2345,1.2393,1.2494,1.2501,1.2501,1.2501,1.2501,1.2501,1.2501,1.2501,1.2501,1.2501,1.2501,1.2522,1.2562,1.2562,1.2583,1.263,1.2745,1.2854,1.3003,1.3003,1.3023,1.3057,1.3057,1.3084,1.3125,1.3125,1.3125,1.3125,1.3125,1.3098,1.3064,1.3111,1.3125,1.3139,1.32,1.3275,1.3254,1.337,1.3403,1.341,1.3451,1.3464,1.3471,1.3512,1.3519,1.3553,1.3619,1.3646,1.3673,1.3774,1.3795,1.3795,1.3795,1.3795,1.3815,1.3856,1.3862,1.3919,1.3916,1.3923,1.3889,1.3808,1.3795,1.3795,1.3795,1.3795,1.3795,1.3795,1.3795,1.3795,1.3795,1.3795,1.3795,1.3795,1.3795,1.3795,1.3795,1.3795,1.3795,1.3795,1.3795,1.3822,1.3862,1.3862,1.3883,1.7386,1.8716,2.0123,2.0184,2.0441,2.0252,1.8563,1.8448,1.7719,1.4321,1.3705,1.3316,1.1769,1.154,1.1617,1.1766,1.1952,1.2139,1.2257,1.2284,1.2338,1.2481,1.2494,1.2494,1.2494,1.2494,1.2494,1.2501,1.2501,1.2501,1.2501,1.2501,1.2501,1.2501,1.2501,1.2501,1.2501,1.2501,1.2576,1.2686,1.2686,1.28,1.2989,1.2989,1.2996,1.3003,1.3003,1.3077,1.3207,1.3207,1.3254,1.339,1.339,1.339,1.339,1.339,1.3295,1.3227,1.3336,1.339,1.339,1.339,1.3397,1.3397,1.3397,1.3403,1.3431,1.358,1.3578,1.3612,1.3747,1.3781,1.3788,1.3788,1.3788,1.3795,1.3795,1.3795,1.3795,1.3795,1.3795,1.3842,1.4084,1.4105,1.4159,1.4265,1.4285,1.4177,1.3835,1.3795,1.3795,1.3795,1.3795,1.3795,1.3795,1.3795,1.3795,1.3795,1.3795,1.3795,1.3795,1.3795,1.3795,1.3795,1.3795,1.3795,1.3795,1.3795,1.3919,1.4105,1.4105,1.4143,1.428,1.486,1.5752,1.6798,1.736,1.7498,1.6914,1.6092,1.5128,1.4045,1.3056,1.2208,1.1762,1.1809,1.1965,1.2115,1.2182,1.2264,1.2413,1.2433,1.2447,1.2494,1.2501,1.2501,1.2501,1.2501,1.2501,1.2501,1.2501,1.2501,1.2501,1.2501,1.2501,1.2501,1.2603,1.2611,1.2611,1.2759,1.2834,1.2881,1.2881,1.2963,1.3146,1.3146,1.32,1.3254,1.3254,1.3281,1.3322,1.3322,1.3356,1.3403,1.3403,1.3403,1.3403,1.3403,1.3431,1.3464,1.3417,1.3403,1.3417,1.3519,1.3511,1.3566,1.3619,1.3653,1.366,1.3714,1.3727,1.3741,1.3788,1.3795,1.3822,1.3973,1.3994,1.4021,1.4122,1.4143,1.4143,1.4143,1.4143,1.4163,1.4211,1.4224,1.4238,1.4292,1.4299,1.4265,1.4156,1.4143,1.4143,1.4143,1.4143,1.4143,1.4143,1.4143,1.4143,1.4143,1.4143,1.4143,1.4143,1.4143,1.4143,1.4143,1.4143,1.4143,1.4143,1.4143,1.417,1.4224,1.4224,1.4251,1.2828,1.3474,1.4373,1.5448,1.5914,1.5979,1.5391,1.4554,1.3724,1.3247,1.2366,1.1705,1.1884,1.204,1.2213,1.2277,1.2332,1.24,1.2488,1.2501,1.2501,1.2501,1.2501,1.2501,1.2501,1.2501,1.2501,1.2501,1.2501,1.2501,1.2501,1.2556,1.2583,1.2583,1.2732,1.2813,1.2813,1.2948,1.3023,1.3077,1.3132,1.3207,1.3254,1.3254,1.3308,1.3403,1.3403,1.3403,1.3403,1.3403,1.3403,1.3403,1.3458,1.3485,1.3492,1.3539,1.362,1.3639,1.3532,1.3512,1.3573,1.3632,1.366,1.368,1.3768,1.3795,1.3808,1.3905,1.3926,1.3939,1.3994,1.3964,1.4027,1.4129,1.415,1.4183,1.4278,1.4299,1.4299,1.4299,1.4299,1.4299,1.4299,1.4299,1.4299,1.4299,1.4299,1.4299,1.4299,1.4299,1.4299,1.4299,1.4299,1.4299,1.4299,1.4299,1.4299,1.4299,1.4299,1.4299,1.4299,1.4299,1.4299,1.4299,1.4299,1.4299,1.4299,1.4299,1.4299,1.4299,1.4299,1.4299,1.299,1.4281,1.5658,1.58,1.5836,1.5481,1.4019,1.3801,1.3439,1.1915,1.1712,1.1861,1.2084,1.2234,1.2298,1.2298,1.2413,1.2501,1.2501,1.2501,1.2501,1.2501,1.2501,1.2501,1.2501,1.2501,1.2508,1.2515,1.2515,1.2515,1.2515,1.2657,1.2706,1.2706,1.2895,1.3009,1.3009,1.3023,1.3091,1.3227,1.3329,1.3403,1.3403,1.3403,1.3403,1.3403,1.3403,1.3403,1.3403,1.341,1.341,1.3424,1.358,1.3599,1.3612,1.3747,1.3802,1.3788,1.3653,1.3693,1.3802,1.3808,1.3808,1.3808,1.3822,1.3822,1.3856,1.4041,1.4125,1.4159,1.4265,1.4299,1.4299,1.4299,1.4299,1.4299,1.4299,1.4299,1.4299,1.4299,1.4299,1.4299,1.4299,1.4306,1.4312,1.4312,1.4319,1.4319,1.4299,1.4299,1.4299,1.4299,1.4299,1.4299,1.4299,1.4299,1.4299,1.4299,1.4299,1.4299,1.4299,1.4299,1.4299,1.4299,1.4306,1.4312,1.4312,1.4319,1.4326,1.4326,1.4326,1.4326,1.1308,1.1722,1.219,1.2236,1.2399,1.2492,1.2083,1.2201,1.2228,1.1842,1.1986,1.2182,1.2223,1.2352,1.2447,1.2447,1.2481,1.2501,1.2501,1.2501,1.2501,1.2501,1.2501,1.2501,1.2501,1.2501,1.2549,1.2625,1.2632,1.2632,1.2632,1.282,1.2901,1.2901,1.3084,1.3159,1.3159,1.3234,1.3308,1.3342,1.3383,1.3403,1.3403,1.3403,1.3403,1.3403,1.3403,1.3403,1.341,1.3526,1.3531,1.3545,1.3687,1.3741,1.3747,1.3781,1.3869,1.4007,1.3973,1.3905,1.3815,1.3973,1.4014,1.4034,1.415,1.4183,1.419,1.4231,1.4245,1.4251,1.4292,1.4299,1.4299,1.4299,1.4299,1.4299,1.4299,1.4299,1.4299,1.4299,1.4299,1.4299,1.4299,1.4387,1.4455,1.4455,1.4512,1.455,1.4326,1.4299,1.4299,1.4299,1.4299,1.4299,1.4299,1.4299,1.4299,1.4299,1.4299,1.4299,1.4299,1.4299,1.4299,1.4299,1.4407,1.4455,1.4462,1.4525,1.4579,1.4579,1.4579,1.4579,1.0684,1.0799,1.0928,1.1029,1.1219,1.1423,1.1552,1.1671,1.1834,1.2006,1.2169,1.2311,1.2372,1.2447,1.2501,1.2501,1.2501,1.2501,1.2501,1.2501,1.2501,1.2501,1.2501,1.2528,1.2596,1.2603,1.2664,1.282,1.2766,1.272,1.2827,1.2976,1.3098,1.3098,1.3241,1.3275,1.3275,1.3356,1.3403,1.3403,1.3403,1.3403,1.3403,1.3403,1.3403,1.3403,1.3471,1.3498,1.3512,1.3619,1.368,1.3693,1.3885,1.3939,1.3953,1.4021,1.4095,1.417,1.417,1.4116,1.4055,1.4143,1.417,1.419,1.4272,1.4299,1.4299,1.4299,1.4299,1.4299,1.4299,1.4299,1.4299,1.4299,1.4299,1.4319,1.438,1.4394,1.4414,1.4482,1.4496,1.4496,1.4496,1.4557,1.4611,1.4611,1.464,1.4633,1.4471,1.4496,1.4496,1.4496,1.4496,1.4496,1.4496,1.4496,1.4496,1.4496,1.4496,1.4496,1.4496,1.4496,1.4496,1.4496,1.457,1.4611,1.4611,1.4654,1.4694,1.4694,1.4694,1.4694,1.0711,1.0826,1.0975,1.1193,1.1342,1.1491,1.1732,1.1807,1.1945,1.223,1.2305,1.2352,1.2481,1.2501,1.2501,1.2501,1.2501,1.2501,1.2501,1.2501,1.2501,1.2501,1.2522,1.2583,1.2679,1.2706,1.2827,1.3016,1.2868,1.2847,1.3023,1.3166,1.3241,1.3241,1.3336,1.3403,1.3403,1.3403,1.3403,1.3403,1.3403,1.3403,1.3403,1.3424,1.3431,1.3437,1.3593,1.3612,1.3626,1.3768,1.3829,1.3842,1.4041,1.4146,1.4159,1.4251,1.4299,1.4299,1.4299,1.4299,1.4299,1.4299,1.4299,1.4299,1.4299,1.4299,1.4299,1.4299,1.4299,1.4306,1.4326,1.4326,1.4333,1.4353,1.436,1.4394,1.4516,1.4543,1.4584,1.4667,1.4694,1.4694,1.4694,1.4714,1.4721,1.4721,1.4741,1.4755,1.4755,1.4721,1.4694,1.4694,1.4694,1.4694,1.4694,1.4694,1.4694,1.4694,1.4694,1.4694,1.4694,1.4694,1.4694,1.4694,1.4714,1.4721,1.4721,1.4741,1.4755,1.4755,1.4755,1.4755,1.084,1.1016,1.12,1.1314,1.1463,1.1626,1.1753,1.1932,1.2111,1.225,1.2386,1.2474,1.2494,1.2501,1.2501,1.2501,1.2501,1.2501,1.2501,1.2501,1.2501,1.2501,1.2617,1.2659,1.2686,1.2847,1.3023,1.3166,1.3112,1.3146,1.3173,1.3281,1.3363,1.3363,1.339,1.3403,1.3403,1.3403,1.3403,1.3403,1.3403,1.3403,1.3403,1.349,1.3587,1.3558,1.37,1.3761,1.3774,1.3966,1.4034,1.4048,1.4197,1.4258,1.4265,1.4292,1.4299,1.4299,1.4299,1.4299,1.4299,1.4299,1.4299,1.4299,1.4299,1.4299,1.4299,1.4299,1.4299,1.4326,1.4441,1.4475,1.4509,1.4586,1.462,1.4626,1.4647,1.4654,1.466,1.4687,1.4694,1.4694,1.4694,1.4848,1.493,1.493,1.5031,1.5106,1.5106,1.4889,1.4694,1.4694,1.4694,1.4694,1.4694,1.4694,1.4694,1.4694,1.4694,1.4694,1.4694,1.4694,1.4694,1.4694,1.4869,1.493,1.493,1.5045,1.5106,1.5106,1.5106,1.5106,1.0874,1.1056,1.1234,1.1355,1.1558,1.1769,1.1918,1.2067,1.2223,1.2372,1.2454,1.2501,1.2501,1.2501,1.2501,1.2501,1.2501,1.2501,1.2501,1.2501,1.2501,1.2501,1.2637,1.272,1.284,1.3023,1.3173,1.3281,1.3295,1.3295,1.3295,1.3363,1.3403,1.3403,1.3403,1.3403,1.3403,1.3403,1.3403,1.3403,1.3403,1.3444,1.3519,1.3551,1.3626,1.3707,1.3899,1.396,1.3973,1.4129,1.419,1.4197,1.4272,1.4299,1.4299,1.4299,1.4299,1.4299,1.4299,1.4299,1.4299,1.4299,1.4299,1.4299,1.4299,1.4299,1.4319,1.4387,1.4407,1.4441,1.459,1.4586,1.4606,1.4674,1.4801,1.4862,1.4862,1.4916,1.497,1.497,1.497,1.497,1.497,1.5031,1.5079,1.5079,1.514,1.5181,1.5181,1.5059,1.497,1.497,1.497,1.497,1.497,1.497,1.497,1.497,1.497,1.497,1.497,1.497,1.497,1.497,1.5045,1.5079,1.5079,1.5147,1.5181,1.5181,1.5181,1.5181,1.0907,1.1077,1.124,1.1396,1.164,1.1834,1.2064,1.222,1.2332,1.2474,1.2501,1.2501,1.2501,1.2501,1.2501,1.2501,1.2501,1.2501,1.2501,1.2501,1.2515,1.2549,1.2684,1.284,1.303,1.318,1.3268,1.339,1.3403,1.3403,1.3403,1.3403,1.3403,1.3403,1.3403,1.3403,1.3403,1.3403,1.3403,1.3403,1.3437,1.3512,1.3592,1.3653,1.3741,1.3856,1.4055,1.4122,1.4129,1.4251,1.4299,1.4299,1.4299,1.4299,1.4299,1.4299,1.4299,1.4299,1.4299,1.4299,1.4306,1.4333,1.4326,1.4306,1.4333,1.4346,1.4373,1.4523,1.4563,1.4597,1.4746,1.4741,1.4748,1.4782,1.493,1.5064,1.5064,1.5153,1.5181,1.5181,1.5181,1.5181,1.5181,1.5181,1.5181,1.5181,1.5181,1.5181,1.5181,1.5181,1.5181,1.5181,1.5181,1.5181,1.5181,1.5181,1.5181,1.5181,1.5181,1.5181,1.5181,1.5181,1.5181,1.5181,1.5181,1.5181,1.5181,1.5181,1.5181,1.5181,1.5181,1.5181,1.1097,1.1186,1.1268,1.1525,1.1678,1.1834,1.2064,1.222,1.2332,1.2474,1.2501,1.2501,1.2501,1.2501,1.2501,1.2501,1.2501,1.2501,1.2501,1.2501,1.2556,1.2652,1.2847,1.3037,1.318,1.3288,1.3383,1.3397,1.3403,1.3403,1.3403,1.3403,1.3403,1.3403,1.3403,1.3403,1.3403,1.3403,1.3403,1.3403,1.3497,1.3572,1.3599,1.3912,1.4084,1.4061,1.4211,1.4278,1.4278,1.4292,1.4299,1.4299,1.4299,1.4299,1.4299,1.4299,1.4299,1.4299,1.4299,1.4299,1.4319,1.4448,1.4407,1.4326,1.4455,1.4489,1.4523,1.4633,1.4674,1.4708,1.4909,1.495,1.4984,1.5113,1.5153,1.516,1.516,1.5174,1.5181,1.5181,1.5181,1.5181,1.5181,1.5181,1.5181,1.5181,1.5181,1.5181,1.5181,1.5181,1.5181,1.5181,1.5181,1.5181,1.5181,1.5181,1.5181,1.5181,1.5181,1.5181,1.5181,1.5181,1.5181,1.5181,1.5181,1.5181,1.5181,1.5181,1.5181,1.5181,1.5181,1.5181,1.1118,1.12,1.1274,1.1545,1.1796,1.1986,1.2084,1.2281,1.2433,1.2488,1.2501,1.2501,1.2501,1.2501,1.2501,1.2501,1.2501,1.2535,1.2623,1.2637,1.2698,1.2854,1.3037,1.3152,1.3207,1.3308,1.3403,1.3403,1.3403,1.3403,1.3403,1.3403,1.3403,1.3403,1.3403,1.3403,1.3403,1.3403,1.3444,1.3539,1.3558,1.3722,1.3899,1.4021,1.4122,1.4211,1.4272,1.4299,1.4299,1.4299,1.4299,1.4299,1.4299,1.4299,1.4299,1.4299,1.4299,1.4299,1.4299,1.4353,1.4434,1.4496,1.4536,1.4532,1.4586,1.4606,1.4679,1.4835,1.4875,1.4909,1.5059,1.5099,1.5113,1.5167,1.5181,1.5181,1.5181,1.5181,1.5181,1.5181,1.5181,1.5181,1.5181,1.5181,1.5181,1.5181,1.5181,1.5181,1.5181,1.5181,1.5181,1.5181,1.5181,1.5181,1.5181,1.5181,1.5181,1.5181,1.5181,1.5181,1.5181,1.5181,1.5181,1.5181,1.5181,1.5181,1.5181,1.5181,1.5181,1.5181,1.5181,1.5181,1.1118,1.12,1.1274,1.1545,1.1843,1.2098,1.2098,1.2329,1.2501,1.2501,1.2501,1.2501,1.2501,1.2501,1.2501,1.2501,1.2501,1.2556,1.2672,1.2693,1.28,1.3037,1.3152,1.3234,1.3275,1.3336,1.3403,1.3403,1.3403,1.3403,1.3403,1.3403,1.3403,1.3403,1.3403,1.3403,1.3403,1.3444,1.3519,1.3592,1.3715,1.3871,1.4119,1.4122,1.4197,1.4299,1.4299,1.4299,1.4299,1.4299,1.4299,1.4299,1.4299,1.4299,1.4299,1.4299,1.4299,1.4306,1.4346,1.4428,1.4523,1.4618,1.4719,1.4814,1.4862,1.4841,1.4841,1.4991,1.5078,1.5059,1.52,1.5181,1.5181,1.5181,1.5181,1.5181,1.5181,1.5181,1.5181,1.5181,1.5181,1.5181,1.5181,1.5181,1.5181,1.5181,1.5181,1.5181,1.5181,1.5181,1.5181,1.5181,1.5181,1.5181,1.5181,1.5181,1.5181,1.5181,1.5181,1.5181,1.5181,1.5181,1.5181,1.5181,1.5181,1.5181,1.5181,1.5181,1.5181,1.5181,1.5181,1.5181,1.1118,1.12,1.1274,1.1545,1.1843,1.2098,1.2098,1.2329,1.2501,1.2501,1.2501,1.2501,1.2501,1.2501,1.2501,1.2501,1.2501,1.2556,1.2672,1.2693,1.284,1.3173,1.3214,1.3234,1.3383,1.3397,1.3403,1.3403,1.3403,1.3403,1.3403,1.3403,1.3403,1.3403,1.3403,1.3403,1.3403,1.3511,1.3585,1.3592,1.3926,1.4112,1.4119,1.4231,1.4299,1.4299,1.4299,1.4299,1.4299,1.4299,1.4299,1.4299,1.4299,1.4299,1.4299,1.4299,1.4299,1.4319,1.4462,1.4509,1.4563,1.4915,1.5017,1.5044,1.5133,1.5079,1.4997,1.514,1.5181,1.5181,1.5181,1.5181,1.5181,1.5181,1.5181,1.5181,1.5181,1.5181,1.5181,1.5181,1.5181,1.5181,1.5181,1.5181,1.5181,1.5181,1.5181,1.5181,1.5181,1.5181,1.5181,1.5181,1.5181,1.5181,1.5181,1.5181,1.5181,1.5181,1.5181,1.5181,1.5181,1.5181,1.5181,1.5181,1.5181,1.5181,1.5181,1.5181,1.5181,1.5181,1.5181,1.5181,1.1118,1.12,1.1274,1.1545,1.1843,1.2098,1.2098,1.2329,1.2501,1.2501,1.2501,1.2501,1.2501,1.2501,1.2501,1.2501,1.2501,1.2589,1.2854,1.2928,1.2996,1.3295,1.3329,1.3349,1.3397,1.3403,1.3403,1.3403,1.3403,1.3403,1.3403,1.3403,1.3403,1.3403,1.3403,1.3451,1.3553,1.3565,1.3729,1.3933,1.4071,1.4173,1.4231,1.4278,1.4299,1.4299,1.4299,1.4299,1.4299,1.4299,1.4299,1.4299,1.4299,1.4299,1.4299,1.4299,1.4299,1.4319,1.4462,1.4577,1.4699,1.4903,1.5085,1.5126,1.5167,1.5153,1.5173,1.5167,1.5181,1.5181,1.5181,1.5181,1.5181,1.5181,1.5181,1.5181,1.5181,1.5181,1.5181,1.5181,1.5181,1.5181,1.5181,1.5181,1.5181,1.5181,1.5181,1.5181,1.5181,1.5181,1.5181,1.5181,1.5181,1.5181,1.5181,1.5181,1.5181,1.5181,1.5181,1.5181,1.5181,1.5181,1.5181,1.5181,1.5181,1.5181,1.5181,1.5181,1.5181,1.5181,1.5181,1.5181,1.1118,1.12,1.1274,1.1545,1.1843,1.2098,1.2098,1.2329,1.2501,1.2501,1.2501,1.2501,1.2501,1.2501,1.2501,1.2501,1.2501,1.261,1.2955,1.3003,1.3111,1.3363,1.3403,1.3403,1.3403,1.3403,1.3403,1.3403,1.3403,1.3403,1.3403,1.3403,1.3424,1.3485,1.3485,1.3532,1.3585,1.3743,1.3892,1.4119,1.4129,1.4204,1.4299,1.4299,1.4299,1.4299,1.4299,1.4299,0.0,1.4299,1.4299,1.4299,1.4299,1.4299,1.4299,1.4299,1.4333,1.4401,1.455,1.4699,1.4848,1.5004,1.5113,1.5181,1.5181,1.5181,1.5181,1.5181,1.5181,1.5181,1.5181,1.5181,1.5181,1.5181,1.5181,1.5181,1.5181,1.5181,1.5181,1.5181,1.5181,1.5181,1.5181,1.5181,1.5181,1.5181,1.5181,1.5181,1.5181,1.5181,1.5181,1.5181,1.5181,1.5181,1.5181,1.5181,1.5181,1.5181,1.5181,1.5181,1.5181,1.5181,1.5181,1.5181,1.5181,1.5181,1.5181,1.5181,1.5181,1.5181,1.5181,1.5181,0.0,1.12,1.1274,1.1545,1.1843,1.2098,1.2098,1.2329,0.0,1.2501,1.2501,1.2501,1.2501,1.2501,1.2501,1.2501,1.2508,1.2623,1.2962,1.3016,1.3132,1.337,1.3403,1.3403,1.3403,1.3403,1.3403,1.3403,1.3403,1.3403,1.3403,1.341,1.3485,1.3585,1.3605,1.3619,1.3619,1.3933,1.4119,1.4132,1.4231,1.4299,1.4299,1.4299,1.4299,1.4299,1.4299,1.4299,1.4299,1.4299,1.4299,1.4299,1.4299,1.4299,1.4299,1.4299,1.4387,1.4529,1.464,1.4841,1.5037,1.514,1.5181,1.5181,1.5181,1.5181,1.5181,1.5181,1.5181,1.5181,1.5181,1.5181,1.5181,1.5181,1.5181,1.5181,1.5181,1.5181,1.5181,1.5181,1.5181,1.5181,1.5181,1.5181,1.5181,1.5181,1.5181,1.5181,1.5181,1.5181,1.5181,1.5181,1.5181,1.5181,1.5181,1.5181,1.5181,1.5181,1.5181,1.5181,1.5181,1.5181,1.5181,1.5181,1.5181,1.5181,1.5181,1.5181,1.5181,1.5181,1.5181,1.5181,1.1152,0.0,1.1274,1.1545,1.1843,1.2098,0.0,1.2329,1.2501,1.2501,1.2501,1.2501,1.2501,1.2501,1.2501,1.2501,1.2603,1.2745,1.2975,1.3193,1.3322,1.339,1.3403,1.3403,1.3403,1.3403,1.3403,1.3403,1.3403,1.3403,1.3403,1.3512,1.3551,1.3585,1.3851,1.3966,1.3966,1.4078,1.4129,1.4245,1.4285,1.4299,1.4299,1.4299,1.4299,1.4299,1.4299,1.4299,1.4299,1.4299,1.4299,1.4299,1.4299,1.4299,1.4299,1.4299,1.4387,1.4529,1.464,1.4841,1.5037,1.514,1.5181,1.5181,1.5181,1.5181,1.5181,1.5181,1.5181,1.5181,1.5181,1.5181,1.5181,1.5181,1.5181,1.5181,1.5181,1.5181,1.5181,1.5181,1.5181,1.5181,1.5181,1.5181,1.5181,1.5181,1.5181,1.5181,1.5181,1.5181,1.5181,1.5181,1.5181,1.5181,1.5181,1.5181,1.5181,1.5181,1.5181,1.5181,1.5181,1.5181,1.5181,1.5181,1.5181,1.5181,1.5181,1.5181,1.5181,1.5181,1.5181,1.5181,1.1159,1.1247,1.1376,1.1604,1.1891,1.2118,1.2186,1.2338,1.2501,1.2501,1.2501,1.2501,1.2501,1.2501,1.2501,1.2501,1.2591,1.2807,1.3071,1.3254,1.3403,1.3403,1.3403,1.3403,1.3403,1.3403,1.3403,1.3403,1.3403,1.3431,1.3505,1.3545,1.3688,1.3824,1.3987,1.4119,1.4119,1.4143,1.4217,1.4299,1.4299,1.4299,1.4299,1.4299,1.4299,1.4299,1.4299,1.4299,1.4299,1.4299,1.4299,1.4299,1.4299,1.4299,1.4299,1.4299,1.4434,1.4579,1.4667,1.4882,1.5079,1.516,1.5181,1.5181,1.5181,1.5181,1.5181,1.5181,1.5181,1.5181,1.5181,1.5181,1.5181,1.5181,1.5181,1.5181,1.5181,1.5181,1.5181,1.5181,1.5181,1.5181,1.5181,1.5181,1.5181,1.5181,1.5181,1.5181,1.5181,1.5181,1.5181,1.5181,1.5181,1.5181,1.5181,1.5181,1.5181,1.5181,1.5181,1.5181,1.5181,1.5181,1.5181,1.5181,1.5181,1.5181,1.5181,1.5181,1.5181,1.5181,1.5181,1.5181,1.1166,1.1342,1.1518,1.1732,1.1945,1.2139,1.2257,1.24,1.2501,1.2501,1.2501,1.2501,1.2501,1.2501,1.2501,1.2501,1.2651,1.2868,1.3166,1.3315,1.3403,1.3403,1.3403,1.3403,1.3403,1.3403,1.3403,1.3403,1.3424,1.3492,1.3578,1.3632,1.381,1.4105,1.4139,1.4153,1.4153,1.4238,1.4299,1.4299,1.4299,1.4299,1.4299,1.4299,1.4299,1.4299,1.4299,1.4299,1.4299,1.4299,1.4299,1.4299,1.4299,1.4299,1.4299,1.4299,1.4489,1.4701,1.4748,1.497,1.5181,1.5181,1.5181,1.5181,1.5181,1.5181,1.5181,1.5181,1.5181,1.5181,1.5181,1.5181,1.5181,1.5181,1.5181,1.5181,1.5181,1.5181,1.5181,1.5181,1.5181,1.5181,1.5181,1.5181,1.5181,1.5181,1.5181,1.5181,1.5181,1.5181,1.5181,1.5181,1.5181,1.5181,1.5181,1.5181,1.5181,1.5181,1.5181,1.5181,1.5181,1.5181,1.5181,1.5181,1.5181,1.5181,1.5181,1.5181,1.5181,1.5181,1.5181,1.5181,1.1193,1.1457,1.1739,1.1786,1.1945,1.2139,1.2257,1.24,1.2501,1.2501,1.2501,1.2501,1.2501,1.2501,1.2501,1.2501,1.2778,1.3071,1.3322,1.339,1.3403,1.3403,1.3403,1.3403,1.3403,1.3403,1.3403,1.3403,1.3519,1.3565,1.3585,1.3871,1.4064,1.4112,1.4197,1.4265,1.4265,1.4285,1.4299,1.4299,1.4299,1.4299,1.4299,1.4299,1.4299,1.4299,1.4299,1.4299,1.4299,1.4299,1.4299,1.4299,1.4299,1.4299,1.4299,1.4299,1.4489,1.4728,1.5025,1.5147,1.5181,1.5181,1.5181,1.5181,1.5181,1.5181,1.5181,1.5181,1.5181,1.5181,1.5181,1.5181,1.5181,1.5181,1.5181,1.5181,1.5181,1.5181,1.5181,1.5181,1.5181,1.5181,1.5181,1.5181,1.5181,1.5181,1.5181,1.5181,1.5181,1.5181,1.5181,1.5181,1.5181,1.5181,1.5181,1.5181,1.5181,1.5181,1.5181,1.5181,1.5181,1.5181,1.5181,1.5181,1.5181,1.5181,1.5181,1.5181,1.5181,1.5181,1.5181,1.5181,1.1295,1.1552,1.1813,1.1932,1.2074,1.2223,1.2372,1.2454,1.2501,1.2501,1.2501,1.2501,1.2501,1.2501,1.2556,1.2725,1.2975,1.3193,1.337,1.3403,1.3403,1.3403,1.3403,1.3403,1.3403,1.3403,1.3437,1.3519,1.3587,1.3702,1.3858,1.4044,1.4109,1.419,1.4265,1.4299,1.4299,1.4299,1.4299,1.4299,1.4299,1.4299,1.4299,1.4299,1.4299,1.4299,1.4299,1.4299,1.4299,1.4299,1.4299,1.4299,1.4299,1.4299,1.4319,1.4482,1.4579,1.4735,1.5079,1.5181,1.5181,1.5181,1.5181,1.5181,1.5181,1.5181,1.5181,1.5181,1.5181,1.5181,1.5181,1.5181,1.5181,1.5181,1.5181,1.5181,1.5181,1.5181,1.5181,1.5181,1.5181,1.5181,1.5181,1.5181,1.5181,1.5181,1.5181,1.5181,1.5181,1.5181,1.5181,1.5181,1.5181,1.5181,1.5181,1.5181,1.5181,1.5181,1.5181,1.5181,1.5181,1.5181,1.5181,1.5181,1.5181,1.5181,1.5181,1.5181,1.5181,1.5181,1.5181,1.5181,1.1396,1.166,1.1918,1.2111,1.2203,1.2325,1.2467,1.2501,1.2501,1.2501,1.2501,1.2501,1.2501,1.2528,1.2657,1.3003,1.3146,1.3268,1.3376,1.3403,1.3403,1.3403,1.3403,1.3403,1.3403,1.3431,1.3505,1.3578,1.3653,1.3831,1.4105,1.4146,1.4177,1.4299,1.4299,1.4299,1.4299,1.4299,1.4299,1.4299,1.4299,1.4299,1.4299,1.4299,1.4299,1.4299,1.4299,1.4299,1.4299,1.4299,1.4299,1.4299,1.4299,1.4299,1.4333,1.4586,1.4694,1.4735,1.5079,1.5181,1.5181,1.5181,1.5181,1.5181,1.5181,1.5181,1.5087,1.4469,1.4328,1.4469,1.504,1.5181,1.5181,1.5181,1.5181,1.5181,1.5181,1.5181,1.5181,1.5181,1.5181,1.5181,1.5181,1.5181,1.5181,1.5181,1.5181,1.5181,1.5181,1.5181,1.5181,1.5181,1.5181,1.5181,1.5181,1.5181,1.5181,1.5181,1.5181,1.5181,1.5181,1.5181,1.5181,1.5181,1.5181,1.5181,1.5181,1.5181,1.5181,1.5181,1.5181,1.5181,1.1525,1.1816,1.2118,1.2237,1.2284,1.2325,1.2467,1.2501,1.2501,1.2501,1.2501,1.2501,1.2501,1.2617,1.2813,1.3152,1.3207,1.3268,1.3376,1.3403,1.3403,1.3403,1.3403,1.3403,1.3403,1.3532,1.3572,1.3585,1.3885,1.4048,1.4112,1.4204,1.4292,1.4299,1.4299,1.4299,1.4299,1.4299,1.4299,1.4299,1.4299,1.4299,1.4299,1.4299,1.4299,1.4299,1.4299,1.4299,1.4299,1.4299,1.4299,1.4299,1.4299,1.4299,1.4333,1.4586,1.4694,1.4735,1.5079,1.5181,1.5181,1.5181,1.5181,1.5181,1.5181,1.5181,1.4704,1.2334,1.1673,1.2239,1.461,1.5181,1.5181,1.5181,1.5181,1.5181,1.5181,1.5181,1.5181,1.5181,1.5181,1.5181,1.5181,1.5181,1.5181,1.5181,1.5181,1.5181,1.5181,1.5181,1.5181,1.5181,1.5181,1.5181,1.5181,1.5181,1.5181,1.5181,1.5181,1.5181,1.5181,1.5181,1.5181,1.5181,1.5181,1.5181,1.5181,1.5181,1.5181,1.5181,1.5181,1.5181,1.1658,1.1972,1.2254,1.2277,1.2359,1.2433,1.2488,1.2501,1.2501,1.2501,1.2501,1.2528,1.2623,1.2773,1.2982,1.318,1.3254,1.3336,1.339,1.3403,1.3403,1.3403,1.3403,1.3403,1.3403,1.3539,1.3626,1.3714,1.3953,1.4159,1.4211,1.4272,1.4299,1.4299,1.4299,1.4299,1.4299,1.4299,1.4299,1.4299,1.4299,1.4299,1.4299,1.4299,1.4299,1.4299,1.4299,1.4299,1.4299,1.4299,1.4299,1.4299,1.4299,1.4299,1.4333,1.4586,1.4694,1.4735,1.5079,1.5181,1.5181,1.5181,1.5181,1.5181,1.5181,1.4093,1.2622,1.1673,1.0248,0.9629,1.2192,1.2857,1.3234,1.4805,1.5181,1.5181,1.5181,1.5181,1.5181,1.5181,1.5181,1.5181,1.5181,1.5181,1.5181,1.5181,1.5181,1.5181,1.5181,1.5181,1.5181,1.5181,1.5181,1.5181,1.5181,1.5181,1.5181,1.5181,1.5181,1.5181,1.5181,1.5181,1.5181,1.5181,1.5181,1.5181,1.5181,1.5181,1.5181,1.5181,1.5181,1.5181,1.185,1.2094,1.2298,1.2345,1.2427,1.2501,1.2501,1.2501,1.2501,1.2501,1.2542,1.2623,1.2773,1.2929,1.3118,1.322,1.3336,1.3403,1.3403,1.3403,1.3403,1.3403,1.3403,1.3417,1.3464,1.3565,1.3714,1.3862,1.4055,1.419,1.4292,1.4299,1.4299,1.4299,1.4299,1.4299,1.4299,1.4299,1.4299,1.4299,1.4299,1.4299,1.4299,1.4299,1.4299,1.4299,1.4299,1.4299,1.4299,1.4299,1.4299,1.4299,1.4299,1.4299,1.4333,1.4586,1.4694,1.4735,1.5079,1.5181,1.5181,1.5181,1.4657,1.3993,1.3993,1.2239,1.0012,0.9204,0.7738,0.6787,0.8542,1.0201,1.1862,1.3569,1.461,1.5181,1.5181,1.5181,1.5181,1.5181,1.5181,1.5181,1.5181,1.5181,1.5181,1.5181,1.5181,1.5181,1.5181,1.5181,1.5181,1.5181,1.5181,1.5181,1.5181,1.5181,1.5181,1.5181,1.5181,1.5181,1.5181,1.5181,1.5181,1.5181,1.5181,1.5181,1.5181,1.5181,1.5181,1.5181,1.5181,1.5181,1.2023,1.2213,1.2325,1.2467,1.2501,1.2501,1.2501,1.2501,1.2501,1.2501,1.2623,1.2779,1.2975,1.3118,1.322,1.3376,1.3403,1.3403,1.3403,1.3403,1.3403,1.3403,1.3403,1.3464,1.3572,1.3714,1.3905,1.4105,1.4211,1.4299,1.4299,1.4299,1.4299,1.4299,1.4299,1.4299,1.4299,1.4299,1.4299,1.4299,1.4299,1.4299,1.4299,1.4299,1.4299,1.4299,1.4299,1.4299,1.4299,1.4299,1.4299,1.4299,1.4299,1.4299,1.4333,1.4586,1.4694,1.4735,1.5079,1.5181,1.5181,1.5181,1.3422,1.1338,1.1338,0.9586,0.7024,0.4514,0.3803,0.3756,0.3756,0.7548,1.1343,1.1338,1.3328,1.5181,1.5181,1.5181,1.5181,1.5181,1.5181,1.5181,1.5181,1.5181,1.5181,1.5181,1.5181,1.5181,1.5181,1.5181,1.5181,1.5181,1.5181,1.5181,1.5181,1.5181,1.5181,1.5181,1.5181,1.5181,1.5181,1.5181,1.5181,1.5181,1.5181,1.5181,1.5181,1.5181,1.5181,1.5181,1.5181,1.5181,1.2207,1.2332,1.2447,1.2488,1.2501,1.2501,1.2501,1.2501,1.2501,1.2501,1.2623,1.2779,1.2975,1.3118,1.322,1.3376,1.3403,1.3403,1.3403,1.3403,1.3403,1.3403,1.3498,1.358,1.3585,1.3858,1.4021,1.4112,1.4211,1.4299,1.4299,1.4299,1.4299,1.4299,1.4299,1.4299,1.4299,1.4299,1.4299,1.4299,1.4299,1.4299,1.4299,1.4299,1.4299,1.4299,1.4299,1.4299,1.4299,1.4299,1.4299,1.4299,1.4299,1.4299,1.4333,1.4586,1.4694,1.4735,1.5079,1.404,1.2522,1.2522,1.0814,0.8731,0.8731,0.6929,0.4751,0.3993,0.2522,0.1144,0.1144,0.3567,0.6506,0.8305,1.0673,1.2522,1.2522,1.3946,1.5181,1.5181,1.5181,1.5181,1.5181,1.5181,1.5181,1.5181,1.5181,1.5181,1.5181,1.5181,1.5181,1.5181,1.5181,1.5181,1.5181,1.5181,1.5181,1.5181,1.5181,1.5181,1.5181,1.5181,1.5181,1.5181,1.5181,1.5181,1.5181,1.5181,1.5181,1.5181,1.5181,1.5181,1.225,1.2393,1.2501,1.2501,1.2501,1.2501,1.2501,1.2501,1.2522,1.2583,1.2712,1.2868,1.3057,1.3207,1.3295,1.3383,1.3403,1.3403,1.3403,1.3403,1.3424,1.3485,1.3531,1.3632,1.3797,1.3966,1.4139,1.42,1.4245,1.4299,1.4299,1.4299,1.4299,1.4299,1.4299,1.4299,1.4299,1.4299,1.4299,1.4299,1.4299,1.4299,1.4299,1.4299,1.4299,1.4299,1.4299,1.4299,1.4299,1.4299,1.4299,1.4299,1.4299,1.4299,1.4326,1.4563,1.464,1.4728,1.5011,1.348,1.139,1.139,0.9015,0.6079,0.6079,0.4326,0.2285,0.2285,0.1191,0.0,0.0,0.1144,0.295,0.5463,0.8022,1.0153,1.1197,1.2622,1.3993,1.4993,1.5181,1.5181,1.5181,1.5181,1.5181,1.5181,1.5181,1.5181,1.5181,1.5181,1.5181,1.5181,1.5181,1.5181,1.5181,1.5181,1.5181,1.5181,1.5181,1.5181,1.5181,1.5181,1.5181,1.5181,1.5181,1.5181,1.5181,1.5181,1.5181,1.5181,1.5181,1.5181,1.2271,1.2406,1.2501,1.2501,1.2501,1.2501,1.2501,1.2515,1.2562,1.2665,1.2854,1.3043,1.3186,1.3295,1.3403,1.3403,1.3403,1.3403,1.3403,1.3403,1.3458,1.3572,1.3599,1.3763,1.4084,1.4125,1.415,1.4292,1.4299,1.4299,1.4299,1.4299,1.4299,1.4299,1.4299,1.4299,1.4299,1.4299,1.4299,1.4299,1.4299,1.4299,1.4299,1.4299,1.4299,1.4299,1.4299,1.4299,1.4299,1.4299,1.4299,1.4299,1.4299,1.4299,1.4319,1.4462,1.4566,1.4714,1.4916,1.3273,1.1055,1.1055,0.7595,0.3472,0.3472,0.1858,0.0,0.0,0.0,0.0,0.0,0.0,0.0572,0.2902,0.5415,0.7974,1.0484,1.1244,1.2145,1.4704,1.5181,1.5181,1.5181,1.5181,1.5181,1.5181,1.5181,1.5181,1.5181,1.5181,1.5181,1.5181,1.5181,1.5181,1.5181,1.5181,1.5181,1.5181,1.5181,1.5181,1.5181,1.5181,1.5181,1.5181,1.5181,1.5181,1.5181,1.5181,1.5181,1.5181,1.5181,1.5181,1.242,1.2481,1.2501,1.2501,1.2501,1.2501,1.2501,1.2596,1.2652,1.2686,1.2854,1.3043,1.3186,1.3295,1.3403,1.3403,1.3403,1.3403,1.3403,1.3403,1.3458,1.3572,1.3687,1.3865,1.4098,1.4183,1.4265,1.4299,1.4299,1.4299,1.4299,1.4299,1.4299,1.4299,1.4299,1.4299,1.4299,1.4299,1.4299,1.4299,1.4299,1.4299,1.4299,1.4299,1.4299,1.4299,1.4299,1.4299,1.4299,1.4299,1.4299,1.4299,1.4299,1.4299,1.4319,1.4462,1.4566,1.4714,1.4916,1.2094,0.84,0.84,0.499,0.0811,0.0811,0.0429,0.0,0.0,0.0,0.0,0.0,0.0,0.0143,0.0668,0.276,0.532,0.788,1.0012,1.2145,1.4704,1.5181,1.5181,1.5181,1.5181,1.5181,1.5181,1.5181,1.5181,1.5181,1.5181,1.5181,1.5181,1.5181,1.5181,1.5181,1.5181,1.5181,1.5181,1.5181,1.5181,1.5181,1.5181,1.5181,1.5181,1.5181,1.5181,1.5181,1.5181,1.5181,1.5181,1.5181,1.5181,1.2461,1.2501,1.2501,1.2501,1.2501,1.2501,1.2501,1.2617,1.2713,1.2827,1.2996,1.3146,1.3254,1.3349,1.3403,1.3403,1.3403,1.3403,1.3403,1.3464,1.3566,1.3666,1.3858,1.4014,1.4163,1.4251,1.4299,1.4299,1.4299,1.4299,1.4299,1.4299,1.4299,1.4299,1.4299,1.4299,1.4299,1.4299,1.4299,1.4299,1.4299,1.4299,1.4299,1.4299,1.4299,1.4299,1.4299,1.4299,1.4299,1.4299,1.4299,1.4299,1.4299,1.4299,1.4306,1.438,1.455,1.4518,1.3432,1.0637,0.7406,0.6174,0.3141,0.0,0.0,0.0,0.0,0.0,0.0,0.0,0.0,0.0,0.0,0.0,0.1001,0.2998,0.679,0.8637,1.0673,1.4469,1.5181,1.5181,1.5181,1.5181,1.5181,1.5181,1.5181,1.5181,1.5181,1.5181,1.5181,1.5181,1.5181,1.5181,1.5181,1.5181,1.5181,1.5181,1.5181,1.5181,1.5181,1.5181,1.5181,1.5181,1.5181,1.5181,1.5181,1.5181,1.5181,1.5181,1.5181,1.5181,1.2467,1.2501,1.2501,1.2501,1.2501,1.2501,1.2501,1.2644,1.2807,1.2975,1.3111,1.322,1.337,1.3403,1.3403,1.3403,1.3403,1.3403,1.3403,1.3532,1.3639,1.3781,1.398,1.4129,1.4285,1.4299,1.4299,1.4299,1.4299,1.4299,1.4299,1.4299,1.4299,1.4299,1.4299,1.4299,1.4299,1.4299,1.4299,1.4299,1.4299,1.4299,1.4299,1.4299,1.4299,1.4299,1.4299,1.4299,1.4299,1.4299,1.4299,1.4299,1.4299,1.4299,1.4299,1.4299,1.4468,1.4381,1.2283,0.9786,0.7197,0.5128,0.2427,0.0,0.0,0.0,0.0,0.0,0.0,0.0,0.0,0.0,0.0,0.0,0.0,0.1287,0.5937,0.7308,0.8968,1.3657,1.4899,1.5181,1.5181,1.5181,1.5181,1.5181,1.5181,1.5181,1.5181,1.5181,1.5181,1.5181,1.5181,1.5181,1.5181,1.5181,1.5181,1.5181,1.5181,1.5181,1.5181,1.5181,1.5181,1.5181,1.5181,1.5181,1.5181,1.5181,1.5181,1.5181,1.5181,1.5181,1.2494,1.2501,1.2501,1.2501,1.2501,1.2501,1.2501,1.2725,1.2975,1.2996,1.3111,1.322,1.337,1.3403,1.3403,1.3403,1.3403,1.3403,1.3403,1.3532,1.3639,1.3781,1.398,1.4129,1.4285,1.4299,1.4299,1.4299,1.4299,1.4299,1.4299,1.4299,1.4299,1.4299,1.4299,1.4299,1.4299,1.4299,1.4299,1.4299,1.4299,1.4299,1.4299,1.4299,1.4299,1.4299,1.4299,1.4299,1.4299,1.4299,1.4299,1.4299,1.4299,1.4299,1.4299,1.4299,1.4401,1.4473,1.4276,1.1223,0.7413,0.7147,0.3852,0.0,0.0,0.0,0.0,0.0,0.0,0.0,0.0,0.0,0.0,0.0,0.0,0.0811,0.3661,0.6032,0.8447,1.1338,1.3711,1.5181,1.5181,1.5181,1.5181,1.5181,1.5181,1.5181,1.5181,1.5181,1.5181,1.5181,1.5181,1.5181,1.5181,1.5181,1.5181,1.5181,1.5181,1.5181,1.5181,1.5181,1.5181,1.5181,1.5181,1.5181,1.5181,1.5181,1.5181,1.5181,1.5181,1.5181,1.2501,1.2501,1.2501,1.2501,1.2501,1.2522,1.2571,1.28,1.3023,1.3105,1.3241,1.3322,1.339,1.3403,1.3403,1.3403,1.3403,1.3403,1.3403,1.3558,1.3727,1.3788,1.4055,1.4224,1.4292,1.4299,1.4299,1.4299,1.4299,1.4299,1.4299,1.4299,1.4299,1.4299,1.4299,1.4299,1.4299,1.4299,1.4299,1.4299,1.4299,1.4299,1.4299,1.4299,1.4299,1.4299,1.4299,1.4299,1.4299,1.4299,1.4299,1.4299,1.4299,1.4299,1.4299,1.4299,1.4387,1.4112,1.1395,0.9086,0.6973,0.4238,0.1849,0.0,0.0,0.0,0.0,0.0,0.0,0.0,0.0,0.0,0.0,0.0,0.0,0.0286,0.1429,0.48,0.8779,1.2757,1.3281,1.3522,1.4946,1.5181,1.5181,1.5181,1.5181,1.5181,1.5181,1.5181,1.5181,1.5181,1.5181,1.5181,1.5181,1.5181,1.5181,1.5181,1.5181,1.5181,1.5181,1.5181,1.5181,1.5181,1.5181,1.5181,1.5181,1.5181,1.5181,1.5181,1.5181,1.5181,1.2501,1.2501,1.2501,1.2501,1.2501,1.2542,1.2659,1.2847,1.3043,1.3186,1.3295,1.3403,1.3403,1.3403,1.3403,1.3403,1.3403,1.3417,1.3451,1.3639,1.3815,1.3849,1.4136,1.4299,1.4299,1.4299,1.4299,1.4299,1.4299,1.4299,1.4299,1.4299,1.4299,1.4299,1.4299,1.4299,1.4299,1.4299,1.4299,1.4299,1.4299,1.4299,1.4299,1.4299,1.4299,1.4299,1.4299,1.4299,1.4299,1.4299,1.4299,1.4299,1.4299,1.4299,1.4299,1.4299,1.4367,1.3828,0.9559,0.7755,0.6619,0.2343,0.052,0.0,0.0,0.0,0.0,0.0,0.0,0.0,0.0,0.0,0.0,0.0,0.0,0.0191,0.0811,0.3947,0.816,1.3234,1.2716,1.2192,1.4758,1.5181,1.5181,1.5181,1.5181,1.5181,1.5181,1.5181,1.5181,1.5181,1.5181,1.5181,1.5181,1.5181,1.5181,1.5181,1.5181,1.5181,1.5181,1.5181,1.5181,1.5181,1.5181,1.5181,1.5181,1.5181,1.5181,1.5181,1.5181,1.5181,1.2501,1.2501,1.2501,1.2501,1.2501,1.2542,1.2659,1.2847,1.3043,1.3186,1.3295,1.3403,1.3403,1.3403,1.3403,1.3403,1.3403,1.3451,1.3558,1.37,1.3856,1.4041,1.4204,1.4299,1.4299,1.4299,1.4299,1.4299,1.4299,1.4299,1.4299,1.4299,1.4299,1.4299,1.4299,1.4299,1.4299,1.4299,1.4299,1.4299,1.4299,1.4299,1.4299,1.4299,1.4299,1.4299,1.4299,1.4299,1.4299,1.4299,1.4299,1.4299,1.4299,1.4299,1.4299,1.4299,1.4306,1.3971,1.1518,0.9135,0.6746,0.4388,0.1984,0.0,0.0,0.0,0.0,0.0,0.0,0.0,0.0,0.0,0.0,0.0,0.0,0.0668,0.3092,0.3803,0.551,1.063,1.1485,1.2192,1.4758,1.5181,1.5181,1.5181,1.5181,1.5181,1.5181,1.5181,1.5181,1.5181,1.5181,1.5181,1.5181,1.5181,1.5181,1.5181,1.5181,1.5181,1.5181,1.5181,1.5181,1.5181,1.5181,1.5181,1.5181,1.5181,1.5181,1.5181,1.5181,1.5181,1.2501,1.1521,1.0818,1.2185,1.1482,1.0915,1.2542,1.2962,1.3071,1.3268,1.3363,1.3403,1.3403,1.3403,1.3403,1.3403,1.3403,1.3417,1.3471,1.3646,1.3822,1.3919,1.415,1.4299,1.4299,1.4299,1.4299,1.4299,1.4299,1.4299,1.4299,1.4299,1.4299,1.4299,1.4299,1.4299,1.4299,1.4299,1.4299,1.4299,1.4299,1.4299,1.4299,1.4299,1.4299,1.4299,1.4299,1.4299,1.4299,1.4299,1.4299,1.4299,1.4299,1.4299,1.4122,1.2547,1.1971,1.1438,0.7579,0.5612,0.4485,0.213,0.075,0.0,0.0,0.1144,0.2427,0.2427,0.2427,0.2427,0.2427,0.1239,0.0429,0.2047,0.2427,0.3139,0.57,0.6221,0.7264,1.0725,1.139,1.2192,1.4758,1.5181,1.5181,1.5181,1.5181,1.5181,1.5181,1.5181,1.5181,1.5181,1.5181,1.5181,1.5181,1.5181,1.5181,1.5181,1.5181,1.5181,1.5181,1.5181,1.5181,1.5181,1.5181,1.5181,1.5181,1.5181,1.5181,1.5181,1.5181,1.5181,1.2501,1.1482,1.0585,1.1289,1.0934,1.0693,1.1712,1.2468,1.3084,1.3342,1.3403,1.3403,1.3403,1.3403,1.3403,1.3403,1.3403,1.3417,1.3471,1.3646,1.3815,1.3869,1.4143,1.4299,1.4299,1.4299,1.4299,1.4299,1.4299,1.4299,1.4299,1.4299,1.4299,1.4299,1.4299,1.4299,1.4299,1.4299,1.4299,1.4299,1.4299,1.4299,1.4299,1.4299,1.4299,1.4299,1.4299,1.4299,1.4299,1.4299,1.4299,1.4299,1.4299,1.4299,1.4122,1.2503,1.1388,1.0135,0.6165,0.4279,0.3186,0.0781,0.0,0.0141,0.0994,0.2468,0.3803,0.3803,0.3803,0.3613,0.276,0.1905,0.1905,0.4468,0.5083,0.5557,0.7217,0.7595,0.8353,1.0913,1.139,1.2192,1.4758,1.5181,1.5181,1.5181,1.5181,1.5181,1.5181,1.5181,1.5181,1.5181,1.5181,1.5181,1.5181,1.5181,1.5181,1.5181,1.5181,1.5181,1.5181,1.5181,1.5181,1.5181,1.5181,1.5181,1.5181,1.5181,1.5181,1.5181,1.5181,1.5181,0.0,0.0,0.0,0.992,1.0856,1.1869,1.0177,1.1412,1.3004,1.3342,1.3403,1.3403,1.3403,1.3403,1.3403,1.3403,1.3403,1.3451,1.3558,1.3707,1.3856,1.4091,1.4204,1.4299,1.4299,1.4299,1.4299,1.4299,1.4299,1.4299,1.4299,1.4299,1.4299,1.4299,1.4299,1.4299,1.4299,1.4299,1.4299,1.4299,1.4299,1.4299,1.4299,1.4299,1.4299,1.4299,1.4299,1.4299,1.4299,1.4299,1.4299,1.4299,1.4299,1.4299,1.4299,1.421,1.273,1.0357,0.7862,0.5491,0.3182,0.0774,0.0046,0.0563,0.2952,0.3772,0.3896,0.3803,0.3851,0.3329,0.0858,0.2047,0.4561,0.7122,0.769,0.7738,0.7832,0.7832,0.8542,1.0913,1.148,1.2286,1.4751,1.5181,1.5181,1.5181,1.5181,1.5181,1.5181,1.5181,1.5181,1.5181,1.5181,1.5181,1.5181,1.5181,1.5181,1.5181,1.5181,1.5181,1.5181,1.5181,1.5181,1.5181,1.5181,1.5181,1.5181,1.5181,1.5181,1.5181,1.5181,1.5181,1.2501,0.0,0.0,0.0,0.0,0.0,0.9532,1.0271,1.1195,1.3005,1.3403,1.3403,1.3403,1.3403,1.3403,1.3403,1.3403,1.3417,1.3458,1.3639,1.3815,1.3899,1.4136,1.4299,1.4299,1.4299,1.4299,1.4299,1.4299,1.4299,1.4299,1.4299,1.4299,1.4299,1.4299,1.4299,1.4299,1.4299,1.4299,1.4299,1.4299,1.4299,1.4299,1.4299,1.4299,1.4299,1.4299,1.4299,1.4299,1.4299,1.4299,1.4299,1.4299,1.4299,1.4078,1.2325,1.125,1.0091,0.599,0.4124,0.3197,0.0773,0.1189,0.2393,0.1356,0.3568,0.6022,0.4268,0.513,0.6364,0.57,0.6032,0.7166,0.9728,1.0342,1.0866,1.271,1.3087,1.2757,1.1626,1.2904,1.4375,1.5087,1.5181,1.5181,1.5181,1.5181,1.5181,1.5181,1.5181,1.5181,1.5181,1.5181,1.5181,1.5181,1.5181,1.5181,1.5181,1.5181,1.5181,1.5181,1.5181,1.5181,1.5181,1.5181,1.5181,1.5181,1.5181,1.5181,1.5181,1.5181,1.5181,1.2501,1.1605,1.0275,0.8555,0.0,0.0,0.8366,0.918,1.0462,1.2916,1.3403,1.3403,1.3403,1.3403,1.3403,1.3403,1.3403,1.3403,1.3403,1.3558,1.3734,1.3788,1.4055,1.4231,1.4292,1.4299,1.4299,1.4299,1.4299,1.4299,1.4299,1.4299,1.4299,1.4299,1.4299,1.4299,1.4299,1.4299,1.4299,1.4299,1.4299,1.4299,1.4299,1.4299,1.4299,1.4299,1.4299,1.4299,1.4299,1.4299,1.4299,1.4299,1.4299,1.4299,1.4122,1.273,1.1566,1.018,0.6388,0.5053,0.4523,0.1084,0.1634,0.3327,0.1986,0.3583,0.5808,0.5466,0.6435,0.7832,0.892,0.9204,0.9823,1.2381,1.2999,1.3375,1.4899,1.5181,1.4758,1.3281,1.4187,1.5181,1.5181,1.5181,1.5181,1.5181,1.5181,1.5181,1.5181,1.5181,1.5181,1.5181,1.5181,1.5181,1.5181,1.5181,1.5181,1.5181,1.5181,1.5181,1.5181,1.5181,1.5181,1.5181,1.5181,1.5181,1.5181,1.5181,1.5181,1.5181,1.5181,1.5181,1.2501,1.2501,1.156,0.7617,0.7855,0.0,0.7364,0.8088,0.989,1.2793,1.3189,1.3106,1.3355,1.3189,1.3106,1.3355,1.3189,1.3106,1.3355,1.3532,1.3632,1.3761,1.3966,1.4166,1.4265,1.4292,1.4299,1.4299,1.4299,1.4299,1.4299,1.4299,1.4299,1.4299,1.4299,1.4299,1.4299,1.4299,1.4299,1.4299,1.4299,1.4299,1.4299,1.4299,1.4299,1.4299,1.4299,1.4299,1.4299,1.4299,1.4299,1.4299,1.4299,1.4122,1.3938,1.421,1.2774,1.0407,0.8263,0.7506,0.67,0.1926,0.2209,0.4311,0.3909,0.4142,0.5041,0.7336,0.8004,0.8589,1.1149,1.1815,1.2381,1.4657,1.5181,1.5181,1.5181,1.5181,1.5181,1.5181,1.5181,1.5181,1.5181,1.5181,1.5181,1.5181,1.5181,1.5181,1.5181,1.5181,1.5181,1.5181,1.5181,1.5181,1.5181,1.5181,1.5181,1.5181,1.5181,1.5181,1.5181,1.5181,1.5181,1.5181,1.5181,1.5181,1.5181,1.5181,1.5181,1.5181,1.5181,1.5181,1.2501,1.2501,1.1914,0.9415,0.7855,0.0,0.8852,0.6839,0.6316,1.2208,1.1932,1.1214,1.3065,1.189,1.1261,1.3106,1.1849,1.1303,1.3148,1.3532,1.3599,1.3626,1.3905,1.4125,1.4159,1.4231,1.4299,1.4299,1.4299,1.4299,1.4299,1.4299,1.4299,1.4299,1.4299,1.4299,1.4299,1.4299,1.4299,1.4299,1.4299,1.4299,1.4299,1.4299,1.4299,1.4299,1.4299,1.4299,1.4299,1.4299,1.4299,1.4299,1.4299,1.3091,1.1655,1.3584,1.2774,1.0629,1.018,1.0002,0.9197,0.4427,0.582,0.8615,0.4803,0.6328,0.9521,1.0282,1.0591,1.1244,1.3805,1.4469,1.4563,1.5087,1.5181,1.5181,1.5181,1.5181,1.5181,1.5181,1.5181,1.5181,1.5181,1.5181,1.5181,1.5181,1.5181,1.5181,1.5181,1.5181,1.5181,1.5181,1.5181,1.5181,1.5181,1.5181,1.5181,1.5181,1.5181,1.5181,1.5181,1.5181,1.5181,1.5181,1.5181,1.5181,1.5181,1.5181,1.5181,1.5181,1.5181,1.5181,1.2231,1.2501,1.1992,0.992,0.8633,0.0,0.0,0.8129,0.7576,1.0997,1.084,1.0044,1.0044,0.9124,0.8707,0.9878,1.0044,1.0419,1.1552,1.2749,1.3546,1.3578,1.3763,1.3912,1.4098,1.4143,1.4217,1.4292,1.4299,1.4299,1.4299,1.4299,1.4299,1.4299,1.4299,1.4299,1.4299,1.4299,1.3717,1.2509,1.3717,1.3673,1.2503,1.2503,1.2503,1.2458,1.1211,1.0717,1.0806,1.2015,1.1788,1.0851,1.2015,1.1788,1.0851,1.2059,1.1743,1.0717,1.0717,1.1477,1.1699,0.6923,0.7773,1.0011,0.6431,0.7903,1.0881,1.1105,1.2149,1.3484,1.4832,1.5181,1.5181,1.5181,1.5181,1.5181,1.5181,1.5181,1.5181,1.5181,1.5181,1.5181,1.5181,1.5181,1.5181,1.5181,1.5181,1.5181,1.5181,1.5181,1.5181,1.5181,1.5181,1.5181,1.5181,1.5181,1.5181,1.5181,1.5181,1.5181,1.5181,1.5181,1.5181,1.5181,1.5181,1.5181,1.5181,1.5181,1.5181,1.5181,1.5181,1.5181,1.1953,1.2231,1.1482,0.9804,0.8803,0.8355,0.0,0.0,0.0,0.9169,0.9082,0.8373,0.6954,0.6324,0.6196,0.6641,0.7819,0.8865,0.9308,1.0948,1.2474,1.3447,1.3572,1.3722,1.3966,1.3643,1.3648,1.4241,1.3445,1.3135,1.3584,1.3179,1.2907,1.2907,1.2907,1.2907,1.2907,1.2907,1.1926,1.0046,1.1971,1.1876,1.0002,1.0002,1.0002,0.9913,0.7951,0.7102,0.7235,0.9197,0.8842,0.7324,0.978,1.0135,0.9424,1.0357,1.0402,1.0135,1.1072,1.2686,1.3584,0.9197,0.9108,1.0402,0.893,0.9934,1.1645,1.1795,1.3379,1.4997,1.5113,1.516,1.5181,1.5181,1.5181,1.5181,1.5181,1.5181,1.5181,1.5181,1.5181,1.5181,1.5181,1.5181,1.5181,1.5181,1.5181,1.5181,1.5181,1.5181,1.5181,1.5181,1.5181,1.5181,1.5181,1.5181,1.5181,1.5181,1.5181,1.5181,1.5181,1.5181,1.5181,1.5181,1.5181,1.5181,1.5181,1.5181,1.5181,1.5181,1.5181,1.5181,1.1953,1.1172,0.9687,0.9449,0.6577,0.4345,0.6415,0.0,0.2234,0.6266,0.0,0.4695,0.6369,0.0,0.0,0.6364,0.5205,0.4762,0.6776,0.7282,0.8961,1.296,1.3546,1.3599,1.3632,1.1997,1.1828,1.4108,1.0357,0.8842,1.0984,0.9064,0.7907,0.7907,0.7907,0.7907,0.7907,0.7907,0.777,0.7506,0.777,0.777,0.7506,0.7506,0.7506,0.7506,0.7235,0.7102,0.7102,0.7417,0.7324,0.7324,0.978,0.8129,0.4919,0.9153,0.9331,0.8129,1.2414,1.4078,1.385,1.1161,1.0495,1.1028,1.2907,1.3764,1.4112,1.4138,1.4532,1.5023,1.5037,1.5086,1.5181,1.5181,1.5181,1.5181,1.5181,1.5181,1.5181,1.5181,1.5181,1.5181,1.5181,1.5181,1.5181,1.5181,1.5181,1.5181,1.5181,1.5181,1.5181,1.5181,1.5181,1.5181,1.5181,1.5181,1.5181,1.5181,1.5181,1.5181,1.5181,1.5181,1.5181,1.5181,1.5181,1.5181,1.5181,1.5181,1.5181,1.5181,1.5181,1.5181,1.0153,0.9188,0.7582,0.7582,0.6254,0.5241,0.6279,0.5092,0.3972,0.4644,0.0,0.0,0.0,0.0,0.0,0.0,0.3097,0.3645,0.4625,0.5891,0.7414,0.929,0.9542,1.0146,1.1528,1.0961,1.0933,1.2027,0.8982,0.7544,0.857,0.7636,0.7102,0.7102,0.7102,0.7102,0.7102,0.7102,0.6433,0.5097,0.6436,0.6388,0.5053,0.5053,0.5053,0.5008,0.358,0.3,0.3089,0.4472,0.4248,0.3356,0.7146,0.7372,0.5856,0.7862,0.8842,0.9691,1.3091,1.4299,1.4122,1.3135,1.2774,1.2996,1.3989,1.434,1.4407,1.4489,1.4604,1.4746,1.4969,1.5064,1.5079,1.516,1.5181,1.5181,1.5181,1.5181,1.5181,1.5181,1.5181,1.5181,1.5181,1.5181,1.5181,1.5181,1.5181,1.5181,1.5181,1.5181,1.5181,1.5181,1.5181,1.5181,1.5181,1.5181,1.5181,1.5181,1.5181,1.5181,1.5181,1.5181,1.5181,1.5181,1.5181,1.5181,1.5181,1.5181,1.5181,1.5181,1.5181,1.5181,0.7967,0.703,0.5439,0.5439,0.5002,0.461,0.4689,0.4709,0.4277,0.2767,0.2478,0.0,0.0,0.0,0.0,0.0,0.0,0.2392,0.2468,0.3852,0.5323,0.6533,0.67,0.7402,0.9183,0.8872,0.8835,0.9525,0.6814,0.5436,0.6118,0.5499,0.5142,0.5142,0.5142,0.5142,0.5142,0.5142,0.4295,0.2642,0.4338,0.4248,0.2597,0.2597,0.2597,0.2507,0.0762,0.0,0.0135,0.1882,0.1971,0.1345,0.4785,0.6923,0.8085,0.8085,0.9197,1.1028,1.3445,1.4299,1.4299,1.4299,1.4299,1.4299,1.4299,1.4299,1.4319,1.4428,1.4482,1.4563,1.4787,1.4909,1.4997,1.5099,1.5153,1.5181,1.5181,1.5181,1.5181,1.5181,1.5181,1.5181,1.5181,1.5181,1.5181,1.5181,1.5181,1.5181,1.5181,1.5181,1.5181,1.5181,1.5181,1.5181,1.5181,1.5181,1.5181,1.5181,1.5181,1.5181,1.5181,1.5181,1.5181,1.5181,1.5181,1.5181,1.5181,1.5181,1.5181,1.5181,1.5181,1.5181,0.582,0.4814,0.3202,0.3202,0.1679,0.0207,0.0207,0.0209,0.021,0.0126,0.0126,0.0084,0.0,0.0,0.0,0.0,0.0,0.0,0.0,0.0167,0.1807,0.6202,0.67,0.6773,0.6972,0.4944,0.4605,0.7024,0.2865,0.1241,0.3578,0.1479,0.0224,0.0224,0.0224,0.0224,0.0224,0.0224,0.0179,0.0135,0.0179,0.0179,0.0135,0.0135,0.0135,0.009,0.0045,0.0,0.0,0.009,0.1434,0.349,0.3669,0.6522,1.0584,1.0584,1.0629,1.1028,1.3445,1.4299,1.4299,1.4299,1.4299,1.4299,1.4299,1.4299,1.4299,1.4306,1.4407,1.4516,1.4523,1.4746,1.5017,1.5023,1.5126,1.5181,1.5181,1.5181,1.5181,1.5181,1.5181,1.5181,1.5181,1.5181,1.5181,1.5181,1.5181,1.5181,1.5181,1.5181,1.5181,1.5181,1.5181,1.5181,1.5181,1.5181,1.5181,1.5181,1.5181,1.5181,1.5181,1.5181,1.5181,1.5181,1.5181,1.5181,1.5181,1.5181,1.5181,1.5181,1.5181,1.5181,0.3971,0.2651,0.1027,0.1027,0.0539,0.0,0.0,0.0,0.0,0.0,0.0,0.0,0.0,0.0,0.0,0.0,0.0,0.0,0.0,0.1258,0.2771,0.4319,0.4528,0.4535,0.4593,0.3839,0.4342,0.6775,0.266,0.1056,0.3487,0.13,0.0,0.0,0.0,0.0,0.0,0.0,0.0,0.0,0.0,0.0,0.0,0.0,0.0,0.0,0.0,0.0,0.0,0.0,0.0494,0.1524,0.4695,0.6879,0.853,1.0091,1.1699,1.3224,1.4027,1.4299,1.4299,1.4299,1.4299,1.4299,1.4299,1.4299,1.4299,1.4299,1.4333,1.4394,1.4489,1.459,1.4692,1.4794,1.4936,1.5091,1.5091,1.516,1.5181,1.5181,1.5181,1.5181,1.5181,1.5181,1.5181,1.5181,1.5181,1.5181,1.5181,1.5181,1.5181,1.5181,1.5181,1.5181,1.5181,1.5181,1.5181,1.5181,1.5181,1.5181,1.5181,1.5181,1.5181,1.5181,1.5181,1.5181,1.5181,1.5181,1.5181,1.5181,1.5181,1.5181,0.2014,0.1034,0.0,0.0,0.0,0.0,0.0,0.0,0.0,0.0,0.0,0.0,0.0,0.0,0.0,0.0,0.0,0.0,0.0,0.2436,0.365,0.4486,0.386,0.3065,0.2268,0.2142,0.2754,0.4325,0.1692,0.0658,0.2237,0.0852,0.0,0.0,0.0,0.0,0.0,0.0,0.0,0.0,0.0,0.0,0.0,0.0,0.0,0.0,0.0,0.0,0.0,0.0,0.0494,0.1658,0.5588,0.764,0.8664,1.1072,1.2952,1.4299,1.4299,1.4299,1.4299,1.4299,1.4299,1.4299,1.4299,1.4299,1.4292,1.4231,1.4258,1.4306,1.4346,1.4434,1.4536,1.4586,1.4774,1.4903,1.4957,1.5091,1.512,1.5174,1.5181,1.5181,1.5181,1.5181,1.5181,1.5181,1.5181,1.5181,1.5181,1.5181,1.5181,1.5181,1.5181,1.5181,1.5181,1.5181,1.5181,1.5181,1.5181,1.5181,1.5181,1.5181,1.5208,1.5262,1.5208,1.5208,1.5262,1.5208,1.5181,1.5181,1.5181,1.5181]},{"header":{"parameterUnit":"m.s-1","parameterCategory":1,"la1":30.6,"la2":29.2853,"lo1":-89.7004,"lo2":-87.6739,"dy":0.0162,"dx":0.0183,"nx":112,"ny":82,"refTime":"2023-09-25T12:00:00:Z","depth":0,"parameterNumber":3,"parameterNumberName":"V-component_of_WINDS"},"data":[0.0,0.0,0.0,0.0,0.0,0.0,0.0,0.0,0.0,0.0,0.0,0.0,0.0,0.0,0.0,0.0,0.0,0.0,0.0,0.0,0.0,0.0,0.0,0.0,0.0,0.0,0.0,0.0,0.0,0.0,0.0,0.0,0.0,0.0,0.0,0.0,0.0,0.0,0.0,0.0,0.0,0.0,0.0,0.0,0.0,0.0,0.0,0.0,0.0,0.0,0.0,0.0,0.0,0.0,0.0,0.0,0.0,0.0,0.0,0.0,0.0,0.0,0.0,0.0,0.0,0.0,0.0,0.0,0.0,0.0,0.0,0.0,0.0,0.0,0.0,0.0,0.0,0.0,0.0,0.0,0.0,0.0,0.0,0.0,0.0,0.0,0.0,0.0,0.0,0.0,5.157,5.157,5.2598,5.3304,5.339,5.3469,5.3189,5.2514,0.0,0.0,0.0,0.0,0.0,0.0,0.0,0.0,0.0,0.0,0.0,0.0,0.0,0.0,0.0,0.0,0.0,0.0,0.0,0.0,0.0,0.0,0.0,0.0,0.0,0.0,0.0,0.0,0.0,0.0,0.0,0.0,0.0,0.0,0.0,0.0,0.0,0.0,0.0,0.0,0.0,0.0,0.0,0.0,0.0,0.0,0.0,0.0,0.0,0.0,0.0,0.0,0.0,0.0,0.0,0.0,0.0,0.0,0.0,0.0,0.0,0.0,0.0,0.0,0.0,0.0,0.0,0.0,0.0,0.0,0.0,0.0,0.0,0.0,0.0,0.0,0.0,0.0,0.0,0.0,0.0,0.0,0.0,0.0,0.0,0.0,0.0,0.0,0.0,0.0,0.0,0.0,0.0,0.0,0.0,0.0,0.0,0.0,0.0,0.0,0.0,0.0,0.0,0.0,5.2909,5.2909,5.3404,5.3878,5.4259,5.4621,5.4759,5.4659,0.0,0.0,0.0,0.0,0.0,0.0,0.0,0.0,0.0,0.0,0.0,0.0,0.0,0.0,0.0,0.0,0.0,0.0,0.0,0.0,0.0,0.0,0.0,0.0,0.0,0.0,0.0,0.0,0.0,0.0,0.0,0.0,0.0,0.0,0.0,0.0,0.0,0.0,0.0,0.0,0.0,0.0,0.0,0.0,0.0,0.0,0.0,0.0,0.0,0.0,0.0,0.0,0.0,0.0,0.0,0.0,0.0,0.0,0.0,0.0,0.0,0.0,0.0,0.0,0.0,0.0,0.0,0.0,0.0,0.0,0.0,0.0,0.0,0.0,0.0,0.0,0.0,0.0,0.0,0.0,0.0,0.0,0.0,0.0,0.0,0.0,0.0,0.0,0.0,0.0,0.0,0.0,0.0,0.0,0.0,0.0,0.0,0.0,0.0,0.0,0.0,0.0,0.0,5.2824,5.3204,5.4113,5.4182,5.4256,5.4475,5.4679,5.4671,5.4406,5.3891,0.0,0.0,0.0,0.0,0.0,0.0,0.0,0.0,0.0,0.0,0.0,0.0,0.0,0.0,0.0,0.0,0.0,0.0,0.0,0.0,0.0,0.0,0.0,0.0,0.0,0.0,0.0,0.0,0.0,0.0,0.0,0.0,0.0,0.0,0.0,0.0,0.0,0.0,0.0,0.0,0.0,0.0,0.0,0.0,0.0,0.0,0.0,0.0,0.0,0.0,0.0,0.0,0.0,0.0,0.0,0.0,0.0,0.0,0.0,0.0,0.0,0.0,0.0,0.0,0.0,0.0,0.0,0.0,0.0,0.0,0.0,0.0,0.0,0.0,0.0,0.0,0.0,0.0,0.0,0.0,0.0,0.0,0.0,0.0,0.0,0.0,0.0,0.0,0.0,0.0,0.0,0.0,0.0,0.0,0.0,0.0,0.0,0.0,0.0,0.0,0.0,0.0,5.3738,5.3815,5.5103,5.4954,5.4775,5.4775,5.4686,5.4452,5.3986,5.4196,0.0,0.0,0.0,0.0,0.0,0.0,0.0,0.0,0.0,0.0,0.0,0.0,0.0,0.0,0.0,0.0,0.0,0.0,0.0,0.0,0.0,0.0,0.0,0.0,0.0,0.0,0.0,0.0,0.0,0.0,0.0,0.0,0.0,0.0,0.0,0.0,0.0,0.0,0.0,0.0,0.0,0.0,0.0,0.0,0.0,0.0,0.0,0.0,0.0,0.0,0.0,0.0,0.0,0.0,0.0,0.0,0.0,0.0,0.0,0.0,0.0,0.0,0.0,0.0,0.0,0.0,0.0,0.0,0.0,0.0,0.0,0.0,0.0,0.0,0.0,0.0,0.0,0.0,0.0,0.0,0.0,0.0,0.0,0.0,0.0,0.0,0.0,0.0,0.0,0.0,0.0,0.0,0.0,0.0,0.0,0.0,0.0,0.0,0.0,0.0,0.0,0.0,5.5528,5.5517,5.5632,5.5621,5.5605,5.5605,5.5262,5.4876,5.4468,5.4066,0.0,0.0,0.0,0.0,0.0,0.0,0.0,0.0,0.0,0.0,0.0,0.0,0.0,0.0,0.0,0.0,0.0,0.0,0.0,0.0,0.0,0.0,0.0,0.0,0.0,0.0,0.0,0.0,0.0,0.0,0.0,0.0,0.0,0.0,0.0,0.0,0.0,0.0,0.0,0.0,0.0,0.0,0.0,0.0,0.0,0.0,0.0,0.0,0.0,0.0,0.0,0.0,0.0,0.0,0.0,0.0,0.0,0.0,0.0,0.0,0.0,0.0,0.0,0.0,0.0,0.0,0.0,0.0,0.0,0.0,0.0,0.0,0.0,0.0,0.0,0.0,0.0,0.0,0.0,0.0,0.0,0.0,0.0,0.0,0.0,0.0,0.0,0.0,0.0,0.0,0.0,0.0,0.0,0.0,0.0,0.0,0.0,0.0,0.0,0.0,0.0,0.0,5.6021,5.5988,5.6818,5.6653,5.6521,5.6521,5.6352,5.6082,5.5655,0.0,0.0,0.0,0.0,0.0,0.0,0.0,0.0,0.0,0.0,0.0,0.0,0.0,0.0,0.0,0.0,0.0,0.0,0.0,0.0,0.0,0.0,0.0,0.0,0.0,0.0,0.0,0.0,0.0,0.0,0.0,0.0,0.0,0.0,0.0,0.0,0.0,0.0,0.0,0.0,0.0,0.0,0.0,0.0,0.0,0.0,0.0,0.0,0.0,0.0,0.0,0.0,0.0,0.0,0.0,0.0,0.0,0.0,0.0,0.0,0.0,0.0,0.0,0.0,0.0,0.0,0.0,0.0,0.0,0.0,0.0,0.0,0.0,0.0,0.0,0.0,0.0,0.0,0.0,0.0,0.0,0.0,0.0,0.0,0.0,0.0,0.0,0.0,0.0,0.0,0.0,0.0,0.0,0.0,0.0,0.0,0.0,0.0,0.0,0.0,0.0,0.0,5.7258,5.6874,5.6854,5.7742,5.7565,5.7414,5.7414,5.7264,5.7003,5.6509,0.0,0.0,0.0,0.0,0.0,0.0,0.0,0.0,0.0,0.0,0.0,0.0,0.0,0.0,0.0,0.0,0.0,0.0,0.0,0.0,0.0,0.0,0.0,0.0,0.0,0.0,0.0,0.0,0.0,0.0,0.0,0.0,0.0,0.0,0.0,0.0,0.0,0.0,0.0,0.0,0.0,0.0,0.0,0.0,0.0,0.0,0.0,0.0,0.0,0.0,0.0,0.0,0.0,0.0,0.0,0.0,0.0,0.0,0.0,0.0,0.0,0.0,0.0,0.0,0.0,0.0,0.0,0.0,0.0,0.0,0.0,0.0,0.0,0.0,0.0,0.0,0.0,0.0,0.0,0.0,0.0,0.0,0.0,0.0,0.0,0.0,0.0,0.0,0.0,0.0,0.0,0.0,0.0,0.0,0.0,0.0,0.0,0.0,0.0,0.0,0.0,0.0,5.8198,5.8313,5.8313,5.8319,5.8319,5.8319,5.8319,5.7921,5.7436,0.0,0.0,0.0,0.0,0.0,0.0,0.0,0.0,0.0,0.0,0.0,0.0,0.0,0.0,0.0,0.0,0.0,0.0,0.0,0.0,0.0,0.0,0.0,0.0,0.0,0.0,0.0,0.0,0.0,0.0,0.0,0.0,0.0,0.0,0.0,0.0,0.0,0.0,0.0,0.0,0.0,0.0,0.0,0.0,0.0,0.0,0.0,0.0,0.0,0.0,0.0,0.0,0.0,0.0,0.0,0.0,0.0,0.0,0.0,0.0,0.0,0.0,0.0,0.0,0.0,0.0,0.0,0.0,0.0,0.0,0.0,0.0,0.0,0.0,0.0,0.0,0.0,0.0,0.0,0.0,0.0,0.0,0.0,0.0,0.0,0.0,0.0,0.0,0.0,0.0,0.0,0.0,0.0,0.0,0.0,0.0,0.0,0.0,0.0,0.0,0.0,0.0,0.0,5.905,5.9165,5.9396,6.0012,6.005,6.005,6.005,5.9935,5.9657,5.9201,0.0,0.0,0.0,0.0,0.0,0.0,0.0,0.0,0.0,0.0,0.0,0.0,0.0,0.0,0.0,0.0,0.0,0.0,0.0,0.0,0.0,0.0,0.0,0.0,0.0,0.0,0.0,0.0,0.0,0.0,0.0,0.0,0.0,0.0,0.0,0.0,0.0,0.0,0.0,0.0,0.0,0.0,0.0,0.0,0.0,0.0,0.0,0.0,0.0,0.0,0.0,0.0,0.0,0.0,0.0,0.0,0.0,0.0,0.0,0.0,0.0,0.0,0.0,0.0,0.0,0.0,0.0,0.0,0.0,0.0,0.0,0.0,0.0,0.0,0.0,0.0,0.0,0.0,0.0,0.0,0.0,0.0,0.0,0.0,0.0,0.0,0.0,0.0,0.0,0.0,0.0,0.0,0.0,0.0,0.0,0.0,0.0,0.0,0.0,0.0,0.0,0.0,6.0396,6.055,6.0858,6.1704,6.1781,6.1781,6.1781,6.1781,6.1608,6.1131,0.0,0.0,0.0,0.0,0.0,0.0,0.0,0.0,0.0,0.0,0.0,0.0,0.0,0.0,0.0,0.0,0.0,0.0,0.0,0.0,0.0,0.0,0.0,0.0,0.0,0.0,0.0,0.0,0.0,0.0,0.0,0.0,0.0,0.0,0.0,0.0,0.0,0.0,0.0,0.0,0.0,0.0,0.0,0.0,0.0,0.0,0.0,0.0,0.0,0.0,0.0,0.0,0.0,0.0,0.0,0.0,0.0,0.0,0.0,0.0,0.0,0.0,0.0,0.0,0.0,0.0,0.0,0.0,0.0,0.0,0.0,0.0,0.0,0.0,0.0,0.0,0.0,0.0,0.0,0.0,0.0,0.0,0.0,0.0,0.0,0.0,0.0,0.0,0.0,0.0,0.0,0.0,0.0,0.0,0.0,0.0,0.0,0.0,0.0,0.0,0.0,0.0,6.2018,6.221,6.248,6.3237,6.3314,6.3314,6.3314,6.3314,6.3111,6.2671,0.0,0.0,0.0,0.0,0.0,0.0,0.0,0.0,0.0,0.0,0.0,0.0,0.0,0.0,0.0,0.0,0.0,0.0,0.0,0.0,0.0,0.0,0.0,0.0,0.0,0.0,0.0,0.0,0.0,0.0,0.0,0.0,0.0,0.0,0.0,0.0,0.0,0.0,0.0,0.0,0.0,0.0,0.0,0.0,0.0,0.0,0.0,0.0,0.0,0.0,0.0,0.0,0.0,0.0,0.0,0.0,0.0,0.0,0.0,0.0,4.7122,4.6828,0.0,0.0,0.0,0.0,0.0,0.0,0.0,0.0,0.0,0.0,0.0,0.0,0.0,0.0,0.0,0.0,0.0,0.0,0.0,0.0,0.0,0.0,0.0,0.0,0.0,0.0,0.0,0.0,0.0,0.0,0.0,0.0,0.0,0.0,0.0,0.0,0.0,0.0,0.0,0.0,6.3006,6.3045,6.3121,6.3275,6.3314,6.3314,6.3314,6.3314,6.3245,6.3175,6.2918,0.0,0.0,0.0,0.0,0.0,0.0,0.0,0.0,0.0,0.0,0.0,0.0,0.0,0.0,0.0,0.0,0.0,0.0,0.0,0.0,0.0,0.0,0.0,0.0,0.0,0.0,0.0,0.0,0.0,0.0,0.0,0.0,0.0,0.0,0.0,0.0,0.0,0.0,0.0,0.0,0.0,0.0,0.0,0.0,0.0,0.0,0.0,0.0,0.0,0.0,0.0,0.0,0.0,0.0,0.0,0.0,0.0,0.0,0.0,4.8223,4.7672,0.0,0.0,0.0,0.0,0.0,0.0,0.0,0.0,0.0,0.0,0.0,0.0,0.0,0.0,0.0,0.0,0.0,0.0,0.0,0.0,0.0,0.0,0.0,0.0,0.0,0.0,0.0,0.0,0.0,0.0,0.0,0.0,0.0,0.0,0.0,0.0,0.0,0.0,0.0,0.0,6.3852,6.3929,6.4083,6.4512,6.4551,6.4551,6.4551,6.4551,6.4551,6.4551,6.3942,0.0,0.0,0.0,0.0,0.0,0.0,0.0,0.0,0.0,0.0,0.0,0.0,0.0,0.0,0.0,0.0,0.0,0.0,0.0,0.0,0.0,0.0,0.0,0.0,0.0,0.0,0.0,0.0,0.0,0.0,0.0,0.0,0.0,0.0,0.0,0.0,0.0,0.0,0.0,0.0,0.0,0.0,0.0,0.0,0.0,0.0,0.0,0.0,0.0,0.0,0.0,0.0,0.0,4.9454,4.9821,4.9821,5.0508,5.0802,5.0729,4.9334,4.8737,4.8737,4.8737,0.0,0.0,0.0,0.0,0.0,0.0,0.0,0.0,0.0,0.0,0.0,0.0,0.0,0.0,0.0,0.0,0.0,0.0,0.0,0.0,0.0,0.0,5.7646,5.791,5.8581,5.8978,5.8257,0.0,0.0,0.0,0.0,0.0,0.0,0.0,0.0,0.0,0.0,0.0,6.516,6.5243,6.5551,6.6244,6.632,6.632,6.632,6.632,6.632,6.632,6.5297,6.4664,0.0,0.0,0.0,0.0,0.0,0.0,0.0,0.0,0.0,0.0,0.0,0.0,0.0,0.0,0.0,0.0,0.0,0.0,0.0,0.0,0.0,0.0,0.0,0.0,0.0,0.0,0.0,0.0,0.0,0.0,0.0,0.0,4.5663,4.5883,0.0,0.0,0.0,0.0,0.0,0.0,0.0,0.0,0.0,0.0,0.0,0.0,0.0,4.9747,5.0472,5.0472,5.0472,5.0472,5.0582,5.0655,5.0655,5.0765,5.0802,5.0802,5.0582,0.0,5.0472,5.0472,0.0,0.0,0.0,0.0,0.0,0.0,0.0,0.0,0.0,0.0,0.0,0.0,0.0,0.0,0.0,0.0,0.0,0.0,0.0,0.0,0.0,0.0,6.0119,6.1545,6.2251,6.2618,6.2503,6.16,6.1227,6.2625,6.2874,6.3232,0.0,0.0,0.0,0.0,0.0,0.0,6.7891,6.7891,6.793,6.8045,6.8084,6.8084,6.8084,6.8084,6.8084,6.8084,6.789,6.7793,6.7793,6.6506,0.0,0.0,0.0,0.0,0.0,0.0,0.0,0.0,0.0,0.0,0.0,0.0,0.0,0.0,0.0,0.0,0.0,0.0,0.0,0.0,0.0,0.0,0.0,0.0,0.0,0.0,0.0,0.0,0.0,4.6938,4.7241,4.7241,4.7562,4.7783,0.0,0.0,0.0,0.0,0.0,0.0,0.0,0.0,0.0,5.0251,5.0261,5.0435,5.0802,5.1242,5.1463,5.1499,5.238,5.2821,5.2858,5.3298,5.3482,5.3482,5.3482,5.3482,5.3371,5.2013,5.1756,5.2186,0.0,0.0,0.0,0.0,5.3482,5.3566,5.3896,5.4006,5.4133,5.4761,0.0,0.0,0.0,0.0,0.0,0.0,0.0,6.0303,6.1055,6.158,6.2233,6.3454,6.4251,6.4897,6.5359,6.5371,6.5202,6.4834,6.5128,6.5705,6.659,6.7051,0.0,0.0,0.0,6.8391,6.8391,6.8391,6.8391,6.8391,6.8391,6.8391,6.8391,6.8391,6.8391,6.8391,6.8391,6.8391,6.8391,6.7833,6.7372,0.0,0.0,0.0,0.0,0.0,0.0,0.0,0.0,0.0,0.0,0.0,0.0,0.0,0.0,0.0,0.0,0.0,0.0,0.0,0.0,0.0,0.0,0.0,0.0,0.0,0.0,0.0,0.0,4.7929,4.8296,4.8296,4.8489,4.8636,0.0,0.0,0.0,0.0,0.0,0.0,5.0765,5.0986,5.1206,5.1416,5.161,5.183,5.2013,5.2611,5.2905,5.2941,5.4142,5.4693,5.473,5.5328,5.5585,5.5622,5.5805,5.6025,5.6025,5.3823,5.3261,5.3885,5.4473,5.4693,5.4766,5.5365,5.5732,5.5974,5.6285,5.6571,5.6852,5.7497,5.7735,5.795,5.9039,0.0,0.0,0.0,0.0,6.321,6.3631,6.4018,6.4468,6.5359,6.609,6.6705,6.7282,6.8129,6.8314,6.6821,6.7013,6.7705,6.8584,6.8737,0.0,6.9007,6.9045,6.9045,6.9045,6.9045,6.9045,6.9045,6.9045,6.9045,6.9045,6.9045,6.9045,6.9045,6.9045,6.9045,6.9045,6.9045,6.893,6.8737,0.0,0.0,0.0,0.0,0.0,0.0,0.0,0.0,0.0,0.0,0.0,0.0,0.0,0.0,0.0,0.0,0.0,0.0,0.0,0.0,0.0,0.0,0.0,0.0,0.0,0.0,0.0,0.0,0.0,4.8296,4.9013,0.0,0.0,0.0,0.0,5.0729,5.0729,5.0765,5.0802,5.1499,5.2307,5.3067,5.3812,5.4583,5.5365,5.5401,5.5401,5.5401,5.5511,5.5548,5.5548,5.5585,5.5585,5.5658,5.6418,5.7189,5.774,5.6099,5.5438,5.5475,5.5511,5.5548,5.5548,5.5585,5.6088,5.69,5.8205,5.9143,5.998,6.1205,6.1624,6.1713,6.2222,6.246,0.0,0.0,6.4436,6.4872,6.6455,6.6891,6.7128,6.8007,6.8237,6.8276,6.8314,6.9007,6.9353,6.843,6.8314,6.8622,6.9475,0.0,6.9898,7.0667,7.0783,7.0783,7.0783,7.0783,7.0783,7.0783,7.0783,7.0783,7.0783,7.0783,7.0783,7.0783,7.0783,7.0783,7.0783,7.0783,7.0398,6.9667,6.9609,0.0,0.0,0.0,0.0,0.0,0.0,0.0,0.0,0.0,0.0,0.0,0.0,0.0,0.0,0.0,0.0,0.0,0.0,0.0,0.0,0.0,0.0,0.0,0.0,0.0,0.0,0.0,0.0,4.9848,5.0178,0.0,5.0362,5.0618,5.1242,5.226,5.2333,5.2821,5.3812,5.4153,5.4447,5.473,5.5023,5.5328,5.5585,5.665,5.7152,5.7164,5.818,5.8694,5.8694,5.8694,5.8694,5.8694,5.8988,5.9281,5.9501,5.8914,5.8694,5.8694,5.8694,5.8694,5.8752,5.9094,5.9382,5.9754,6.0509,6.0999,6.145,6.2758,6.4107,6.5295,6.5461,6.5879,6.6437,6.6897,6.7045,6.716,6.7782,6.7936,6.8167,6.9052,6.9237,6.9398,6.9898,7.0244,7.0398,7.009,7.0014,7.0129,7.0437,7.0475,7.0552,7.086,7.0898,7.0898,7.0898,7.0898,7.0898,7.0898,7.0898,7.0898,7.0898,7.0898,7.0898,7.0898,7.0898,7.0898,7.0898,7.0898,7.0783,7.0475,7.0475,7.0321,0.0,0.0,0.0,0.0,0.0,0.0,0.0,0.0,0.0,0.0,0.0,0.0,0.0,0.0,0.0,0.0,0.0,0.0,0.0,0.0,0.0,0.0,0.0,0.0,0.0,4.9968,5.0141,5.0729,5.1279,5.161,5.161,5.2234,5.3038,5.3933,5.4139,5.4706,5.5776,5.6209,5.6481,5.6651,5.7007,5.7226,5.7226,5.829,5.892,5.9098,6.0157,6.0899,6.1333,6.1146,6.1239,6.1546,6.1793,6.1904,6.1964,6.2405,6.2569,6.2472,6.1479,6.1192,6.1425,6.2089,6.2493,6.2826,6.3554,6.393,6.4225,6.5138,6.6371,6.7552,6.7552,6.7936,6.8468,6.8776,6.8853,6.8891,6.9161,6.9237,6.9391,6.9975,7.009,7.0244,7.0783,7.0898,7.0898,7.0898,7.0898,7.0898,7.0898,7.0898,7.0898,7.0898,7.0898,7.0898,7.0898,7.0898,7.0898,7.0898,7.0898,7.0898,7.0898,7.0898,7.0898,7.0898,7.0898,7.0898,7.0898,7.0898,7.0898,7.0898,7.0898,7.0898,7.0898,0.0,0.0,0.0,0.0,0.0,0.0,0.0,0.0,0.0,0.0,0.0,0.0,0.0,0.0,0.0,0.0,0.0,0.0,0.0,0.0,0.0,0.0,0.0,5.0839,5.0875,5.0875,5.0912,5.2317,5.3319,5.3319,5.5144,5.6182,5.5768,5.6129,5.6433,5.6471,5.7528,5.8312,5.8777,5.9848,6.0467,6.0443,6.0504,6.0794,6.1336,6.1373,6.2053,6.3302,6.28,6.2998,6.3851,6.4613,6.4975,6.5056,6.6362,6.6928,6.6625,6.3699,6.2873,6.3443,6.4273,6.5114,6.5973,6.722,6.7981,6.843,6.843,6.8468,6.8468,6.8468,6.8468,6.866,6.9513,6.9744,6.9937,7.0706,7.0898,7.0898,7.0898,7.0898,7.0898,7.0898,7.0898,7.0898,7.0898,7.0898,7.0898,7.0898,7.0898,7.0898,7.0898,7.0898,0.0,7.0898,7.0898,7.0898,7.0937,7.0937,7.0937,7.0937,7.0937,7.0937,7.0898,7.0898,7.0898,7.0898,7.0898,7.0898,7.0898,7.0898,7.0898,7.0898,0.0,0.0,0.0,0.0,0.0,0.0,0.0,0.0,0.0,0.0,0.0,0.0,0.0,0.0,0.0,0.0,0.0,0.0,0.0,0.0,0.0,5.216,5.2333,5.1756,5.216,5.2737,5.3335,5.4603,5.5446,5.5446,5.6265,5.7247,5.8352,5.8546,5.9144,6.0302,6.0661,6.0721,6.0532,6.115,6.1613,6.1856,6.282,6.3703,6.4462,6.5055,6.5538,6.5861,6.5716,6.5798,6.6034,6.6249,6.6362,6.6372,6.6747,6.7088,6.73,6.6116,6.5745,6.5946,6.6526,6.7138,6.7704,6.8059,6.8695,6.9353,6.9353,6.9744,7.0206,7.0206,7.0206,7.0244,7.0514,7.0552,7.0629,7.0821,7.0898,7.0898,7.0898,7.0898,7.0898,7.0898,7.0898,7.0898,7.0898,7.0898,7.0898,7.0898,7.0898,7.0898,7.0898,7.0898,7.0898,7.0898,7.0898,7.1129,7.179,7.1822,7.1822,7.1822,7.1822,7.1552,7.0937,7.0898,7.0898,7.0898,7.0898,7.0898,7.0898,7.0898,7.0898,0.0,0.0,0.0,0.0,0.0,0.0,0.0,0.0,0.0,0.0,0.0,0.0,0.0,0.0,0.0,0.0,0.0,0.0,0.0,0.0,0.0,0.0,5.3964,5.4378,5.4148,5.4172,5.4459,5.5116,5.6134,5.7013,5.7585,5.8371,5.9309,6.0402,6.0678,6.1384,6.2673,6.2872,6.3096,6.338,6.3775,6.4096,6.4288,6.5038,6.5813,6.6505,6.6951,6.7514,6.8066,6.7791,6.7891,6.8241,6.8241,6.8241,6.8259,6.8493,6.8758,6.8885,0.0,0.0,0.0,0.0,6.9179,6.943,6.943,6.9783,7.0206,7.0206,7.0514,7.0898,7.0898,7.0898,7.0898,7.0898,7.0898,7.0898,7.0898,7.0898,7.0898,7.0898,7.1168,7.1437,7.1437,7.1745,7.1975,7.1975,7.1975,0.0,7.1975,7.1706,7.1437,7.1437,7.1745,7.1975,7.1975,7.1975,7.2168,7.2706,7.2745,7.2745,7.2745,7.2745,0.0,0.0,0.0,7.1975,7.1975,7.1975,0.0,0.0,0.0,7.1975,7.1975,7.1975,0.0,0.0,7.1014,7.0667,0.0,0.0,0.0,0.0,0.0,0.0,0.0,0.0,0.0,0.0,0.0,0.0,0.0,0.0,0.0,0.0,5.6052,5.6808,5.7209,5.673,5.6398,5.663,5.7509,5.854,5.9748,6.0921,6.1805,6.2306,6.2741,6.3397,6.4359,6.4694,0.0,0.0,0.0,6.7089,6.7118,6.7212,6.7478,6.7972,6.7972,6.8625,6.9808,6.9268,6.9445,7.0179,7.0179,7.0179,7.025,7.0688,7.0898,7.0794,6.9582,6.9421,6.9937,7.0629,7.0898,7.0898,7.0898,0.0,0.0,7.0898,7.0898,7.0898,7.0898,7.0898,7.0898,7.0898,7.0975,7.1052,7.1052,7.1129,7.1206,7.1206,7.1783,7.2367,7.2367,7.2937,7.3507,7.3507,7.3507,7.3507,7.3507,7.286,7.2367,7.2367,7.3014,7.3507,7.3507,7.3507,7.3546,7.3623,7.3623,0.0,7.3623,7.3623,7.3584,7.3507,7.3507,7.3507,7.3507,7.3507,7.3507,7.3507,7.3507,7.3507,7.3507,7.3507,7.3507,7.3469,7.1898,7.1206,0.0,0.0,0.0,0.0,0.0,0.0,0.0,0.0,0.0,0.0,0.0,0.0,0.0,0.0,0.0,5.6529,5.7887,5.8893,5.8988,5.9971,6.0219,5.9,6.0497,6.1718,6.1987,6.2567,6.3546,6.5022,6.5191,6.5922,6.7452,6.7582,6.7553,6.7373,6.7837,6.8235,6.8524,6.8924,6.9539,7.0263,7.0263,0.0,7.0667,7.0553,7.0602,7.0755,7.0755,7.0755,7.0762,7.0871,7.0898,7.0853,7.0591,7.0574,7.0706,7.0821,7.0898,7.0898,7.0898,7.0898,7.0898,7.0898,7.0898,7.0898,7.0898,7.0898,0.0,7.0898,7.1398,7.1944,7.1944,7.2476,7.3007,7.3007,7.3122,7.3238,7.3238,7.3392,7.3507,7.3507,7.3507,7.3507,7.3507,7.3353,7.3238,7.3238,7.3392,7.3507,7.3507,7.3507,7.3738,7.4392,7.4469,7.4469,7.4469,7.4469,7.4199,7.3546,7.3507,7.3507,7.3507,7.3507,7.3507,7.3507,7.3507,7.3507,7.3507,7.3507,7.3507,7.3507,7.3161,7.3007,0.0,0.0,0.0,0.0,0.0,0.0,0.0,0.0,0.0,0.0,0.0,5.4929,5.5584,0.0,5.7545,5.8462,5.9626,6.0676,6.1293,6.2459,6.2689,6.1237,6.1949,6.3023,6.4134,6.4456,6.532,6.7013,6.7167,6.7705,6.8968,6.9045,6.9124,6.9252,6.9495,6.9739,6.9903,7.0155,7.0514,7.0898,7.0898,7.0898,7.0898,7.0898,7.0898,7.0898,7.0898,7.0898,7.0898,7.0898,7.0898,7.0898,7.0898,7.0898,7.0898,7.0898,7.0898,7.0898,7.0898,7.0898,7.0975,7.1398,7.1552,7.1629,7.2091,7.2206,7.2206,7.2206,7.2514,7.286,7.286,7.3168,7.3507,7.3507,7.3815,7.4084,7.4084,7.443,7.4745,7.4745,7.4745,7.4745,7.4745,7.4745,7.4584,7.4161,7.4469,7.4745,7.4745,7.4745,7.4892,7.5322,7.5361,7.5361,7.5361,7.5361,7.5168,7.4784,7.4745,7.4745,7.4745,7.4745,7.4745,7.4745,7.4745,7.4745,7.4745,7.4745,7.4745,7.4745,7.4745,7.4315,0.0,0.0,0.0,0.0,0.0,0.0,0.0,5.3078,5.3881,5.4622,5.5727,5.6658,5.6976,5.8029,5.9243,6.0578,6.1506,6.2439,6.3629,6.4551,6.4763,6.3822,6.3594,6.4252,6.6179,6.6397,6.7013,6.8545,6.866,6.9045,6.9898,6.9937,7.0244,7.0898,7.0898,7.0898,7.0898,7.0898,7.0898,7.0898,7.0898,7.0898,7.0898,7.0898,7.0898,7.0898,7.0898,7.1014,7.1168,7.1168,7.1245,7.1398,7.1398,7.1398,7.1398,7.1206,7.1168,7.1168,7.136,7.1398,7.1514,7.2206,7.2437,7.2591,7.3276,7.3507,7.3507,7.3507,7.3623,7.3738,7.3738,7.3853,7.4007,7.4007,7.4469,7.493,7.493,7.5515,7.6015,7.6015,7.6015,7.6053,7.6207,7.6245,7.5976,7.5084,7.5553,7.6015,7.6015,7.6015,7.6015,7.6015,7.6015,7.6015,7.6015,7.6015,7.6015,7.6015,7.6015,7.6015,7.6015,7.6015,7.6015,7.6015,7.6015,7.6015,7.6015,7.6015,7.6092,7.6245,7.6245,7.5438,5.0435,5.1169,5.1767,5.184,5.2931,5.4032,0.0,5.474,5.548,5.5996,5.6766,5.7866,5.9475,6.0463,6.1449,6.2753,6.3687,6.4545,6.5474,6.6327,6.7038,6.7691,6.7076,6.7012,6.8007,6.8122,6.8507,6.9475,6.9552,6.9898,7.0706,7.0783,7.0821,7.0898,7.0898,7.0898,7.0898,7.0898,7.0898,7.0898,7.0898,7.0898,7.0898,7.0898,7.0898,7.0898,7.0898,7.1321,7.2059,7.2059,7.2514,7.3199,7.3199,7.3199,7.3122,7.2322,7.2059,7.2175,7.2937,7.3199,7.3238,7.3315,7.3353,7.3353,7.3469,7.3507,7.3507,7.3507,7.4007,7.4584,7.4584,7.513,7.5707,7.5707,7.5784,7.5861,7.5861,7.5938,7.6015,7.6015,7.6015,7.6245,7.7015,7.7138,7.6868,7.5976,7.5938,7.6015,7.6015,7.6015,7.6015,7.6015,7.6015,7.6015,7.6015,7.6015,7.6015,7.6015,7.6015,7.6015,7.6015,7.6015,7.6015,7.6015,7.6015,7.6015,7.6015,7.6015,7.6399,7.7138,7.7138,7.663,5.1639,5.2787,5.3699,5.3456,5.4252,5.5108,5.5108,5.5918,5.6897,5.7605,5.8828,6.0142,6.137,6.2098,6.3008,6.4571,6.5128,6.582,6.7167,6.7628,6.8167,6.9045,6.8821,6.8744,6.9122,6.9161,6.9513,7.036,7.0398,7.0552,7.0898,7.0898,7.0898,7.0898,7.0898,7.0898,7.0898,7.0898,7.0898,7.0898,7.0898,7.0898,7.0937,7.1437,7.1937,7.2392,7.2392,7.2629,7.2976,7.2976,7.3168,7.3507,7.3507,7.3507,7.3469,7.3084,7.2976,7.3014,7.3353,7.3507,7.3584,7.4046,7.4199,7.4276,7.4822,7.4938,7.4938,7.4938,7.5207,7.5476,7.5476,7.5745,7.613,7.663,7.6746,7.6861,7.7361,7.7445,7.7445,7.7445,7.7445,7.7561,7.7946,7.7984,7.7869,7.7522,7.7445,7.7445,7.7445,7.7445,7.7445,7.7445,7.7445,7.7445,7.7445,7.7445,7.7445,7.7445,7.7445,7.7445,7.7445,7.7445,7.7445,7.7445,7.7445,7.7445,7.7445,7.7445,7.7638,7.7984,7.7984,7.7792,5.3097,5.4176,5.5121,5.4801,5.5354,5.596,5.6086,5.7184,5.846,5.9328,6.0711,6.2024,6.2966,6.3616,6.4512,6.5974,6.6436,6.709,6.8545,6.8776,6.909,6.9937,7.0014,7.0014,7.0014,7.0014,7.0283,7.086,7.0898,7.0898,7.0898,7.0898,7.0898,7.0898,7.0898,7.0898,7.0898,7.0898,7.1014,7.1245,7.1245,7.136,7.1629,7.2283,7.2899,7.3507,7.3507,7.3623,7.3815,7.3815,7.3969,7.4199,7.4199,7.4199,7.4199,7.4199,7.4046,7.3853,7.4123,7.4199,7.4276,7.4861,7.5046,7.5168,7.5822,7.6015,7.6053,7.6284,7.6361,7.6399,7.663,7.6669,7.6861,7.7484,7.7638,7.7792,7.8369,7.8484,7.8484,7.8484,7.8484,7.86,7.883,7.8869,7.8938,7.9177,7.9215,7.9023,7.8561,7.8484,7.8484,7.8484,7.8484,7.8484,7.8484,7.8484,7.8484,7.8484,7.8484,7.8484,7.8484,7.8484,7.8484,7.8484,7.8484,7.8484,7.8484,7.8484,7.8638,7.8869,7.8869,7.8984,5.4931,5.5235,5.557,5.5548,5.6161,5.6894,5.7344,5.8733,6.018,6.1118,6.1979,6.2983,6.4283,6.5237,6.6096,6.6942,6.7782,6.8622,6.9513,6.9667,6.9975,7.0783,7.086,7.086,7.086,7.086,7.086,7.0898,7.0898,7.0898,7.0898,7.0898,7.0898,7.0898,7.0898,7.0898,7.0898,7.0898,7.1321,7.2175,7.2175,7.2591,7.343,7.343,7.3469,7.3507,7.3507,7.393,7.4661,7.4661,7.5168,7.5938,7.5938,7.5938,7.5938,7.5938,7.5399,7.4776,7.563,7.5938,7.5938,7.5938,7.5976,7.5976,7.5976,7.6015,7.6169,7.7015,7.7253,7.7445,7.8215,7.8407,7.8446,7.8446,7.8446,7.8484,7.8484,7.8484,7.8484,7.8484,7.8484,7.8754,7.9623,7.9738,8.0046,8.09,8.1016,8.04,7.8715,7.8484,7.8484,7.8484,7.8484,7.8484,7.8484,7.8484,7.8484,7.8484,7.8484,7.8484,7.8484,7.8484,7.8484,7.8484,7.8484,7.8484,7.8484,7.8484,7.8938,7.9738,7.9738,8.0208,5.6746,5.7203,5.7652,5.7397,5.8372,5.943,5.9599,6.0716,6.1969,6.2864,6.3994,6.5076,6.6071,6.6974,6.7859,6.8706,6.909,6.9552,7.0398,7.0514,7.0591,7.086,7.0898,7.0898,7.0898,7.0898,7.0898,7.0898,7.0898,7.0898,7.0898,7.0898,7.0898,7.0898,7.1475,7.1752,7.1752,7.236,7.2783,7.3053,7.3053,7.3514,7.4315,7.4315,7.4623,7.5168,7.5168,7.5322,7.5553,7.5553,7.5745,7.6015,7.6015,7.6015,7.6015,7.6015,7.6169,7.6361,7.6092,7.6015,7.6092,7.6669,7.6868,7.6938,7.7484,7.7676,7.7715,7.8023,7.8099,7.8176,7.8446,7.8484,7.8638,7.9246,7.9361,7.9515,8.0092,8.0208,8.0208,8.0208,8.0208,8.0323,8.0592,8.0669,8.0746,8.1054,8.1093,8.09,8.0285,8.0208,8.0208,8.0208,8.0208,8.0208,8.0208,8.0208,8.0208,8.0208,8.0208,8.0208,8.0208,8.0208,8.0208,8.0208,8.0208,8.0208,8.0208,8.0208,8.0362,8.0669,8.0669,8.0823,5.8013,5.8507,5.9017,5.9068,5.9915,6.0827,6.13,6.2267,6.3375,6.4393,6.5523,6.6596,6.7398,6.8282,6.9045,6.9629,6.9937,7.0321,7.0821,7.0898,7.0898,7.0898,7.0898,7.0898,7.0898,7.0898,7.0898,7.0898,7.0898,7.0898,7.0898,7.1206,7.136,7.136,7.2206,7.2668,7.2668,7.3199,7.3623,7.393,7.4238,7.4661,7.5168,7.5168,7.5476,7.6015,7.6015,7.6015,7.6015,7.6015,7.6015,7.6015,7.6322,7.6476,7.6515,7.6784,7.7246,7.7599,7.6746,7.663,7.6976,7.7561,7.7715,7.783,7.833,7.8484,7.8561,7.8861,7.8977,7.9054,7.9361,7.9446,7.9554,8.0131,8.0246,8.0439,8.0977,8.1093,8.1093,8.1093,8.1093,8.1093,8.1093,8.1093,8.1093,8.1093,8.1093,8.1093,8.1093,8.1093,8.1093,8.1093,8.1093,8.1093,8.1093,8.1093,8.1093,8.1093,8.1093,8.1093,8.1093,8.1093,8.1093,8.1093,8.1093,8.1093,8.1093,8.1093,8.1093,8.1093,8.1093,8.1093,5.8897,5.92,5.974,6.055,6.0824,6.1237,6.243,6.3398,6.4434,6.5686,6.6635,6.7481,6.8314,6.9161,6.9744,6.9744,7.0398,7.0898,7.0898,7.0898,7.0898,7.0898,7.0898,7.0898,7.0898,7.0898,7.0937,7.0975,7.0975,7.0975,7.0975,7.1783,7.229,7.229,7.3129,7.3546,7.3546,7.3623,7.4007,7.4776,7.5592,7.6015,7.6015,7.6015,7.6015,7.6015,7.6015,7.6015,7.6015,7.6053,7.6053,7.613,7.7015,7.7369,7.7445,7.8215,7.8523,7.8446,7.7676,7.7907,7.8523,7.8561,7.8561,7.8561,7.8638,7.8638,7.883,7.9631,7.9854,8.0046,8.09,8.1093,8.1093,8.1093,8.1093,8.1093,8.1093,8.1093,8.1093,8.1093,8.1093,8.1093,8.1093,8.1131,8.117,8.117,8.1208,8.1208,8.1093,8.1093,8.1093,8.1093,8.1093,8.1093,8.1093,8.1093,8.1093,8.1093,8.1093,8.1093,8.1093,8.1093,8.1093,8.1093,8.1131,8.117,8.117,8.1208,8.1246,8.1246,8.1246,8.1246,6.0277,6.0834,6.1459,6.1689,6.2692,6.3709,6.4026,6.5236,6.6383,6.6731,6.7975,6.909,6.9321,7.0052,7.0591,7.0591,7.0783,7.0898,7.0898,7.0898,7.0898,7.0898,7.0898,7.0898,7.0898,7.0898,7.1168,7.1828,7.1867,7.1867,7.1867,7.2706,7.3168,7.3168,7.3969,7.4392,7.4392,7.5053,7.5476,7.5668,7.5899,7.6015,7.6015,7.6015,7.6015,7.6015,7.6015,7.6015,7.6053,7.6707,7.6984,7.7061,7.7869,7.8176,7.8215,7.8407,7.8907,7.9438,7.9246,7.8861,7.86,7.9246,7.9477,7.9592,8.0246,8.0439,8.0477,8.0708,8.0785,8.0823,8.1054,8.1093,8.1093,8.1093,8.1093,8.1093,8.1093,8.1093,8.1093,8.1093,8.1093,8.1093,8.1093,8.1593,8.1977,8.1977,8.2562,8.2516,8.1246,8.1093,8.1093,8.1093,8.1093,8.1093,8.1093,8.1093,8.1093,8.1093,8.1093,8.1093,8.1093,8.1093,8.1093,8.1093,8.1708,8.1977,8.2016,8.2639,8.2947,8.2947,8.2947,8.2947,6.0787,6.1441,6.2172,6.2551,6.3628,6.4782,6.5513,6.6404,6.7327,6.809,6.9013,6.9821,7.0167,7.0591,7.0898,7.0898,7.0898,7.0898,7.0898,7.0898,7.0898,7.0898,7.0898,7.1052,7.1437,7.1475,7.1822,7.2706,7.2399,7.2367,7.2745,7.3591,7.4046,7.4046,7.4853,7.5284,7.5284,7.5745,7.6015,7.6015,7.6015,7.6015,7.6015,7.6015,7.6015,7.6015,7.6399,7.6553,7.663,7.7484,7.783,7.7907,7.8746,7.9054,7.9131,7.9515,7.9939,8.0362,8.0362,8.0054,7.9708,8.0208,8.0362,8.0477,8.0939,8.1093,8.1093,8.1093,8.1093,8.1093,8.1093,8.1093,8.1093,8.1093,8.1093,8.1208,8.1554,8.1631,8.1747,8.2131,8.2208,8.2208,8.2208,8.2554,8.2862,8.2862,8.3293,8.3255,8.2331,8.2208,8.2208,8.2208,8.2208,8.2208,8.2208,8.2208,8.2208,8.2208,8.2208,8.2208,8.2208,8.2208,8.2208,8.2208,8.2631,8.2862,8.2862,8.337,8.3601,8.3601,8.3601,8.3601,6.0941,6.1595,6.2441,6.3275,6.4122,6.5166,6.675,6.7173,6.7744,6.936,6.9783,7.0052,7.0783,7.0898,7.0898,7.0898,7.0898,7.0898,7.0898,7.0898,7.0898,7.0898,7.1014,7.136,7.2136,7.229,7.2745,7.3584,7.2976,7.286,7.3623,7.443,7.4853,7.4853,7.563,7.6015,7.6015,7.6015,7.6015,7.6015,7.6015,7.6015,7.6015,7.613,7.6169,7.6207,7.7092,7.7445,7.7522,7.833,7.8677,7.8754,7.9631,7.9969,8.0046,8.0823,8.1093,8.1093,8.1093,8.1093,8.1093,8.1093,8.1093,8.1093,8.1093,8.1093,8.1093,8.1093,8.1093,8.1131,8.1246,8.1246,8.1285,8.14,8.1439,8.1631,8.2324,8.2477,8.2708,8.3447,8.3601,8.3601,8.3601,8.3717,8.3755,8.3755,8.387,8.3947,8.3947,8.3755,8.3601,8.3601,8.3601,8.3601,8.3601,8.3601,8.3601,8.3601,8.3601,8.3601,8.3601,8.3601,8.3601,8.3601,8.3717,8.3755,8.3755,8.387,8.3947,8.3947,8.3947,8.3947,6.1672,6.2474,6.3314,6.4166,6.5013,6.5936,6.6865,6.7667,6.8468,6.9475,7.0244,7.0744,7.086,7.0898,7.0898,7.0898,7.0898,7.0898,7.0898,7.0898,7.0898,7.0898,7.1552,7.2021,7.2175,7.286,7.3623,7.443,7.4361,7.4315,7.4469,7.5322,7.5784,7.5784,7.5938,7.6015,7.6015,7.6015,7.6015,7.6015,7.6015,7.6015,7.6015,7.6753,7.7053,7.7138,7.7946,7.8292,7.8369,7.9208,7.9592,7.9669,8.0516,8.0862,8.09,8.1054,8.1093,8.1093,8.1093,8.1093,8.1093,8.1093,8.1093,8.1093,8.1093,8.1093,8.1093,8.1093,8.1093,8.1246,8.19,8.2093,8.2285,8.2986,8.3178,8.3216,8.3332,8.337,8.3409,8.3563,8.3601,8.3601,8.3601,8.4209,8.467,8.467,8.5247,8.567,8.567,8.4439,8.3601,8.3601,8.3601,8.3601,8.3601,8.3601,8.3601,8.3601,8.3601,8.3601,8.3601,8.3601,8.3601,8.3601,8.4324,8.467,8.467,8.5324,8.567,8.567,8.567,8.567,6.1864,6.2704,6.3506,6.4397,6.5551,6.6744,6.759,6.8436,6.9321,7.0167,7.0629,7.0898,7.0898,7.0898,7.0898,7.0898,7.0898,7.0898,7.0898,7.0898,7.0898,7.0898,7.1668,7.2367,7.2822,7.3623,7.4469,7.5322,7.5399,7.5399,7.5399,7.5784,7.6015,7.6015,7.6015,7.6015,7.6015,7.6015,7.6015,7.6015,7.6015,7.6245,7.6669,7.7099,7.7522,7.7984,7.8823,7.9169,7.9246,8.0131,8.0477,8.0516,8.0939,8.1093,8.1093,8.1093,8.1093,8.1093,8.1093,8.1093,8.1093,8.1093,8.1093,8.1093,8.1093,8.1093,8.1208,8.1593,8.1708,8.19,8.2747,8.2986,8.3101,8.3486,8.3939,8.4286,8.4286,8.4593,8.4901,8.4901,8.4901,8.4901,8.4901,8.5247,8.5517,8.5517,8.5863,8.6094,8.6094,8.5401,8.4901,8.4901,8.4901,8.4901,8.4901,8.4901,8.4901,8.4901,8.4901,8.4901,8.4901,8.4901,8.4901,8.4901,8.5324,8.5517,8.5517,8.5901,8.6094,8.6094,8.6094,8.6094,6.2056,6.282,6.3545,6.4628,6.6013,6.7327,6.8199,6.9084,6.9937,7.0744,7.0898,7.0898,7.0898,7.0898,7.0898,7.0898,7.0898,7.0898,7.0898,7.0898,7.0975,7.1168,7.1937,7.2822,7.3661,7.4507,7.5245,7.5938,7.6015,7.6015,7.6015,7.6015,7.6015,7.6015,7.6015,7.6015,7.6015,7.6015,7.6015,7.6015,7.6207,7.663,7.733,7.7676,7.8176,7.883,7.9708,8.0092,8.0131,8.0823,8.1093,8.1093,8.1093,8.1093,8.1093,8.1093,8.1093,8.1093,8.1093,8.1093,8.1131,8.1285,8.1246,8.1131,8.1285,8.1362,8.1516,8.2362,8.2593,8.2785,8.3632,8.387,8.3909,8.4101,8.467,8.5162,8.5162,8.5662,8.6094,8.6094,8.6094,8.6094,8.6094,8.6094,8.6094,8.6094,8.6094,8.6094,8.6094,8.6094,8.6094,8.6094,8.6094,8.6094,8.6094,8.6094,8.6094,8.6094,8.6094,8.6094,8.6094,8.6094,8.6094,8.6094,8.6094,8.6094,8.6094,8.6094,8.6094,8.6094,8.6094,8.6094,6.2737,6.3237,6.3698,6.5359,6.6442,6.7327,6.8199,6.9084,6.9937,7.0744,7.0898,7.0898,7.0898,7.0898,7.0898,7.0898,7.0898,7.0898,7.0898,7.0898,7.1206,7.1982,7.286,7.3699,7.4507,7.5361,7.5899,7.5976,7.6015,7.6015,7.6015,7.6015,7.6015,7.6015,7.6015,7.6015,7.6015,7.6015,7.6015,7.6015,7.6791,7.7215,7.7369,7.89,7.9623,7.9746,8.0592,8.0977,8.0977,8.1054,8.1093,8.1093,8.1093,8.1093,8.1093,8.1093,8.1093,8.1093,8.1093,8.1093,8.1208,8.1939,8.1708,8.1246,8.1977,8.217,8.2362,8.3255,8.3486,8.3678,8.4555,8.4786,8.4978,8.5709,8.594,8.5978,8.5978,8.6055,8.6094,8.6094,8.6094,8.6094,8.6094,8.6094,8.6094,8.6094,8.6094,8.6094,8.6094,8.6094,8.6094,8.6094,8.6094,8.6094,8.6094,8.6094,8.6094,8.6094,8.6094,8.6094,8.6094,8.6094,8.6094,8.6094,8.6094,8.6094,8.6094,8.6094,8.6094,8.6094,8.6094,8.6094,6.2852,6.3314,6.3737,6.5474,6.6898,6.7975,6.8314,6.943,7.0514,7.0821,7.0898,7.0898,7.0898,7.0898,7.0898,7.0898,7.0898,7.1091,7.1591,7.1668,7.2014,7.2899,7.3699,7.4353,7.4661,7.5476,7.6015,7.6015,7.6015,7.6015,7.6015,7.6015,7.6015,7.6015,7.6015,7.6015,7.6015,7.6015,7.6245,7.6784,7.7138,7.7823,7.8823,7.9515,8.0092,8.0592,8.0939,8.1093,8.1093,8.1093,8.1093,8.1093,8.1093,8.1093,8.1093,8.1093,8.1093,8.1093,8.1093,8.14,8.1862,8.2208,8.2439,8.2678,8.2986,8.3101,8.3247,8.4132,8.4362,8.4555,8.5401,8.5632,8.5709,8.6017,8.6094,8.6094,8.6094,8.6094,8.6094,8.6094,8.6094,8.6094,8.6094,8.6094,8.6094,8.6094,8.6094,8.6094,8.6094,8.6094,8.6094,8.6094,8.6094,8.6094,8.6094,8.6094,8.6094,8.6094,8.6094,8.6094,8.6094,8.6094,8.6094,8.6094,8.6094,8.6094,8.6094,8.6094,8.6094,8.6094,8.6094,8.6094,6.2852,6.3314,6.3737,6.5474,6.7167,6.8391,6.8391,6.9699,7.0898,7.0898,7.0898,7.0898,7.0898,7.0898,7.0898,7.0898,7.0898,7.1206,7.2098,7.2213,7.2591,7.3699,7.4353,7.4815,7.5046,7.563,7.6015,7.6015,7.6015,7.6015,7.6015,7.6015,7.6015,7.6015,7.6015,7.6015,7.6015,7.6245,7.6669,7.733,7.7784,7.8669,7.9815,8.0092,8.0516,8.1093,8.1093,8.1093,8.1093,8.1093,8.1093,8.1093,8.1093,8.1093,8.1093,8.1093,8.1093,8.1131,8.1362,8.1823,8.2362,8.2901,8.3478,8.4016,8.4286,8.417,8.417,8.5016,8.5239,8.5401,8.5931,8.6094,8.6094,8.6094,8.6094,8.6094,8.6094,8.6094,8.6094,8.6094,8.6094,8.6094,8.6094,8.6094,8.6094,8.6094,8.6094,8.6094,8.6094,8.6094,8.6094,8.6094,8.6094,8.6094,8.6094,8.6094,8.6094,8.6094,8.6094,8.6094,8.6094,8.6094,8.6094,8.6094,8.6094,8.6094,8.6094,8.6094,8.6094,8.6094,8.6094,8.6094,6.2852,6.3314,6.3737,6.5474,6.7167,6.8391,6.8391,6.9699,7.0898,7.0898,7.0898,7.0898,7.0898,7.0898,7.0898,7.0898,7.0898,7.1206,7.2098,7.2213,7.2822,7.4469,7.47,7.5053,7.5899,7.5976,7.6015,7.6015,7.6015,7.6015,7.6015,7.6015,7.6015,7.6015,7.6015,7.6015,7.6015,7.6868,7.7292,7.733,7.8977,7.9777,7.9815,8.0708,8.1093,8.1093,8.1093,8.1093,8.1093,8.1093,8.1093,8.1093,8.1093,8.1093,8.1093,8.1093,8.1093,8.1208,8.2016,8.2285,8.2593,8.4316,8.4893,8.5047,8.5824,8.5517,8.5055,8.5863,8.6094,8.6094,8.6094,8.6094,8.6094,8.6094,8.6094,8.6094,8.6094,8.6094,8.6094,8.6094,8.6094,8.6094,8.6094,8.6094,8.6094,8.6094,8.6094,8.6094,8.6094,8.6094,8.6094,8.6094,8.6094,8.6094,8.6094,8.6094,8.6094,8.6094,8.6094,8.6094,8.6094,8.6094,8.6094,8.6094,8.6094,8.6094,8.6094,8.6094,8.6094,8.6094,8.6094,8.6094,6.2852,6.3314,6.3737,6.5474,6.7167,6.8391,6.8391,6.9699,7.0898,7.0898,7.0898,7.0898,7.0898,7.0898,7.0898,7.0898,7.0898,7.1398,7.2899,7.3084,7.3707,7.5399,7.5592,7.5707,7.5976,7.6015,7.6015,7.6015,7.6015,7.6015,7.6015,7.6015,7.6015,7.6015,7.6015,7.6284,7.6861,7.7176,7.7861,7.9015,7.9546,8.0123,8.0708,8.0977,8.1093,8.1093,8.1093,8.1093,8.1093,8.1093,8.1093,8.1093,8.1093,8.1093,8.1093,8.1093,8.1093,8.1208,8.2016,8.267,8.3362,8.4516,8.5277,8.5786,8.6017,8.594,8.5778,8.6017,8.6094,8.6094,8.6094,8.6094,8.6094,8.6094,8.6094,8.6094,8.6094,8.6094,8.6094,8.6094,8.6094,8.6094,8.6094,8.6094,8.6094,8.6094,8.6094,8.6094,8.6094,8.6094,8.6094,8.6094,8.6094,8.6094,8.6094,8.6094,8.6094,8.6094,8.6094,8.6094,8.6094,8.6094,8.6094,8.6094,8.6094,8.6094,8.6094,8.6094,8.6094,8.6094,8.6094,8.6094,6.2852,6.3314,6.3737,6.5474,6.7167,6.8391,6.8391,6.9699,7.0898,7.0898,7.0898,7.0898,7.0898,7.0898,7.0898,7.0898,7.0898,7.1514,7.3238,7.3507,7.4123,7.5784,7.6015,7.6015,7.6015,7.6015,7.6015,7.6015,7.6015,7.6015,7.6015,7.6015,7.613,7.6476,7.6476,7.6746,7.7292,7.7938,7.8784,7.9815,8.0131,8.0554,8.1093,8.1093,8.1093,8.1093,8.1093,8.1093,0.0,8.1093,8.1093,8.1093,8.1093,8.1093,8.1093,8.1093,8.1285,8.167,8.2516,8.3362,8.4209,8.5093,8.5709,8.6094,8.6094,8.6094,8.6094,8.6094,8.6094,8.6094,8.6094,8.6094,8.6094,8.6094,8.6094,8.6094,8.6094,8.6094,8.6094,8.6094,8.6094,8.6094,8.6094,8.6094,8.6094,8.6094,8.6094,8.6094,8.6094,8.6094,8.6094,8.6094,8.6094,8.6094,8.6094,8.6094,8.6094,8.6094,8.6094,8.6094,8.6094,8.6094,8.6094,8.6094,8.6094,8.6094,8.6094,8.6094,8.6094,8.6094,8.6094,8.6094,0.0,6.3314,6.3737,6.5474,6.7167,6.8391,6.8391,6.9699,0.0,7.0898,7.0898,7.0898,7.0898,7.0898,7.0898,7.0898,7.0937,7.1591,7.3276,7.3584,7.4238,7.5822,7.6015,7.6015,7.6015,7.6015,7.6015,7.6015,7.6015,7.6015,7.6015,7.6053,7.6476,7.7292,7.7407,7.7484,7.7484,7.9015,7.9815,7.9892,8.0708,8.1093,8.1093,8.1093,8.1093,8.1093,8.1093,8.1093,8.1093,8.1093,8.1093,8.1093,8.1093,8.1093,8.1093,8.1093,8.1593,8.2401,8.3293,8.417,8.5008,8.5863,8.6094,8.6094,8.6094,8.6094,8.6094,8.6094,8.6094,8.6094,8.6094,8.6094,8.6094,8.6094,8.6094,8.6094,8.6094,8.6094,8.6094,8.6094,8.6094,8.6094,8.6094,8.6094,8.6094,8.6094,8.6094,8.6094,8.6094,8.6094,8.6094,8.6094,8.6094,8.6094,8.6094,8.6094,8.6094,8.6094,8.6094,8.6094,8.6094,8.6094,8.6094,8.6094,8.6094,8.6094,8.6094,8.6094,8.6094,8.6094,8.6094,8.6094,6.3045,0.0,6.3737,6.5474,6.7167,6.8391,0.0,6.9699,7.0898,7.0898,7.0898,7.0898,7.0898,7.0898,7.0898,7.0898,7.1475,7.2283,7.3353,7.4584,7.5553,7.5938,7.6015,7.6015,7.6015,7.6015,7.6015,7.6015,7.6015,7.6015,7.6015,7.663,7.7099,7.7292,7.8554,7.9208,7.9208,7.9585,8.0131,8.0785,8.1016,8.1093,8.1093,8.1093,8.1093,8.1093,8.1093,8.1093,8.1093,8.1093,8.1093,8.1093,8.1093,8.1093,8.1093,8.1093,8.1593,8.2401,8.3293,8.417,8.5008,8.5863,8.6094,8.6094,8.6094,8.6094,8.6094,8.6094,8.6094,8.6094,8.6094,8.6094,8.6094,8.6094,8.6094,8.6094,8.6094,8.6094,8.6094,8.6094,8.6094,8.6094,8.6094,8.6094,8.6094,8.6094,8.6094,8.6094,8.6094,8.6094,8.6094,8.6094,8.6094,8.6094,8.6094,8.6094,8.6094,8.6094,8.6094,8.6094,8.6094,8.6094,8.6094,8.6094,8.6094,8.6094,8.6094,8.6094,8.6094,8.6094,8.6094,8.6094,6.3083,6.3583,6.4314,6.6019,6.7436,6.8507,6.8891,6.9975,7.0898,7.0898,7.0898,7.0898,7.0898,7.0898,7.0898,7.0898,7.1636,7.2629,7.3892,7.5168,7.6015,7.6015,7.6015,7.6015,7.6015,7.6015,7.6015,7.6015,7.6015,7.6169,7.6592,7.7061,7.763,7.84,7.9323,7.9815,7.9815,8.0208,8.0631,8.1093,8.1093,8.1093,8.1093,8.1093,8.1093,8.1093,8.1093,8.1093,8.1093,8.1093,8.1093,8.1093,8.1093,8.1093,8.1093,8.1093,8.1862,8.2947,8.3447,8.4401,8.5517,8.5978,8.6094,8.6094,8.6094,8.6094,8.6094,8.6094,8.6094,8.6094,8.6094,8.6094,8.6094,8.6094,8.6094,8.6094,8.6094,8.6094,8.6094,8.6094,8.6094,8.6094,8.6094,8.6094,8.6094,8.6094,8.6094,8.6094,8.6094,8.6094,8.6094,8.6094,8.6094,8.6094,8.6094,8.6094,8.6094,8.6094,8.6094,8.6094,8.6094,8.6094,8.6094,8.6094,8.6094,8.6094,8.6094,8.6094,8.6094,8.6094,8.6094,8.6094,6.3121,6.4122,6.532,6.675,6.7744,6.8622,6.9513,7.0321,7.0898,7.0898,7.0898,7.0898,7.0898,7.0898,7.0898,7.0898,7.1745,7.2976,7.4668,7.5515,7.6015,7.6015,7.6015,7.6015,7.6015,7.6015,7.6015,7.6015,7.613,7.6515,7.7253,7.7561,7.8323,7.9738,7.9931,8.0008,8.0008,8.0746,8.1093,8.1093,8.1093,8.1093,8.1093,8.1093,8.1093,8.1093,8.1093,8.1093,8.1093,8.1093,8.1093,8.1093,8.1093,8.1093,8.1093,8.1093,8.217,8.364,8.3909,8.4901,8.6094,8.6094,8.6094,8.6094,8.6094,8.6094,8.6094,8.6094,8.6094,8.6094,8.6094,8.6094,8.6094,8.6094,8.6094,8.6094,8.6094,8.6094,8.6094,8.6094,8.6094,8.6094,8.6094,8.6094,8.6094,8.6094,8.6094,8.6094,8.6094,8.6094,8.6094,8.6094,8.6094,8.6094,8.6094,8.6094,8.6094,8.6094,8.6094,8.6094,8.6094,8.6094,8.6094,8.6094,8.6094,8.6094,8.6094,8.6094,8.6094,8.6094,8.6094,8.6094,6.3275,6.4974,6.6789,6.7058,6.7744,6.8622,6.9513,7.0321,7.0898,7.0898,7.0898,7.0898,7.0898,7.0898,7.0898,7.0898,7.2238,7.3892,7.5553,7.5938,7.6015,7.6015,7.6015,7.6015,7.6015,7.6015,7.6015,7.6015,7.6669,7.7176,7.7292,7.8669,7.9508,7.9777,8.0516,8.09,8.09,8.1016,8.1093,8.1093,8.1093,8.1093,8.1093,8.1093,8.1093,8.1093,8.1093,8.1093,8.1093,8.1093,8.1093,8.1093,8.1093,8.1093,8.1093,8.1093,8.217,8.3793,8.5209,8.5901,8.6094,8.6094,8.6094,8.6094,8.6094,8.6094,8.6094,8.6094,8.6094,8.6094,8.6094,8.6094,8.6094,8.6094,8.6094,8.6094,8.6094,8.6094,8.6094,8.6094,8.6094,8.6094,8.6094,8.6094,8.6094,8.6094,8.6094,8.6094,8.6094,8.6094,8.6094,8.6094,8.6094,8.6094,8.6094,8.6094,8.6094,8.6094,8.6094,8.6094,8.6094,8.6094,8.6094,8.6094,8.6094,8.6094,8.6094,8.6094,8.6094,8.6094,8.6094,8.6094,6.3852,6.5513,6.7212,6.7667,6.8475,6.9321,7.0167,7.0629,7.0898,7.0898,7.0898,7.0898,7.0898,7.0898,7.1206,7.2168,7.3353,7.4584,7.5822,7.6015,7.6015,7.6015,7.6015,7.6015,7.6015,7.6015,7.6207,7.6669,7.7053,7.7707,7.8592,7.9392,8.0015,8.0477,8.09,8.1093,8.1093,8.1093,8.1093,8.1093,8.1093,8.1093,8.1093,8.1093,8.1093,8.1093,8.1093,8.1093,8.1093,8.1093,8.1093,8.1093,8.1093,8.1093,8.1208,8.2131,8.2947,8.3832,8.5517,8.6094,8.6094,8.6094,8.6094,8.6094,8.6094,8.6094,8.6094,8.6094,8.6094,8.6094,8.6094,8.6094,8.6094,8.6094,8.6094,8.6094,8.6094,8.6094,8.6094,8.6094,8.6094,8.6094,8.6094,8.6094,8.6094,8.6094,8.6094,8.6094,8.6094,8.6094,8.6094,8.6094,8.6094,8.6094,8.6094,8.6094,8.6094,8.6094,8.6094,8.6094,8.6094,8.6094,8.6094,8.6094,8.6094,8.6094,8.6094,8.6094,8.6094,8.6094,8.6094,8.6094,6.4628,6.6128,6.759,6.8468,6.9206,6.9898,7.0706,7.0898,7.0898,7.0898,7.0898,7.0898,7.0898,7.1052,7.1783,7.3507,7.4315,7.5007,7.5861,7.6015,7.6015,7.6015,7.6015,7.6015,7.6015,7.6169,7.6592,7.7253,7.7676,7.8438,7.9738,7.9969,8.04,8.1093,8.1093,8.1093,8.1093,8.1093,8.1093,8.1093,8.1093,8.1093,8.1093,8.1093,8.1093,8.1093,8.1093,8.1093,8.1093,8.1093,8.1093,8.1093,8.1093,8.1093,8.1285,8.2986,8.3601,8.3832,8.5517,8.6094,8.6094,8.6094,8.6094,8.6094,8.6094,8.6094,8.611,8.6176,8.62,8.6176,8.6118,8.6094,8.6094,8.6094,8.6094,8.6094,8.6094,8.6094,8.6094,8.6094,8.6094,8.6094,8.6094,8.6094,8.6094,8.6094,8.6094,8.6094,8.6094,8.6094,8.6094,8.6094,8.6094,8.6094,8.6094,8.6094,8.6094,8.6094,8.6094,8.6094,8.6094,8.6094,8.6094,8.6094,8.6094,8.6094,8.6094,8.6094,8.6094,8.6094,8.6094,8.6094,6.5359,6.7013,6.8507,6.9398,6.9667,6.9898,7.0706,7.0898,7.0898,7.0898,7.0898,7.0898,7.0898,7.1552,7.2668,7.4353,7.4661,7.5007,7.5861,7.6015,7.6015,7.6015,7.6015,7.6015,7.6015,7.6746,7.7215,7.7292,7.8746,7.9669,7.9777,8.0554,8.1054,8.1093,8.1093,8.1093,8.1093,8.1093,8.1093,8.1093,8.1093,8.1093,8.1093,8.1093,8.1093,8.1093,8.1093,8.1093,8.1093,8.1093,8.1093,8.1093,8.1093,8.1093,8.1285,8.2986,8.3601,8.3832,8.5517,8.6094,8.6094,8.6094,8.6094,8.6094,8.6094,8.6094,8.6137,8.6389,8.6481,8.6403,8.6153,8.6094,8.6094,8.6094,8.6094,8.6094,8.6094,8.6094,8.6094,8.6094,8.6094,8.6094,8.6094,8.6094,8.6094,8.6094,8.6094,8.6094,8.6094,8.6094,8.6094,8.6094,8.6094,8.6094,8.6094,8.6094,8.6094,8.6094,8.6094,8.6094,8.6094,8.6094,8.6094,8.6094,8.6094,8.6094,8.6094,8.6094,8.6094,8.6094,8.6094,8.6094,6.6327,6.7898,6.9276,6.9629,7.009,7.0514,7.0821,7.0898,7.0898,7.0898,7.0898,7.1052,7.1591,7.2437,7.3392,7.4507,7.5168,7.563,7.5938,7.6015,7.6015,7.6015,7.6015,7.6015,7.6015,7.6784,7.7522,7.8023,7.9131,8.0046,8.0592,8.0939,8.1093,8.1093,8.1093,8.1093,8.1093,8.1093,8.1093,8.1093,8.1093,8.1093,8.1093,8.1093,8.1093,8.1093,8.1093,8.1093,8.1093,8.1093,8.1093,8.1093,8.1093,8.1093,8.1285,8.2986,8.3601,8.3832,8.5517,8.6094,8.6094,8.6094,8.6094,8.6094,8.6094,8.6239,8.6387,8.6481,8.6583,8.6615,8.641,8.6353,8.6296,8.6159,8.6094,8.6094,8.6094,8.6094,8.6094,8.6094,8.6094,8.6094,8.6094,8.6094,8.6094,8.6094,8.6094,8.6094,8.6094,8.6094,8.6094,8.6094,8.6094,8.6094,8.6094,8.6094,8.6094,8.6094,8.6094,8.6094,8.6094,8.6094,8.6094,8.6094,8.6094,8.6094,8.6094,8.6094,8.6094,8.6094,8.6094,8.6094,6.7205,6.859,6.9744,7.0014,7.0475,7.0898,7.0898,7.0898,7.0898,7.0898,7.1129,7.1591,7.2437,7.3322,7.4161,7.4976,7.563,7.6015,7.6015,7.6015,7.6015,7.6015,7.6015,7.6092,7.6361,7.7176,7.8023,7.8869,7.9708,8.0477,8.1054,8.1093,8.1093,8.1093,8.1093,8.1093,8.1093,8.1093,8.1093,8.1093,8.1093,8.1093,8.1093,8.1093,8.1093,8.1093,8.1093,8.1093,8.1093,8.1093,8.1093,8.1093,8.1093,8.1093,8.1285,8.2986,8.3601,8.3832,8.5517,8.6094,8.6094,8.6094,8.6145,8.6215,8.6215,8.6403,8.6611,8.6661,8.6804,8.6844,8.6729,8.6589,8.6455,8.6283,8.6153,8.6094,8.6094,8.6094,8.6094,8.6094,8.6094,8.6094,8.6094,8.6094,8.6094,8.6094,8.6094,8.6094,8.6094,8.6094,8.6094,8.6094,8.6094,8.6094,8.6094,8.6094,8.6094,8.6094,8.6094,8.6094,8.6094,8.6094,8.6094,8.6094,8.6094,8.6094,8.6094,8.6094,8.6094,8.6094,8.6094,8.6094,6.7968,6.9045,6.9898,7.0706,7.0898,7.0898,7.0898,7.0898,7.0898,7.0898,7.1591,7.2476,7.3353,7.4161,7.4976,7.5861,7.6015,7.6015,7.6015,7.6015,7.6015,7.6015,7.6015,7.6361,7.7215,7.8023,7.8861,7.9738,8.0592,8.1093,8.1093,8.1093,8.1093,8.1093,8.1093,8.1093,8.1093,8.1093,8.1093,8.1093,8.1093,8.1093,8.1093,8.1093,8.1093,8.1093,8.1093,8.1093,8.1093,8.1093,8.1093,8.1093,8.1093,8.1093,8.1285,8.2986,8.3601,8.3832,8.5517,8.6094,8.6094,8.6094,8.6267,8.6486,8.6486,8.6659,8.6826,8.7031,8.7104,8.7106,8.7106,8.6821,8.6525,8.6486,8.6281,8.6094,8.6094,8.6094,8.6094,8.6094,8.6094,8.6094,8.6094,8.6094,8.6094,8.6094,8.6094,8.6094,8.6094,8.6094,8.6094,8.6094,8.6094,8.6094,8.6094,8.6094,8.6094,8.6094,8.6094,8.6094,8.6094,8.6094,8.6094,8.6094,8.6094,8.6094,8.6094,8.6094,8.6094,8.6094,8.6094,8.6094,6.9007,6.9937,7.0591,7.0821,7.0898,7.0898,7.0898,7.0898,7.0898,7.0898,7.1591,7.2476,7.3353,7.4161,7.4976,7.5861,7.6015,7.6015,7.6015,7.6015,7.6015,7.6015,7.6553,7.7015,7.7292,7.8592,7.9515,7.9777,8.0592,8.1093,8.1093,8.1093,8.1093,8.1093,8.1093,8.1093,8.1093,8.1093,8.1093,8.1093,8.1093,8.1093,8.1093,8.1093,8.1093,8.1093,8.1093,8.1093,8.1093,8.1093,8.1093,8.1093,8.1093,8.1093,8.1285,8.2986,8.3601,8.3832,8.5517,8.6208,8.6362,8.6362,8.6514,8.671,8.671,8.6833,8.7019,8.7096,8.7229,8.7375,8.7375,8.7153,8.6905,8.6752,8.6532,8.6362,8.6362,8.6223,8.6094,8.6094,8.6094,8.6094,8.6094,8.6094,8.6094,8.6094,8.6094,8.6094,8.6094,8.6094,8.6094,8.6094,8.6094,8.6094,8.6094,8.6094,8.6094,8.6094,8.6094,8.6094,8.6094,8.6094,8.6094,8.6094,8.6094,8.6094,8.6094,8.6094,8.6094,8.6094,8.6094,8.6094,6.9475,7.0283,7.0898,7.0898,7.0898,7.0898,7.0898,7.0898,7.1014,7.136,7.2091,7.2976,7.3815,7.4661,7.5399,7.5899,7.6015,7.6015,7.6015,7.6015,7.613,7.6476,7.6984,7.7561,7.8246,7.9208,7.9931,8.0277,8.0785,8.1093,8.1093,8.1093,8.1093,8.1093,8.1093,8.1093,8.1093,8.1093,8.1093,8.1093,8.1093,8.1093,8.1093,8.1093,8.1093,8.1093,8.1093,8.1093,8.1093,8.1093,8.1093,8.1093,8.1093,8.1093,8.1246,8.2593,8.3293,8.3793,8.5132,8.602,8.6519,8.6519,8.6681,8.6936,8.6936,8.708,8.7275,8.7275,8.7374,8.75,8.75,8.7375,8.7216,8.6977,8.6778,8.6594,8.6505,8.6387,8.6215,8.6126,8.6094,8.6094,8.6094,8.6094,8.6094,8.6094,8.6094,8.6094,8.6094,8.6094,8.6094,8.6094,8.6094,8.6094,8.6094,8.6094,8.6094,8.6094,8.6094,8.6094,8.6094,8.6094,8.6094,8.6094,8.6094,8.6094,8.6094,8.6094,8.6094,8.6094,8.6094,8.6094,6.959,7.036,7.0898,7.0898,7.0898,7.0898,7.0898,7.0975,7.1245,7.2059,7.2899,7.3738,7.4546,7.5399,7.6015,7.6015,7.6015,7.6015,7.6015,7.6015,7.6322,7.7215,7.7369,7.8054,7.9623,7.9854,8.0246,8.1054,8.1093,8.1093,8.1093,8.1093,8.1093,8.1093,8.1093,8.1093,8.1093,8.1093,8.1093,8.1093,8.1093,8.1093,8.1093,8.1093,8.1093,8.1093,8.1093,8.1093,8.1093,8.1093,8.1093,8.1093,8.1093,8.1093,8.1208,8.2016,8.287,8.3717,8.4593,8.5618,8.6523,8.6523,8.6817,8.7157,8.7157,8.7324,8.75,8.75,8.75,8.75,8.75,8.75,8.7459,8.7178,8.698,8.6783,8.6555,8.6499,8.6416,8.6137,8.6094,8.6094,8.6094,8.6094,8.6094,8.6094,8.6094,8.6094,8.6094,8.6094,8.6094,8.6094,8.6094,8.6094,8.6094,8.6094,8.6094,8.6094,8.6094,8.6094,8.6094,8.6094,8.6094,8.6094,8.6094,8.6094,8.6094,8.6094,8.6094,8.6094,8.6094,8.6094,7.0437,7.0783,7.0898,7.0898,7.0898,7.0898,7.0898,7.1437,7.1982,7.2175,7.2899,7.3738,7.4546,7.5399,7.6015,7.6015,7.6015,7.6015,7.6015,7.6015,7.6322,7.7215,7.7869,7.8631,7.97,8.0439,8.09,8.1093,8.1093,8.1093,8.1093,8.1093,8.1093,8.1093,8.1093,8.1093,8.1093,8.1093,8.1093,8.1093,8.1093,8.1093,8.1093,8.1093,8.1093,8.1093,8.1093,8.1093,8.1093,8.1093,8.1093,8.1093,8.1093,8.1093,8.1208,8.2016,8.287,8.3717,8.4593,8.5713,8.6742,8.6742,8.7044,8.7418,8.7418,8.746,8.75,8.75,8.75,8.75,8.75,8.75,8.75,8.7419,8.7222,8.6986,8.6791,8.6611,8.6416,8.6137,8.6094,8.6094,8.6094,8.6094,8.6094,8.6094,8.6094,8.6094,8.6094,8.6094,8.6094,8.6094,8.6094,8.6094,8.6094,8.6094,8.6094,8.6094,8.6094,8.6094,8.6094,8.6094,8.6094,8.6094,8.6094,8.6094,8.6094,8.6094,8.6094,8.6094,8.6094,8.6094,7.0667,7.0898,7.0898,7.0898,7.0898,7.0898,7.0898,7.1552,7.2329,7.2745,7.3469,7.4315,7.5168,7.5707,7.6015,7.6015,7.6015,7.6015,7.6015,7.6361,7.6938,7.7753,7.8592,7.9477,8.0323,8.0823,8.1093,8.1093,8.1093,8.1093,8.1093,8.1093,8.1093,8.1093,8.1093,8.1093,8.1093,8.1093,8.1093,8.1093,8.1093,8.1093,8.1093,8.1093,8.1093,8.1093,8.1093,8.1093,8.1093,8.1093,8.1093,8.1093,8.1093,8.1093,8.1131,8.1554,8.2516,8.3671,8.4209,8.5473,8.6833,8.6929,8.7209,8.75,8.75,8.75,8.75,8.75,8.75,8.75,8.75,8.75,8.75,8.75,8.7377,8.7214,8.6883,8.6719,8.6532,8.6176,8.6094,8.6094,8.6094,8.6094,8.6094,8.6094,8.6094,8.6094,8.6094,8.6094,8.6094,8.6094,8.6094,8.6094,8.6094,8.6094,8.6094,8.6094,8.6094,8.6094,8.6094,8.6094,8.6094,8.6094,8.6094,8.6094,8.6094,8.6094,8.6094,8.6094,8.6094,8.6094,7.0706,7.0898,7.0898,7.0898,7.0898,7.0898,7.0898,7.1706,7.2629,7.3353,7.4123,7.4976,7.5822,7.6015,7.6015,7.6015,7.6015,7.6015,7.6015,7.6746,7.7599,7.8407,7.9285,8.0131,8.1016,8.1093,8.1093,8.1093,8.1093,8.1093,8.1093,8.1093,8.1093,8.1093,8.1093,8.1093,8.1093,8.1093,8.1093,8.1093,8.1093,8.1093,8.1093,8.1093,8.1093,8.1093,8.1093,8.1093,8.1093,8.1093,8.1093,8.1093,8.1093,8.1093,8.1093,8.1093,8.2054,8.3418,8.3752,8.5064,8.6615,8.6958,8.7232,8.75,8.75,8.75,8.75,8.75,8.75,8.75,8.75,8.75,8.75,8.75,8.75,8.7373,8.6946,8.6802,8.6686,8.623,8.6143,8.6094,8.6094,8.6094,8.6094,8.6094,8.6094,8.6094,8.6094,8.6094,8.6094,8.6094,8.6094,8.6094,8.6094,8.6094,8.6094,8.6094,8.6094,8.6094,8.6094,8.6094,8.6094,8.6094,8.6094,8.6094,8.6094,8.6094,8.6094,8.6094,8.6094,8.6094,7.086,7.0898,7.0898,7.0898,7.0898,7.0898,7.0898,7.2168,7.3353,7.3469,7.4123,7.4976,7.5822,7.6015,7.6015,7.6015,7.6015,7.6015,7.6015,7.6746,7.7599,7.8407,7.9285,8.0131,8.1016,8.1093,8.1093,8.1093,8.1093,8.1093,8.1093,8.1093,8.1093,8.1093,8.1093,8.1093,8.1093,8.1093,8.1093,8.1093,8.1093,8.1093,8.1093,8.1093,8.1093,8.1093,8.1093,8.1093,8.1093,8.1093,8.1093,8.1093,8.1093,8.1093,8.1093,8.1093,8.167,8.2609,8.3356,8.4532,8.5813,8.658,8.7141,8.75,8.75,8.75,8.75,8.75,8.75,8.75,8.75,8.75,8.75,8.75,8.75,8.7418,8.711,8.6939,8.6738,8.6486,8.6261,8.6094,8.6094,8.6094,8.6094,8.6094,8.6094,8.6094,8.6094,8.6094,8.6094,8.6094,8.6094,8.6094,8.6094,8.6094,8.6094,8.6094,8.6094,8.6094,8.6094,8.6094,8.6094,8.6094,8.6094,8.6094,8.6094,8.6094,8.6094,8.6094,8.6094,8.6094,7.0898,7.0898,7.0898,7.0898,7.0898,7.1014,7.1521,7.2591,7.3623,7.4084,7.4853,7.5553,7.5938,7.6015,7.6015,7.6015,7.6015,7.6015,7.6015,7.7138,7.8099,7.8446,7.9708,8.0669,8.1054,8.1093,8.1093,8.1093,8.1093,8.1093,8.1093,8.1093,8.1093,8.1093,8.1093,8.1093,8.1093,8.1093,8.1093,8.1093,8.1093,8.1093,8.1093,8.1093,8.1093,8.1093,8.1093,8.1093,8.1093,8.1093,8.1093,8.1093,8.1093,8.1093,8.1093,8.1093,8.1593,8.2394,8.305,8.4238,8.5615,8.6263,8.6933,8.75,8.75,8.75,8.75,8.75,8.75,8.75,8.75,8.75,8.75,8.75,8.75,8.746,8.7332,8.7055,8.6705,8.6328,8.6288,8.629,8.6135,8.6094,8.6094,8.6094,8.6094,8.6094,8.6094,8.6094,8.6094,8.6094,8.6094,8.6094,8.6094,8.6094,8.6094,8.6094,8.6094,8.6094,8.6094,8.6094,8.6094,8.6094,8.6094,8.6094,8.6094,8.6094,8.6094,8.6094,8.6094,8.6094,7.0898,7.0898,7.0898,7.0898,7.0898,7.1129,7.2021,7.286,7.3738,7.4546,7.5399,7.6015,7.6015,7.6015,7.6015,7.6015,7.6015,7.6092,7.6284,7.7599,7.86,7.8792,8.0169,8.1093,8.1093,8.1093,8.1093,8.1093,8.1093,8.1093,8.1093,8.1093,8.1093,8.1093,8.1093,8.1093,8.1093,8.1093,8.1093,8.1093,8.1093,8.1093,8.1093,8.1093,8.1093,8.1093,8.1093,8.1093,8.1093,8.1093,8.1093,8.1093,8.1093,8.1093,8.1093,8.1093,8.1477,8.2085,8.2691,8.39,8.529,8.5905,8.6717,8.75,8.75,8.75,8.75,8.75,8.75,8.75,8.75,8.75,8.75,8.75,8.75,8.7461,8.7418,8.7137,8.6726,8.6296,8.6373,8.641,8.6167,8.6094,8.6094,8.6094,8.6094,8.6094,8.6094,8.6094,8.6094,8.6094,8.6094,8.6094,8.6094,8.6094,8.6094,8.6094,8.6094,8.6094,8.6094,8.6094,8.6094,8.6094,8.6094,8.6094,8.6094,8.6094,8.6094,8.6094,8.6094,8.6094,7.0898,7.0898,7.0898,7.0898,7.0898,7.1129,7.2021,7.286,7.3738,7.4546,7.5399,7.6015,7.6015,7.6015,7.6015,7.6015,7.6015,7.6284,7.7138,7.7946,7.883,7.9631,8.0554,8.1093,8.1093,8.1093,8.1093,8.1093,8.1093,8.1093,8.1093,8.1093,8.1093,8.1093,8.1093,8.1093,8.1093,8.1093,8.1093,8.1093,8.1093,8.1093,8.1093,8.1093,8.1093,8.1093,8.1093,8.1093,8.1093,8.1093,8.1093,8.1093,8.1093,8.1093,8.1093,8.1093,8.1131,8.1308,8.2283,8.3407,8.4536,8.5512,8.6579,8.75,8.75,8.75,8.75,8.75,8.75,8.75,8.75,8.75,8.75,8.75,8.75,8.7419,8.7172,8.7104,8.6974,8.6576,8.6506,8.641,8.6167,8.6094,8.6094,8.6094,8.6094,8.6094,8.6094,8.6094,8.6094,8.6094,8.6094,8.6094,8.6094,8.6094,8.6094,8.6094,8.6094,8.6094,8.6094,8.6094,8.6094,8.6094,8.6094,8.6094,8.6094,8.6094,8.6094,8.6094,8.6094,8.6094,7.0898,7.0985,7.1056,7.0914,7.0991,7.1436,7.2755,7.3276,7.3892,7.5245,7.5784,7.6015,7.6015,7.6015,7.6015,7.6015,7.6015,7.6092,7.6399,7.7638,7.8638,7.8938,8.0246,8.1093,8.1093,8.1093,8.1093,8.1093,8.1093,8.1093,8.1093,8.1093,8.1093,8.1093,8.1093,8.1093,8.1093,8.1093,8.1093,8.1093,8.1093,8.1093,8.1093,8.1093,8.1093,8.1093,8.1093,8.1093,8.1093,8.1093,8.1093,8.1093,8.1093,8.1093,8.1124,8.1224,8.1311,8.1387,8.1994,8.2857,8.3825,8.4895,8.5895,8.6758,8.7344,8.7375,8.7232,8.7232,8.7232,8.7232,8.7232,8.7374,8.746,8.728,8.7232,8.717,8.6962,8.6926,8.6845,8.6565,8.6519,8.641,8.6167,8.6094,8.6094,8.6094,8.6094,8.6094,8.6094,8.6094,8.6094,8.6094,8.6094,8.6094,8.6094,8.6094,8.6094,8.6094,8.6094,8.6094,8.6094,8.6094,8.6094,8.6094,8.6094,8.6094,8.6094,8.6094,8.6094,8.6094,8.6094,8.6094,7.0898,7.0991,7.1091,7.1022,7.1038,7.1549,7.317,7.352,7.3969,7.5668,7.6015,7.6015,7.6015,7.6015,7.6015,7.6015,7.6015,7.6092,7.6399,7.7638,7.86,7.8907,8.0208,8.1093,8.1093,8.1093,8.1093,8.1093,8.1093,8.1093,8.1093,8.1093,8.1093,8.1093,8.1093,8.1093,8.1093,8.1093,8.1093,8.1093,8.1093,8.1093,8.1093,8.1093,8.1093,8.1093,8.1093,8.1093,8.1093,8.1093,8.1093,8.1093,8.1093,8.1093,8.1124,8.1231,8.1355,8.1442,8.176,8.2506,8.3416,8.4215,8.5234,8.6289,8.6791,8.6996,8.7104,8.7104,8.7104,8.7112,8.7222,8.7284,8.7284,8.7073,8.7,8.6971,8.6849,8.6817,8.6747,8.6541,8.6519,8.641,8.6167,8.6094,8.6094,8.6094,8.6094,8.6094,8.6094,8.6094,8.6094,8.6094,8.6094,8.6094,8.6094,8.6094,8.6094,8.6094,8.6094,8.6094,8.6094,8.6094,8.6094,8.6094,8.6094,8.6094,8.6094,8.6094,8.6094,8.6094,8.6094,8.6094,0.0,0.0,0.0,7.1148,7.105,7.1403,7.3281,7.3613,7.3983,7.5668,7.6015,7.6015,7.6015,7.6015,7.6015,7.6015,7.6015,7.6284,7.7138,7.7984,7.883,7.9662,8.0554,8.1093,8.1093,8.1093,8.1093,8.1093,8.1093,8.1093,8.1093,8.1093,8.1093,8.1093,8.1093,8.1093,8.1093,8.1093,8.1093,8.1093,8.1093,8.1093,8.1093,8.1093,8.1093,8.1093,8.1093,8.1093,8.1093,8.1093,8.1093,8.1093,8.1093,8.1093,8.1093,8.1108,8.1235,8.1414,8.1653,8.2395,8.3298,8.3512,8.4726,8.6092,8.5887,8.6402,8.7061,8.7104,8.7102,8.7163,8.7417,8.728,8.7029,8.6857,8.6808,8.6804,8.6796,8.6796,8.6729,8.6541,8.6468,8.6396,8.6129,8.6094,8.6094,8.6094,8.6094,8.6094,8.6094,8.6094,8.6094,8.6094,8.6094,8.6094,8.6094,8.6094,8.6094,8.6094,8.6094,8.6094,8.6094,8.6094,8.6094,8.6094,8.6094,8.6094,8.6094,8.6094,8.6094,8.6094,8.6094,8.6094,7.0898,0.0,0.0,0.0,0.0,0.0,7.3328,7.3662,7.4081,7.5687,7.6015,7.6015,7.6015,7.6015,7.6015,7.6015,7.6015,7.6092,7.6322,7.7599,7.86,7.8823,8.0169,8.1093,8.1093,8.1093,8.1093,8.1093,8.1093,8.1093,8.1093,8.1093,8.1093,8.1093,8.1093,8.1093,8.1093,8.1093,8.1093,8.1093,8.1093,8.1093,8.1093,8.1093,8.1093,8.1093,8.1093,8.1093,8.1093,8.1093,8.1093,8.1093,8.1093,8.1093,8.1131,8.1258,8.1335,8.1447,8.1812,8.2123,8.2516,8.3317,8.3819,8.4341,8.5692,8.602,8.6118,8.6887,8.6997,8.6916,8.6962,8.6939,8.6814,8.6643,8.6572,8.6547,8.6335,8.6279,8.6328,8.6487,8.6346,8.6192,8.611,8.6094,8.6094,8.6094,8.6094,8.6094,8.6094,8.6094,8.6094,8.6094,8.6094,8.6094,8.6094,8.6094,8.6094,8.6094,8.6094,8.6094,8.6094,8.6094,8.6094,8.6094,8.6094,8.6094,8.6094,8.6094,8.6094,8.6094,8.6094,8.6094,7.0898,7.1011,7.1137,7.1285,0.0,0.0,7.3431,7.3767,7.4148,7.5663,7.6015,7.6015,7.6015,7.6015,7.6015,7.6015,7.6015,7.6015,7.6015,7.7138,7.8138,7.8446,7.9708,8.0708,8.1054,8.1093,8.1093,8.1093,8.1093,8.1093,8.1093,8.1093,8.1093,8.1093,8.1093,8.1093,8.1093,8.1093,8.1093,8.1093,8.1093,8.1093,8.1093,8.1093,8.1093,8.1093,8.1093,8.1093,8.1093,8.1093,8.1093,8.1093,8.1093,8.1093,8.1124,8.1235,8.133,8.1436,8.1743,8.1875,8.2024,8.2805,8.3187,8.3527,8.4664,8.5276,8.5741,8.6272,8.6597,8.6796,8.669,8.6661,8.6632,8.6383,8.6331,8.6274,8.6143,8.6094,8.6167,8.6288,8.6223,8.6094,8.6094,8.6094,8.6094,8.6094,8.6094,8.6094,8.6094,8.6094,8.6094,8.6094,8.6094,8.6094,8.6094,8.6094,8.6094,8.6094,8.6094,8.6094,8.6094,8.6094,8.6094,8.6094,8.6094,8.6094,8.6094,8.6094,8.6094,8.6094,8.6094,8.6094,7.0898,7.0898,7.0979,7.1352,7.1366,0.0,7.3538,7.3855,7.4187,7.5684,7.6012,7.6027,7.5984,7.6012,7.6027,7.5984,7.6012,7.6027,7.5984,7.6746,7.7561,7.8292,7.9208,8.0085,8.09,8.1054,8.1093,8.1093,8.1093,8.1093,8.1093,8.1093,8.1093,8.1093,8.1093,8.1093,8.1093,8.1093,8.1093,8.1093,8.1093,8.1093,8.1093,8.1093,8.1093,8.1093,8.1093,8.1093,8.1093,8.1093,8.1093,8.1093,8.1093,8.1124,8.1116,8.1108,8.1228,8.1447,8.1614,8.1687,8.1718,8.2126,8.2627,8.313,8.3268,8.4312,8.5476,8.5467,8.6074,8.6724,8.6511,8.6462,8.6383,8.6145,8.6094,8.6094,8.6094,8.6094,8.6094,8.6094,8.6094,8.6094,8.6094,8.6094,8.6094,8.6094,8.6094,8.6094,8.6094,8.6094,8.6094,8.6094,8.6094,8.6094,8.6094,8.6094,8.6094,8.6094,8.6094,8.6094,8.6094,8.6094,8.6094,8.6094,8.6094,8.6094,8.6094,8.6094,8.6094,8.6094,8.6094,8.6094,7.0898,7.0898,7.096,7.1216,7.1366,0.0,7.3413,7.3981,7.4537,7.5741,7.6141,7.6171,7.6034,7.6147,7.6203,7.6027,7.6154,7.6197,7.602,7.6746,7.7369,7.7522,7.8861,7.9854,8.0046,8.0708,8.1093,8.1093,8.1093,8.1093,8.1093,8.1093,8.1093,8.1093,8.1093,8.1093,8.1093,8.1093,8.1093,8.1093,8.1093,8.1093,8.1093,8.1093,8.1093,8.1093,8.1093,8.1093,8.1093,8.1093,8.1093,8.1093,8.1093,8.1217,8.1317,8.1176,8.1228,8.1418,8.1436,8.1458,8.1514,8.1912,8.1942,8.197,8.2986,8.3314,8.3561,8.4887,8.5873,8.6499,8.6246,8.6176,8.616,8.611,8.6094,8.6094,8.6094,8.6094,8.6094,8.6094,8.6094,8.6094,8.6094,8.6094,8.6094,8.6094,8.6094,8.6094,8.6094,8.6094,8.6094,8.6094,8.6094,8.6094,8.6094,8.6094,8.6094,8.6094,8.6094,8.6094,8.6094,8.6094,8.6094,8.6094,8.6094,8.6094,8.6094,8.6094,8.6094,8.6094,8.6094,8.6094,7.0946,7.0898,7.0947,7.1148,7.1276,0.0,0.0,7.3851,7.442,7.5847,7.6225,7.6295,7.6295,7.6371,7.6419,7.6316,7.6295,7.6244,7.616,7.6444,7.6823,7.7253,7.8054,7.89,7.97,8.0208,8.0631,8.1054,8.1093,8.1093,8.1093,8.1093,8.1093,8.1093,8.1093,8.1093,8.1093,8.1093,8.1153,8.1269,8.1153,8.1161,8.1231,8.1231,8.1231,8.1238,8.138,8.1407,8.1395,8.1304,8.1298,8.1389,8.1304,8.1298,8.1389,8.1298,8.1305,8.1407,8.1407,8.1343,8.1311,8.1699,8.1662,8.1536,8.2288,8.2552,8.3001,8.4705,8.5429,8.5743,8.6035,8.6094,8.6094,8.6094,8.6094,8.6094,8.6094,8.6094,8.6094,8.6094,8.6094,8.6094,8.6094,8.6094,8.6094,8.6094,8.6094,8.6094,8.6094,8.6094,8.6094,8.6094,8.6094,8.6094,8.6094,8.6094,8.6094,8.6094,8.6094,8.6094,8.6094,8.6094,8.6094,8.6094,8.6094,8.6094,8.6094,8.6094,8.6094,8.6094,8.6094,8.6094,7.0953,7.0946,7.0991,7.1164,7.1373,7.1938,0.0,0.0,0.0,7.6051,7.6376,7.6457,7.6599,7.6614,7.6586,7.6391,7.6398,7.6323,7.6152,7.6091,7.6331,7.6998,7.7215,7.7823,7.9208,7.966,8.0214,8.1023,8.1159,8.121,8.1176,8.1203,8.1207,8.1207,8.1207,8.1207,8.1207,8.1207,8.1317,8.1453,8.1311,8.1285,8.1458,8.1458,8.1458,8.1469,8.1645,8.1684,8.1672,8.1514,8.1553,8.1664,8.1485,8.1442,8.1527,8.1414,8.1408,8.1442,8.1359,8.1242,8.1176,8.1514,8.1524,8.1408,8.1543,8.2018,8.2857,8.4256,8.4771,8.5055,8.5709,8.5978,8.6094,8.6094,8.6094,8.6094,8.6094,8.6094,8.6094,8.6094,8.6094,8.6094,8.6094,8.6094,8.6094,8.6094,8.6094,8.6094,8.6094,8.6094,8.6094,8.6094,8.6094,8.6094,8.6094,8.6094,8.6094,8.6094,8.6094,8.6094,8.6094,8.6094,8.6094,8.6094,8.6094,8.6094,8.6094,8.6094,8.6094,8.6094,8.6094,8.6094,7.0953,7.1041,7.118,7.1172,7.2005,7.2996,7.3784,0.0,7.5826,7.6423,0.0,7.677,7.665,0.0,0.0,7.5592,7.6229,7.6492,7.5556,7.6058,7.6429,7.6171,7.6823,7.7369,7.7561,7.9095,8.0345,8.1047,8.1414,8.1553,8.1371,8.1529,8.1649,8.1649,8.1649,8.1649,8.1649,8.1649,8.1623,8.1687,8.1623,8.1623,8.1687,8.1687,8.1687,8.1687,8.1672,8.1684,8.1684,8.1695,8.1664,8.1664,8.1485,8.1627,8.1883,8.1519,8.1499,8.1627,8.1244,8.1131,8.1131,8.1347,8.1436,8.1365,8.1207,8.17,8.2394,8.2548,8.3748,8.4931,8.5008,8.5555,8.6094,8.6094,8.6094,8.6094,8.6094,8.6094,8.6094,8.6094,8.6094,8.6094,8.6094,8.6094,8.6094,8.6094,8.6094,8.6094,8.6094,8.6094,8.6094,8.6094,8.6094,8.6094,8.6094,8.6094,8.6094,8.6094,8.6094,8.6094,8.6094,8.6094,8.6094,8.6094,8.6094,8.6094,8.6094,8.6094,8.6094,8.6094,8.6094,8.6094,7.1115,7.16,7.2142,7.2142,7.2857,7.3798,7.458,7.5179,7.5794,7.6617,0.0,0.0,0.0,0.0,0.0,0.0,7.6695,7.6749,7.6305,7.6453,7.6556,7.6351,7.6674,7.7069,7.7428,7.8614,7.9683,8.0473,8.0791,8.1134,8.1543,8.1636,8.1684,8.1684,8.1684,8.1684,8.1684,8.1684,8.1739,8.1873,8.1778,8.1743,8.1875,8.1875,8.1875,8.1878,8.1992,8.2054,8.2051,8.1909,8.1921,8.2001,8.168,8.1699,8.1822,8.1653,8.1553,8.1496,8.1217,8.1093,8.1124,8.121,8.1228,8.1193,8.1147,8.1323,8.1708,8.217,8.2824,8.3632,8.4624,8.5162,8.5517,8.5978,8.6094,8.6094,8.6094,8.6094,8.6094,8.6094,8.6094,8.6094,8.6094,8.6094,8.6094,8.6094,8.6094,8.6094,8.6094,8.6094,8.6094,8.6094,8.6094,8.6094,8.6094,8.6094,8.6094,8.6094,8.6094,8.6094,8.6094,8.6094,8.6094,8.6094,8.6094,8.6094,8.6094,8.6094,8.6094,8.6094,8.6094,8.6094,7.2021,7.259,7.3196,7.3196,7.3854,7.4701,7.5323,7.5635,7.6052,7.6825,7.6991,0.0,0.0,0.0,7.7109,7.6875,0.0,7.6916,7.6679,7.67,7.6729,7.6597,7.6582,7.6871,7.7583,7.8248,7.9078,8.01,8.0415,8.0911,8.1724,8.1847,8.187,8.187,8.187,8.187,8.187,8.187,8.1958,8.2067,8.1916,8.1921,8.2068,8.2068,8.2068,8.2071,8.2223,8.2304,8.2304,8.2127,8.2125,8.2176,8.1891,8.1699,8.1632,8.1632,8.1514,8.1365,8.1159,8.1093,8.1093,8.1093,8.1093,8.1093,8.1093,8.1093,8.1208,8.1823,8.2131,8.2593,8.3862,8.4555,8.5055,8.5632,8.594,8.6094,8.6094,8.6094,8.6094,8.6094,8.6094,8.6094,8.6094,8.6094,8.6094,8.6094,8.6094,8.6094,8.6094,8.6094,8.6094,8.6094,8.6094,8.6094,8.6094,8.6094,8.6094,8.6094,8.6094,8.6094,8.6094,8.6094,8.6094,8.6094,8.6094,8.6094,8.6094,8.6094,8.6094,8.6094,8.6094,8.6094,7.3951,7.4062,7.4267,7.4267,7.5059,7.5859,7.5859,7.6523,7.7148,7.7187,7.7187,7.7187,7.7187,7.7187,0.0,0.0,0.0,0.0,0.0,7.664,7.7049,7.6663,7.6582,7.6929,7.7735,7.8046,7.8811,8.0279,8.0769,8.1279,8.1953,8.2174,8.2265,8.2265,8.2265,8.2265,8.2265,8.2265,8.2265,8.2304,8.2265,8.2265,8.2304,8.2304,8.2304,8.2304,8.2304,8.2304,8.2304,8.2304,8.2175,8.1996,8.1988,8.1732,8.1424,8.1424,8.1418,8.1365,8.1159,8.1093,8.1093,8.1093,8.1093,8.1093,8.1093,8.1093,8.1093,8.1131,8.1708,8.2324,8.2362,8.3632,8.4893,8.4931,8.5508,8.6094,8.6094,8.6094,8.6094,8.6094,8.6094,8.6094,8.6094,8.6094,8.6094,8.6094,8.6094,8.6094,8.6094,8.6094,8.6094,8.6094,8.6094,8.6094,8.6094,8.6094,8.6094,8.6094,8.6094,8.6094,8.6094,8.6094,8.6094,8.6094,8.6094,8.6094,8.6094,8.6094,8.6094,8.6094,8.6094,8.6094,7.423,7.4758,7.5344,7.5344,7.6053,7.6758,7.6758,7.6992,7.7187,7.7187,7.7187,7.7187,7.7187,7.7187,0.0,0.0,0.0,0.0,0.0,7.6904,7.6942,7.6793,7.678,7.6897,7.7168,7.7287,7.7965,7.9438,7.9916,8.0696,8.1918,8.2177,8.2304,8.2304,8.2304,8.2304,8.2304,8.2304,8.2304,8.2304,8.2304,8.2304,8.2304,8.2304,8.2304,8.2304,8.2304,8.2304,8.2304,8.2304,8.2264,8.2173,8.1897,8.1703,8.1586,8.1447,8.1311,8.1196,8.11,8.1093,8.1093,8.1093,8.1093,8.1093,8.1093,8.1093,8.1093,8.1093,8.1285,8.1631,8.217,8.2747,8.3324,8.3901,8.4709,8.5316,8.5316,8.5701,8.6094,8.6094,8.6094,8.6094,8.6094,8.6094,8.6094,8.6094,8.6094,8.6094,8.6094,8.6094,8.6094,8.6094,8.6094,8.6094,8.6094,8.6094,8.6094,8.6094,8.6094,8.6094,8.6094,8.6094,8.6094,8.6094,8.6094,8.6094,8.6094,8.6094,8.6094,8.6094,8.6094,8.6094,7.5324,7.5852,7.6367,7.6367,7.6797,7.7187,7.7187,7.7187,7.7187,7.7187,7.7187,7.7187,7.7187,7.7187,0.0,0.0,0.0,0.0,0.0,7.6993,7.6866,7.6783,7.6856,7.6931,7.6998,7.7001,7.7646,7.9218,7.9552,8.0388,8.2001,8.2222,8.2304,8.2304,8.2304,8.2304,8.2304,8.2304,8.2304,8.2304,8.2304,8.2304,8.2304,8.2304,8.2304,8.2304,8.2304,8.2304,8.2304,8.2304,8.2264,8.2171,8.184,8.1675,8.1572,8.1359,8.12,8.1093,8.1093,8.1093,8.1093,8.1093,8.1093,8.1093,8.1093,8.1093,8.1054,8.0708,8.0862,8.1131,8.1362,8.1862,8.2439,8.2986,8.3785,8.4516,8.4824,8.5316,8.5747,8.6055,8.6094,8.6094,8.6094,8.6094,8.6094,8.6094,8.6094,8.6094,8.6094,8.6094,8.6094,8.6094,8.6094,8.6094,8.6094,8.6094,8.6094,8.6094,8.6094,8.6094,8.6094,8.6094,8.6247,8.6555,8.6247,8.6247,8.6555,8.6247,8.6094,8.6094,8.6094,8.6094]}]]